[[{"header":{"parameterUnit":"m.s-1","parameterCategory":1,"la1":31.0,"la2":29.5877,"lo1":-88.7671,"lo2":-86.6584,"dy":0.0162,"dx":0.0185,"nx":115,"ny":88,"refTime":"2024-07-25T12:00:00:Z","depth":0,"parameterNumber":2,"parameterNumberName":"U-component_of_WINDS"},"data":[0.0,0.0,0.0,0.0,0.0,0.0,0.0,0.0,0.0,0.0,0.0,0.0,0.0,0.0,0.0,0.0,0.0,0.0,0.0,0.0,0.0,0.0,0.0,0.0,0.0,0.0,0.0,0.0,0.0,0.0,0.0,0.0,0.0,0.0,0.0,0.0,0.0,0.0,0.0,0.0,0.0,0.0,0.0,0.0,0.0,0.0,0.0,0.0,0.0,0.0,0.0,0.0,0.0,0.0,0.0,0.0,0.0,0.0,0.0,0.0,0.0,0.0,0.0,0.0,0.0,0.0,0.0,0.0,0.0,0.0,0.0,0.0,0.0,0.0,0.0,0.0,0.0,0.0,0.0,0.0,0.0,0.0,0.0,0.0,0.0,0.0,0.0,0.0,0.0,0.0,0.0,0.0,0.0,0.0,0.0,0.0,0.0,0.0,0.0,0.0,0.0,0.0,0.0,0.0,0.0,0.0,0.0,0.0,0.0,0.0,0.0,0.0,0.0,0.0,0.0,0.0,0.0,0.0,0.0,0.0,0.0,0.0,0.0,0.0,0.0,0.0,0.0,0.0,0.0,0.0,0.0,0.0,0.0,0.0,0.0,0.0,0.0,0.0,0.0,0.0,0.0,0.0,0.0,0.0,0.0,0.0,0.0,0.0,0.0,0.0,0.0,0.0,0.0,0.0,0.0,0.0,0.0,0.0,0.0,0.0,0.0,0.0,0.0,0.0,0.0,0.0,0.0,0.0,0.0,0.0,0.0,0.0,0.0,0.0,0.0,0.0,0.0,0.0,0.0,0.0,0.0,0.0,0.0,0.0,0.0,0.0,0.0,0.0,0.0,0.0,0.0,0.0,0.0,0.0,0.0,0.0,0.0,0.0,0.0,0.0,0.0,0.0,0.0,0.0,0.0,0.0,0.0,0.0,0.0,0.0,0.0,0.0,0.0,0.0,0.0,0.0,0.0,0.0,0.0,0.0,0.0,0.0,0.0,0.0,0.0,0.0,0.0,0.0,0.0,0.0,0.0,0.0,0.0,0.0,0.0,0.0,0.0,0.0,0.0,0.0,0.0,0.0,0.0,0.0,0.0,0.0,0.0,0.0,0.0,0.0,0.0,0.0,0.0,0.0,0.0,0.0,0.0,0.0,0.0,0.0,0.0,0.0,0.0,0.0,0.0,0.0,0.0,0.0,0.0,0.0,0.0,0.0,0.0,0.0,0.0,0.0,0.0,0.0,0.0,0.0,0.0,0.0,0.0,0.0,0.0,0.0,0.0,0.0,0.0,0.0,0.0,0.0,0.0,0.0,0.0,0.0,0.0,0.0,0.0,0.0,0.0,0.0,0.0,0.0,0.0,0.0,0.0,0.0,0.0,0.0,0.0,0.0,0.0,0.0,0.0,0.0,0.0,0.0,0.0,0.0,0.0,0.0,0.0,0.0,0.0,0.0,0.0,0.0,0.0,0.0,0.0,0.0,0.0,0.0,0.0,0.0,0.0,0.0,0.0,0.0,0.0,0.0,0.0,0.0,0.0,0.0,0.0,0.0,0.0,0.0,0.0,0.0,0.0,0.0,0.0,0.0,0.0,0.0,0.0,0.0,0.0,0.0,0.0,0.0,0.0,0.0,0.0,0.0,0.0,0.0,0.0,0.0,0.0,0.0,0.0,0.0,0.0,0.0,0.0,0.0,0.0,0.0,0.0,0.0,0.0,0.0,0.0,0.0,0.0,0.0,0.0,0.0,0.0,0.0,0.0,0.0,0.0,0.0,0.0,0.0,0.0,0.0,0.0,0.0,0.0,0.0,0.0,0.0,0.0,0.0,0.0,0.0,0.0,0.0,0.0,0.0,0.0,0.0,0.0,0.0,0.0,0.0,0.0,0.0,0.0,0.0,0.0,0.0,0.0,0.0,0.0,0.0,0.0,0.0,0.0,0.0,0.0,0.0,0.0,0.0,0.0,0.0,0.0,0.0,0.0,0.0,0.0,0.0,0.0,0.0,0.0,0.0,0.0,0.0,0.0,0.0,0.0,0.0,0.0,0.0,0.0,0.0,0.0,0.0,0.0,0.0,0.0,0.0,0.0,0.0,0.0,0.0,0.0,0.0,0.0,0.0,0.0,0.0,0.0,0.0,0.0,0.0,0.0,0.0,0.0,0.0,0.0,0.0,0.0,0.0,0.0,0.0,0.0,0.0,0.0,0.0,0.0,0.0,0.0,0.0,0.0,0.0,0.0,0.0,0.0,0.0,0.0,0.0,0.0,0.0,0.0,0.0,0.0,0.0,0.0,0.0,0.0,0.0,0.0,0.0,0.0,0.0,0.0,0.0,0.0,0.0,0.0,0.0,0.0,0.0,0.0,0.0,0.0,0.0,0.0,0.0,0.0,0.0,0.0,0.0,0.0,0.0,0.0,0.0,0.0,0.0,0.0,0.0,0.0,0.0,0.0,0.0,0.0,0.0,0.0,0.0,0.0,0.0,0.0,0.0,0.0,0.0,0.0,0.0,0.0,0.0,0.0,0.0,0.0,0.0,0.0,0.0,0.0,0.0,0.0,0.0,0.0,0.0,0.0,0.0,0.0,0.0,0.0,0.0,0.0,0.0,0.0,0.0,0.0,0.0,0.0,0.0,0.0,0.0,0.0,0.0,0.0,0.0,0.0,0.0,0.0,0.0,0.0,0.0,0.0,0.0,0.0,0.0,0.0,0.0,0.0,0.0,0.0,0.0,0.0,0.0,0.0,0.0,0.0,0.0,0.0,0.0,0.0,0.0,0.0,0.0,0.0,0.0,0.0,0.0,0.0,0.0,0.0,0.0,0.0,0.0,0.0,0.0,0.0,0.0,0.0,0.0,0.0,0.0,0.0,0.0,0.0,0.0,0.0,0.0,0.0,0.0,0.0,0.0,0.0,0.0,0.0,0.0,0.0,0.0,0.0,0.0,0.0,0.0,0.0,0.0,0.0,0.0,0.0,0.0,0.0,0.0,0.0,0.0,0.0,0.0,0.0,0.0,0.0,0.0,0.0,0.0,0.0,0.0,0.0,0.0,0.0,0.0,0.0,0.0,0.0,0.0,0.0,0.0,0.0,0.0,0.0,0.0,0.0,0.0,0.0,0.0,0.0,0.0,0.0,0.0,0.0,0.0,0.0,0.0,0.0,0.0,0.0,0.0,0.0,0.0,0.0,0.0,0.0,0.0,0.0,0.0,0.0,0.0,0.0,0.0,0.0,0.0,0.0,0.0,0.0,0.0,0.0,0.0,0.0,0.0,0.0,0.0,0.0,0.0,0.0,0.0,0.0,0.0,0.0,0.0,0.0,0.0,0.0,0.0,0.0,0.0,0.0,0.0,0.0,0.0,0.0,0.0,0.0,0.0,0.0,0.0,0.0,0.0,0.0,0.0,0.0,0.0,0.0,0.0,0.0,0.0,0.0,0.0,0.0,0.0,0.0,0.0,0.0,0.0,0.0,0.0,0.0,0.0,0.0,0.0,0.0,0.0,0.0,0.0,0.0,0.0,0.0,0.0,0.0,0.0,0.0,0.0,0.0,0.0,0.0,0.0,0.0,0.0,0.0,0.0,0.0,0.0,0.0,0.0,0.0,0.0,0.0,0.0,0.0,0.0,0.0,0.0,0.0,0.0,0.0,0.0,0.0,0.0,0.0,0.0,0.0,0.0,0.0,0.0,0.0,0.0,0.0,0.0,0.0,0.0,0.0,0.0,0.0,0.0,0.0,0.0,0.0,0.0,0.0,0.0,0.0,0.0,0.0,0.0,0.0,0.0,0.0,0.0,0.0,0.0,0.0,0.0,0.0,0.0,0.0,0.0,0.0,0.0,0.0,0.0,0.0,0.0,0.0,0.0,0.0,0.0,0.0,0.0,0.0,0.0,0.0,0.0,0.0,0.0,0.0,0.0,0.0,0.0,0.0,0.0,0.0,0.0,0.0,0.0,0.0,0.0,0.0,0.0,0.0,0.0,0.0,0.0,0.0,0.0,0.0,0.0,0.0,0.0,0.0,0.0,0.0,0.0,0.0,0.0,0.0,0.0,0.0,0.0,0.0,0.0,0.0,0.0,0.0,0.0,0.0,0.0,0.0,0.0,0.0,0.0,0.0,0.0,0.0,0.0,0.0,0.0,0.0,0.0,0.0,0.0,0.0,0.0,0.0,0.0,0.0,0.0,0.0,0.0,0.0,0.0,0.0,0.0,0.0,0.0,0.0,0.0,0.0,0.0,0.0,0.0,0.0,0.0,0.0,0.0,0.0,0.0,0.0,0.0,0.0,0.0,-1.6946,0.0,0.0,0.0,0.0,0.0,0.0,0.0,0.0,0.0,0.0,0.0,0.0,0.0,0.0,0.0,0.0,0.0,0.0,0.0,0.0,0.0,0.0,0.0,0.0,0.0,0.0,0.0,0.0,0.0,0.0,0.0,0.0,0.0,0.0,0.0,0.0,0.0,0.0,0.0,0.0,0.0,0.0,0.0,0.0,0.0,0.0,0.0,0.0,0.0,0.0,0.0,0.0,0.0,0.0,0.0,0.0,0.0,0.0,0.0,0.0,0.0,0.0,0.0,0.0,0.0,0.0,0.0,0.0,0.0,0.0,0.0,0.0,0.0,0.0,0.0,0.0,0.0,0.0,0.0,0.0,0.0,0.0,0.0,0.0,0.0,0.0,0.0,0.0,0.0,0.0,0.0,0.0,0.0,0.0,0.0,0.0,0.0,0.0,0.0,0.0,0.0,0.0,0.0,0.0,0.0,0.0,0.0,0.0,0.0,0.0,-1.9979,-1.9839,-1.8948,-1.7981,-1.6912,0.0,0.0,0.0,0.0,0.0,0.0,0.0,0.0,0.0,0.0,0.0,0.0,0.0,0.0,0.0,0.0,0.0,0.0,0.0,0.0,0.0,0.0,0.0,0.0,0.0,0.0,0.0,0.0,0.0,0.0,0.0,0.0,0.0,0.0,0.0,0.0,0.0,0.0,0.0,0.0,0.0,0.0,0.0,0.0,0.0,0.0,0.0,0.0,0.0,0.0,0.0,0.0,0.0,0.0,0.0,0.0,0.0,0.0,0.0,0.0,0.0,0.0,0.0,0.0,0.0,0.0,0.0,0.0,0.0,0.0,0.0,0.0,0.0,0.0,0.0,0.0,0.0,0.0,0.0,0.0,0.0,0.0,0.0,0.0,0.0,0.0,0.0,0.0,0.0,0.0,0.0,0.0,0.0,0.0,0.0,0.0,0.0,0.0,0.0,0.0,0.0,0.0,0.0,0.0,0.0,0.0,0.0,0.0,0.0,0.0,0.0,0.0,-1.9455,-1.8435,-1.6965,0.0,0.0,0.0,0.0,0.0,0.0,0.0,0.0,0.0,0.0,0.0,0.0,0.0,0.0,0.0,0.0,0.0,0.0,0.0,0.0,0.0,0.0,0.0,0.0,0.0,0.0,0.0,0.0,0.0,0.0,0.0,0.0,0.0,0.0,0.0,0.0,0.0,0.0,0.0,0.0,0.0,0.0,0.0,0.0,0.0,0.0,0.0,0.0,0.0,0.0,0.0,0.0,0.0,0.0,0.0,0.0,0.0,0.0,0.0,0.0,0.0,0.0,0.0,0.0,0.0,0.0,0.0,0.0,0.0,0.0,0.0,0.0,0.0,0.0,0.0,0.0,0.0,0.0,0.0,0.0,0.0,0.0,0.0,0.0,0.0,0.0,0.0,0.0,0.0,0.0,0.0,0.0,0.0,0.0,0.0,0.0,0.0,0.0,0.0,0.0,0.0,0.0,0.0,0.0,0.0,0.0,0.0,0.0,0.0,0.0,-2.0814,-2.0633,-2.1269,0.0,-1.7779,0.0,0.0,0.0,0.0,0.0,0.0,0.0,0.0,0.0,0.0,0.0,0.0,0.0,0.0,0.0,0.0,0.0,0.0,0.0,0.0,0.0,0.0,0.0,0.0,0.0,0.0,0.0,0.0,0.0,0.0,0.0,0.0,0.0,0.0,0.0,0.0,0.0,0.0,0.0,0.0,0.0,0.0,0.0,0.0,0.0,0.0,0.0,0.0,0.0,0.0,0.0,0.0,0.0,0.0,0.0,0.0,0.0,0.0,0.0,0.0,0.0,0.0,0.0,0.0,0.0,0.0,0.0,0.0,0.0,0.0,0.0,0.0,0.0,0.0,0.0,0.0,0.0,0.0,0.0,0.0,0.0,0.0,0.0,0.0,0.0,0.0,0.0,0.0,0.0,0.0,0.0,0.0,0.0,0.0,0.0,0.0,0.0,0.0,0.0,0.0,0.0,0.0,0.0,0.0,0.0,0.0,0.0,0.0,0.0,0.0,0.0,-2.0751,-1.9908,-1.8817,0.0,0.0,0.0,0.0,0.0,0.0,0.0,0.0,0.0,0.0,0.0,0.0,0.0,0.0,0.0,0.0,0.0,0.0,0.0,0.0,0.0,0.0,0.0,0.0,0.0,0.0,0.0,0.0,0.0,0.0,0.0,0.0,0.0,0.0,0.0,0.0,0.0,0.0,0.0,0.0,0.0,0.0,0.0,0.0,0.0,0.0,0.0,0.0,0.0,0.0,0.0,0.0,0.0,0.0,0.0,0.0,0.0,0.0,0.0,0.0,0.0,0.0,0.0,0.0,0.0,0.0,0.0,0.0,0.0,0.0,0.0,0.0,0.0,0.0,0.0,0.0,0.0,0.0,0.0,0.0,0.0,0.0,0.0,0.0,0.0,0.0,0.0,0.0,0.0,0.0,0.0,0.0,0.0,0.0,0.0,0.0,0.0,0.0,0.0,0.0,0.0,0.0,0.0,0.0,0.0,0.0,0.0,0.0,0.0,0.0,-2.0704,0.0,-2.1131,-1.9469,-1.8163,-1.7345,0.0,0.0,0.0,0.0,0.0,0.0,0.0,0.0,0.0,0.0,0.0,0.0,0.0,0.0,0.0,0.0,0.0,0.0,0.0,0.0,0.0,0.0,0.0,0.0,0.0,0.0,0.0,0.0,0.0,0.0,0.0,0.0,0.0,0.0,0.0,0.0,0.0,0.0,0.0,0.0,0.0,0.0,0.0,0.0,0.0,0.0,0.0,0.0,0.0,0.0,0.0,0.0,0.0,0.0,0.0,0.0,0.0,0.0,0.0,0.0,0.0,0.0,0.0,0.0,0.0,0.0,0.0,0.0,0.0,0.0,0.0,0.0,0.0,0.0,0.0,0.0,0.0,0.0,0.0,0.0,0.0,0.0,0.0,0.0,0.0,0.0,0.0,0.0,0.0,0.0,0.0,0.0,0.0,0.0,0.0,0.0,0.0,0.0,0.0,0.0,0.0,0.0,0.0,0.0,0.0,0.0,0.0,0.0,0.0,-2.1197,-2.1714,-2.2159,-2.1149,-1.9559,0.0,0.0,0.0,0.0,0.0,0.0,0.0,0.0,0.0,0.0,0.0,0.0,0.0,0.0,0.0,0.0,0.0,0.0,0.0,0.0,0.0,0.0,0.0,0.0,0.0,0.0,0.0,0.0,0.0,0.0,0.0,0.0,0.0,0.0,0.0,0.0,0.0,0.0,0.0,0.0,0.0,0.0,0.0,0.0,0.0,0.0,0.0,0.0,0.0,0.0,0.0,0.0,0.0,0.0,0.0,0.0,0.0,0.0,0.0,0.0,0.0,0.0,0.0,0.0,0.0,0.0,0.0,0.0,0.0,0.0,0.0,0.0,0.0,0.0,0.0,0.0,0.0,0.0,0.0,0.0,0.0,0.0,0.0,0.0,0.0,0.0,0.0,0.0,0.0,0.0,0.0,0.0,0.0,0.0,0.0,0.0,0.0,0.0,0.0,0.0,0.0,0.0,0.0,0.0,0.0,0.0,0.0,0.0,0.0,-1.988,-2.0468,-2.1164,0.0,-1.9675,-1.8165,0.0,0.0,0.0,0.0,0.0,0.0,0.0,0.0,0.0,0.0,0.0,0.0,0.0,0.0,0.0,0.0,0.0,0.0,0.0,0.0,0.0,0.0,0.0,0.0,0.0,0.0,0.0,0.0,0.0,0.0,0.0,0.0,0.0,0.0,0.0,0.0,0.0,0.0,0.0,0.0,0.0,0.0,0.0,0.0,0.0,0.0,0.0,0.0,0.0,0.0,0.0,0.0,0.0,0.0,0.0,0.0,0.0,0.0,0.0,0.0,0.0,0.0,0.0,0.0,0.0,0.0,0.0,0.0,0.0,0.0,0.0,0.0,0.0,0.0,0.0,0.0,0.0,0.0,0.0,0.0,0.0,0.0,0.0,0.0,0.0,0.0,0.0,0.0,0.0,0.0,0.0,0.0,0.0,0.0,0.0,0.0,0.0,0.0,0.0,0.0,0.0,0.0,0.0,0.0,0.0,0.0,0.0,0.0,0.0,-1.9955,0.0,-2.1096,0.0,-1.9324,-1.786,0.0,0.0,0.0,0.0,0.0,0.0,0.0,0.0,0.0,0.0,0.0,0.0,0.0,0.0,0.0,0.0,0.0,0.0,0.0,0.0,0.0,0.0,0.0,0.0,0.0,0.0,0.0,0.0,0.0,0.0,0.0,0.0,0.0,0.0,0.0,0.0,0.0,0.0,0.0,0.0,0.0,0.0,0.0,0.0,0.0,0.0,0.0,0.0,0.0,0.0,0.0,0.0,0.0,0.0,0.0,0.0,0.0,0.0,0.0,0.0,0.0,0.0,0.0,0.0,0.0,0.0,0.0,0.0,0.0,0.0,0.0,0.0,0.0,0.0,0.0,0.0,0.0,0.0,0.0,0.0,0.0,0.0,0.0,0.0,0.0,0.0,0.0,0.0,0.0,0.0,0.0,0.0,0.0,0.0,0.0,0.0,0.0,0.0,0.0,0.0,0.0,0.0,0.0,0.0,0.0,0.0,0.0,0.0,-1.9222,-2.1012,-2.1574,-2.1566,-2.1136,-2.0357,-1.8848,0.0,0.0,0.0,0.0,0.0,0.0,0.0,0.0,0.0,0.0,0.0,0.0,0.0,0.0,0.0,0.0,0.0,0.0,0.0,0.0,0.0,0.0,0.0,0.0,0.0,0.0,0.0,0.0,0.0,0.0,0.0,0.0,0.0,0.0,0.0,0.0,0.0,0.0,0.0,0.0,0.0,0.0,0.0,0.0,0.0,0.0,0.0,0.0,0.0,0.0,0.0,0.0,0.0,0.0,0.0,0.0,0.0,0.0,0.0,0.0,0.0,0.0,0.0,0.0,0.0,0.0,0.0,0.0,0.0,0.0,0.0,0.0,0.0,0.0,0.0,0.0,0.0,0.0,0.0,0.0,0.0,0.0,0.0,0.0,0.0,0.0,0.0,0.0,0.0,0.0,0.0,0.0,0.0,0.0,0.0,0.0,0.0,0.0,0.0,0.0,0.0,0.0,0.0,0.0,0.0,0.0,0.0,0.0,0.0,-2.1198,-2.096,-2.1129,-2.1735,-1.9824,-1.8611,0.0,0.0,0.0,0.0,0.0,0.0,0.0,0.0,0.0,0.0,0.0,0.0,0.0,0.0,0.0,0.0,0.0,0.0,0.0,0.0,0.0,0.0,0.0,0.0,0.0,0.0,0.0,0.0,0.0,0.0,0.0,0.0,0.0,0.0,0.0,0.0,0.0,0.0,0.0,0.0,0.0,0.0,0.0,0.0,0.0,0.0,0.0,0.0,0.0,0.0,0.0,0.0,0.0,0.0,0.0,0.0,0.0,0.0,0.0,0.0,0.0,0.0,0.0,0.0,0.0,0.0,0.0,0.0,0.0,0.0,0.0,0.0,0.0,0.0,0.0,0.0,0.0,0.0,0.0,0.0,0.0,0.0,0.0,0.0,0.0,0.0,0.0,0.0,0.0,0.0,0.0,0.0,0.0,0.0,0.0,0.0,0.0,0.0,0.0,0.0,0.0,0.0,0.0,0.0,0.0,0.0,0.0,0.0,0.0,-2.2194,-2.1683,-2.1739,-2.2454,-2.0122,-1.8861,-1.8802,0.0,0.0,0.0,0.0,0.0,0.0,0.0,0.0,0.0,0.0,0.0,0.0,0.0,0.0,0.0,0.0,0.0,0.0,0.0,0.0,0.0,0.0,0.0,0.0,0.0,0.0,0.0,0.0,0.0,0.0,0.0,0.0,0.0,0.0,0.0,0.0,0.0,0.0,0.0,0.0,0.0,0.0,0.0,0.0,0.0,0.0,0.0,0.0,0.0,0.0,0.0,0.0,0.0,0.0,0.0,0.0,0.0,0.0,0.0,0.0,0.0,0.0,0.0,0.0,0.0,0.0,0.0,0.0,0.0,0.0,0.0,0.0,0.0,0.0,0.0,0.0,0.0,0.0,0.0,0.0,0.0,0.0,0.0,0.0,0.0,0.0,0.0,0.0,0.0,0.0,0.0,0.0,0.0,0.0,0.0,0.0,0.0,0.0,0.0,0.0,0.0,0.0,0.0,0.0,0.0,0.0,0.0,0.0,-2.3759,-2.351,-2.322,-2.2922,-2.1187,-1.9682,0.0,0.0,0.0,0.0,0.0,0.0,0.0,0.0,0.0,0.0,0.0,0.0,0.0,0.0,0.0,0.0,0.0,0.0,0.0,0.0,0.0,0.0,0.0,0.0,0.0,0.0,0.0,0.0,0.0,0.0,0.0,0.0,0.0,0.0,0.0,0.0,0.0,0.0,0.0,0.0,0.0,0.0,0.0,0.0,0.0,0.0,0.0,0.0,0.0,0.0,0.0,0.0,0.0,0.0,0.0,0.0,0.0,0.0,0.0,0.0,0.0,0.0,0.0,0.0,0.0,0.0,0.0,0.0,0.0,0.0,0.0,0.0,0.0,0.0,0.0,0.0,0.0,0.0,0.0,0.0,0.0,0.0,0.0,0.0,0.0,0.0,0.0,0.0,0.0,0.0,0.0,0.0,0.0,0.0,0.0,0.0,0.0,0.0,0.0,0.0,0.0,0.0,0.0,0.0,0.0,0.0,0.0,0.0,0.0,-2.3465,-2.3917,-2.3863,-2.3341,-2.1881,-2.0702,0.0,0.0,0.0,0.0,0.0,0.0,0.0,0.0,0.0,0.0,0.0,0.0,0.0,0.0,0.0,0.0,0.0,0.0,0.0,0.0,0.0,0.0,0.0,0.0,0.0,0.0,0.0,0.0,0.0,0.0,0.0,0.0,0.0,0.0,0.0,0.0,0.0,0.0,0.0,0.0,0.0,0.0,0.0,0.0,0.0,0.0,0.0,0.0,0.0,0.0,0.0,0.0,0.0,0.0,0.0,0.0,0.0,0.0,0.0,0.0,0.0,0.0,0.0,0.0,0.0,0.0,0.0,0.0,0.0,0.0,0.0,0.0,0.0,0.0,0.0,0.0,0.0,0.0,0.0,0.0,0.0,0.0,0.0,0.0,0.0,0.0,0.0,0.0,0.0,0.0,0.0,0.0,0.0,0.0,0.0,0.0,0.0,0.0,0.0,0.0,0.0,0.0,0.0,0.0,0.0,0.0,0.0,0.0,-2.24,-2.3385,-2.4229,-2.4271,-2.349,-2.2394,-2.126,0.0,0.0,0.0,0.0,0.0,0.0,0.0,0.0,0.0,0.0,0.0,0.0,0.0,0.0,0.0,0.0,0.0,0.0,0.0,0.0,0.0,0.0,0.0,0.0,0.0,0.0,0.0,0.0,0.0,0.0,0.0,0.0,0.0,0.0,0.0,0.0,0.0,0.0,0.0,0.0,0.0,0.0,0.0,0.0,0.0,0.0,0.0,0.0,0.0,0.0,0.0,0.0,0.0,0.0,0.0,0.0,0.0,0.0,0.0,0.0,0.0,0.0,0.0,0.0,0.0,0.0,0.0,0.0,0.0,0.0,0.0,0.0,0.0,0.0,0.0,0.0,0.0,0.0,0.0,0.0,0.0,0.0,0.0,0.0,0.0,0.0,0.0,0.0,0.0,0.0,0.0,0.0,0.0,0.0,0.0,0.0,0.0,0.0,0.0,0.0,0.0,0.0,0.0,0.0,0.0,0.0,0.0,0.0,-2.2981,-2.3342,-2.4382,-2.4445,-2.3458,-2.2671,-2.1447,0.0,0.0,0.0,0.0,0.0,0.0,0.0,0.0,0.0,0.0,0.0,0.0,0.0,0.0,0.0,0.0,0.0,0.0,0.0,0.0,0.0,0.0,0.0,0.0,0.0,0.0,0.0,0.0,0.0,0.0,0.0,0.0,0.0,0.0,0.0,0.0,0.0,0.0,0.0,0.0,0.0,0.0,0.0,0.0,0.0,0.0,0.0,0.0,0.0,0.0,0.0,0.0,0.0,0.0,0.0,0.0,0.0,0.0,0.0,0.0,0.0,0.0,0.0,0.0,0.0,0.0,0.0,0.0,0.0,0.0,0.0,0.0,0.0,0.0,0.0,0.0,0.0,0.0,0.0,0.0,0.0,0.0,0.0,0.0,0.0,0.0,0.0,0.0,0.0,0.0,0.0,0.0,0.0,0.0,0.0,0.0,0.0,0.0,0.0,0.0,0.0,0.0,0.0,0.0,0.0,0.0,0.0,0.0,-2.2602,-2.2941,-2.403,-2.4225,-2.3413,-2.2274,-2.1089,0.0,0.0,0.0,0.0,0.0,0.0,0.0,0.0,0.0,0.0,0.0,0.0,0.0,0.0,0.0,0.0,0.0,0.0,0.0,0.0,0.0,0.0,0.0,0.0,0.0,0.0,0.0,0.0,0.0,0.0,0.0,0.0,0.0,0.0,0.0,0.0,0.0,0.0,0.0,0.0,0.0,0.0,0.0,0.0,0.0,0.0,0.0,0.0,-1.7738,0.0,0.0,0.0,0.0,0.0,0.0,0.0,0.0,0.0,0.0,0.0,0.0,0.0,0.0,0.0,0.0,0.0,0.0,0.0,0.0,0.0,0.0,0.0,0.0,0.0,0.0,0.0,0.0,0.0,0.0,0.0,0.0,0.0,0.0,0.0,0.0,0.0,0.0,0.0,0.0,0.0,0.0,0.0,0.0,0.0,0.0,0.0,0.0,0.0,0.0,0.0,0.0,0.0,0.0,0.0,0.0,0.0,0.0,0.0,-2.2591,-2.3099,-2.3667,-2.3824,-2.3362,-2.1825,-2.0417,0.0,0.0,0.0,0.0,0.0,0.0,0.0,0.0,0.0,0.0,0.0,0.0,0.0,0.0,0.0,0.0,0.0,0.0,0.0,0.0,0.0,0.0,0.0,0.0,0.0,0.0,0.0,0.0,0.0,0.0,0.0,0.0,0.0,0.0,0.0,0.0,0.0,0.0,0.0,0.0,0.0,0.0,0.0,0.0,0.0,0.0,0.0,0.0,0.0,0.0,0.0,0.0,0.0,0.0,0.0,0.0,0.0,0.0,0.0,0.0,0.0,0.0,0.0,0.0,0.0,0.0,0.0,0.0,0.0,0.0,0.0,0.0,0.0,0.0,0.0,0.0,0.0,0.0,0.0,0.0,0.0,0.0,0.0,0.0,0.0,0.0,0.0,0.0,0.0,0.0,0.0,0.0,0.0,0.0,0.0,0.0,0.0,0.0,0.0,0.0,0.0,0.0,0.0,0.0,0.0,0.0,0.0,-2.1619,-2.2578,-2.328,-2.3363,-2.3363,-2.3304,-2.1413,-1.9795,-1.8556,0.0,0.0,0.0,0.0,0.0,0.0,0.0,0.0,0.0,0.0,0.0,0.0,0.0,0.0,0.0,0.0,0.0,0.0,0.0,0.0,0.0,0.0,0.0,0.0,0.0,0.0,0.0,0.0,0.0,0.0,0.0,0.0,0.0,0.0,0.0,0.0,0.0,0.0,-1.6949,-1.778,0.0,0.0,0.0,0.0,0.0,0.0,0.0,0.0,-1.9079,0.0,0.0,0.0,0.0,0.0,0.0,0.0,0.0,0.0,0.0,0.0,0.0,0.0,0.0,0.0,0.0,0.0,0.0,0.0,0.0,0.0,0.0,0.0,0.0,0.0,0.0,0.0,0.0,0.0,0.0,0.0,0.0,0.0,0.0,0.0,0.0,0.0,0.0,0.0,0.0,0.0,0.0,0.0,0.0,0.0,0.0,0.0,0.0,0.0,0.0,0.0,0.0,0.0,0.0,0.0,0.0,-2.1098,-2.1368,-2.1956,-2.293,-2.3236,-2.3246,-2.2934,-2.1311,-1.9712,-1.8228,0.0,0.0,0.0,0.0,0.0,0.0,0.0,0.0,0.0,0.0,0.0,0.0,0.0,0.0,0.0,0.0,0.0,0.0,0.0,0.0,0.0,0.0,0.0,0.0,0.0,0.0,0.0,0.0,0.0,0.0,0.0,0.0,0.0,0.0,0.0,0.0,0.0,0.0,0.0,-1.921,-2.0384,0.0,0.0,0.0,0.0,0.0,0.0,0.0,0.0,-1.9783,0.0,0.0,0.0,0.0,0.0,0.0,0.0,0.0,0.0,0.0,0.0,0.0,0.0,0.0,0.0,0.0,0.0,0.0,0.0,0.0,0.0,0.0,0.0,0.0,0.0,0.0,0.0,0.0,0.0,0.0,0.0,0.0,0.0,0.0,0.0,0.0,0.0,0.0,0.0,0.0,0.0,0.0,0.0,0.0,0.0,0.0,0.0,0.0,0.0,0.0,0.0,0.0,0.0,0.0,0.0,-2.0495,-2.1228,-2.2026,-2.2864,-2.3036,-2.2789,-2.2085,-2.0484,-1.8893,0.0,0.0,0.0,0.0,0.0,0.0,0.0,0.0,0.0,0.0,0.0,0.0,0.0,0.0,0.0,0.0,0.0,0.0,0.0,0.0,0.0,0.0,0.0,0.0,0.0,0.0,0.0,0.0,0.0,0.0,0.0,0.0,0.0,0.0,0.0,0.0,0.0,0.0,0.0,0.0,-1.9587,-2.059,-2.1237,0.0,0.0,0.0,0.0,0.0,0.0,-2.0826,-2.0731,0.0,0.0,0.0,0.0,0.0,0.0,0.0,0.0,0.0,0.0,0.0,0.0,0.0,0.0,0.0,0.0,0.0,0.0,0.0,0.0,0.0,0.0,0.0,0.0,0.0,0.0,0.0,0.0,0.0,0.0,0.0,0.0,0.0,0.0,0.0,0.0,0.0,0.0,0.0,0.0,0.0,0.0,0.0,0.0,0.0,0.0,0.0,0.0,0.0,0.0,0.0,0.0,0.0,0.0,0.0,-1.9531,-2.0824,-2.181,-2.2405,-2.2495,-2.2104,-2.1253,-1.9697,-1.8153,0.0,0.0,0.0,0.0,0.0,0.0,0.0,0.0,0.0,0.0,0.0,0.0,0.0,0.0,0.0,0.0,0.0,0.0,0.0,0.0,0.0,0.0,0.0,0.0,0.0,0.0,0.0,0.0,0.0,0.0,0.0,0.0,0.0,0.0,0.0,0.0,0.0,0.0,0.0,0.0,0.0,-2.1067,-2.19,-2.2004,0.0,0.0,0.0,0.0,-2.1474,-2.1774,0.0,0.0,0.0,0.0,0.0,0.0,0.0,0.0,0.0,0.0,0.0,0.0,0.0,0.0,0.0,0.0,0.0,0.0,0.0,0.0,0.0,0.0,0.0,0.0,0.0,0.0,0.0,0.0,0.0,0.0,0.0,0.0,0.0,0.0,0.0,0.0,0.0,0.0,0.0,0.0,0.0,0.0,0.0,0.0,0.0,0.0,0.0,0.0,0.0,0.0,0.0,0.0,0.0,0.0,0.0,0.0,-1.8501,-1.9592,-2.0339,-2.0757,-2.109,-2.1177,-2.1007,-1.9559,-1.8262,0.0,0.0,0.0,0.0,0.0,0.0,0.0,0.0,0.0,0.0,0.0,0.0,0.0,0.0,0.0,0.0,0.0,0.0,0.0,0.0,0.0,0.0,0.0,0.0,0.0,0.0,0.0,0.0,0.0,0.0,0.0,0.0,0.0,0.0,0.0,0.0,0.0,0.0,0.0,0.0,0.0,-2.3132,-2.2817,-2.2514,-2.2658,0.0,0.0,0.0,-2.337,-2.3117,0.0,0.0,0.0,0.0,0.0,0.0,0.0,0.0,0.0,0.0,0.0,0.0,0.0,0.0,0.0,0.0,0.0,0.0,0.0,0.0,0.0,0.0,0.0,0.0,0.0,0.0,0.0,0.0,0.0,0.0,0.0,0.0,0.0,0.0,0.0,0.0,0.0,0.0,0.0,0.0,0.0,0.0,0.0,0.0,0.0,0.0,0.0,0.0,0.0,0.0,0.0,0.0,0.0,0.0,0.0,-1.8232,-1.8191,-1.9691,-2.0474,-2.0495,-2.083,-2.0691,-2.0085,-1.8934,-1.7691,0.0,0.0,0.0,0.0,0.0,0.0,0.0,0.0,0.0,0.0,0.0,0.0,0.0,0.0,0.0,0.0,0.0,0.0,0.0,0.0,0.0,0.0,0.0,0.0,0.0,0.0,0.0,0.0,0.0,0.0,0.0,0.0,0.0,0.0,0.0,0.0,0.0,0.0,0.0,0.0,0.0,0.0,-2.2825,-2.2918,0.0,0.0,0.0,-2.2752,-2.2763,0.0,0.0,0.0,0.0,0.0,0.0,0.0,0.0,0.0,0.0,0.0,0.0,0.0,0.0,0.0,0.0,0.0,0.0,0.0,0.0,0.0,0.0,0.0,0.0,0.0,0.0,0.0,0.0,0.0,0.0,0.0,0.0,0.0,0.0,0.0,0.0,0.0,0.0,0.0,0.0,0.0,0.0,0.0,0.0,0.0,0.0,0.0,0.0,0.0,0.0,0.0,0.0,0.0,0.0,0.0,0.0,0.0,-1.8002,-1.9657,-2.043,-2.0144,-2.0381,-2.0131,-1.9339,-1.8542,0.0,0.0,0.0,0.0,0.0,0.0,0.0,0.0,0.0,0.0,0.0,0.0,0.0,0.0,0.0,0.0,0.0,0.0,0.0,0.0,0.0,0.0,0.0,0.0,0.0,0.0,0.0,-1.2062,0.0,0.0,0.0,0.0,0.0,0.0,0.0,0.0,0.0,0.0,0.0,0.0,0.0,0.0,-2.1858,-2.2783,-2.3056,-2.3172,0.0,0.0,-2.2823,-2.2267,-2.248,-2.2297,0.0,0.0,0.0,0.0,0.0,0.0,0.0,0.0,0.0,0.0,0.0,0.0,0.0,0.0,0.0,0.0,0.0,0.0,0.0,0.0,0.0,0.0,0.0,0.0,0.0,0.0,0.0,0.0,0.0,0.0,0.0,0.0,0.0,0.0,0.0,0.0,0.0,0.0,0.0,0.0,0.0,0.0,0.0,0.0,0.0,0.0,0.0,0.0,0.0,0.0,0.0,0.0,0.0,0.0,0.0,-1.7921,-1.9011,-1.9494,-1.9197,-1.9203,-1.9217,-1.9136,-1.8683,-1.7734,0.0,0.0,0.0,0.0,0.0,0.0,0.0,0.0,0.0,0.0,0.0,0.0,0.0,0.0,0.0,0.0,0.0,0.0,0.0,0.0,0.0,0.0,0.0,0.0,0.0,0.0,0.0,0.0,0.0,0.0,0.0,0.0,0.0,0.0,0.0,0.0,0.0,0.0,0.0,0.0,0.0,-2.2733,-2.2879,-2.2664,-2.282,0.0,0.0,-2.2276,-2.2838,-2.2428,-2.1728,-2.0767,0.0,0.0,0.0,0.0,0.0,0.0,0.0,0.0,0.0,0.0,0.0,0.0,0.0,0.0,0.0,0.0,0.0,0.0,0.0,0.0,0.0,0.0,0.0,0.0,0.0,0.0,0.0,0.0,0.0,0.0,0.0,0.0,0.0,0.0,0.0,0.0,0.0,0.0,0.0,0.0,0.0,0.0,0.0,0.0,0.0,0.0,0.0,0.0,0.0,0.0,0.0,0.0,0.0,-1.7791,-1.7467,-1.8806,-1.9384,-1.9101,-1.9116,-1.9116,-1.9116,-1.8422,-1.7466,0.0,0.0,0.0,0.0,0.0,0.0,0.0,0.0,0.0,0.0,0.0,0.0,0.0,0.0,0.0,0.0,0.0,0.0,0.0,0.0,0.0,0.0,0.0,0.0,0.0,0.0,0.0,0.0,-1.5065,-1.6024,-1.643,0.0,0.0,0.0,0.0,0.0,0.0,0.0,0.0,0.0,0.0,-2.2435,-2.2833,-2.2964,0.0,0.0,-2.3063,-2.276,-2.2416,-2.1824,-2.1133,-2.0411,-2.0141,0.0,0.0,0.0,0.0,0.0,0.0,0.0,0.0,0.0,0.0,0.0,0.0,0.0,0.0,0.0,0.0,0.0,0.0,0.0,0.0,0.0,0.0,0.0,0.0,0.0,0.0,0.0,0.0,0.0,0.0,0.0,0.0,0.0,0.0,0.0,0.0,0.0,0.0,0.0,0.0,0.0,0.0,0.0,0.0,0.0,0.0,0.0,0.0,0.0,0.0,0.0,0.0,-1.7664,-1.7286,-1.8649,-1.931,-1.9101,-1.9116,-1.9116,-1.9078,-1.85,-1.7702,0.0,0.0,0.0,0.0,0.0,0.0,0.0,0.0,0.0,0.0,0.0,0.0,0.0,0.0,0.0,0.0,0.0,0.0,0.0,0.0,0.0,0.0,0.0,0.0,0.0,0.0,0.0,0.0,-1.5676,-1.6401,-1.6851,0.0,0.0,0.0,0.0,0.0,0.0,0.0,0.0,0.0,0.0,-2.2439,-2.2844,-2.3098,-2.3172,-2.2933,-2.2937,-2.276,-2.2091,-2.1438,-2.0857,-2.0436,0.0,0.0,0.0,0.0,0.0,0.0,0.0,0.0,0.0,0.0,0.0,0.0,0.0,0.0,0.0,0.0,0.0,0.0,0.0,0.0,0.0,0.0,0.0,0.0,0.0,0.0,0.0,0.0,0.0,0.0,0.0,0.0,0.0,0.0,0.0,0.0,0.0,0.0,0.0,0.0,0.0,0.0,0.0,0.0,0.0,0.0,0.0,0.0,0.0,0.0,0.0,0.0,0.0,0.0,-1.7486,-1.8556,-1.9116,-1.9116,-1.9116,-1.9116,-1.9116,-1.9064,-1.8582,-1.7551,0.0,0.0,0.0,0.0,0.0,0.0,0.0,0.0,0.0,0.0,0.0,0.0,0.0,0.0,0.0,0.0,0.0,0.0,0.0,0.0,0.0,0.0,0.0,0.0,0.0,0.0,-1.6068,-1.6184,-1.6213,0.0,0.0,0.0,0.0,0.0,0.0,0.0,0.0,0.0,0.0,-2.2512,-2.2873,-2.2888,-2.2902,-2.2888,-2.2888,-2.2439,-2.2019,-2.2004,-2.1438,-2.0988,0.0,0.0,0.0,0.0,0.0,0.0,0.0,0.0,0.0,0.0,0.0,0.0,0.0,0.0,0.0,0.0,0.0,0.0,0.0,0.0,0.0,0.0,0.0,0.0,0.0,0.0,0.0,-2.0177,-1.9688,0.0,0.0,0.0,0.0,0.0,0.0,0.0,0.0,0.0,0.0,0.0,-2.1945,-2.2453,0.0,0.0,0.0,0.0,0.0,0.0,0.0,0.0,0.0,0.0,0.0,0.0,-1.7297,-1.7378,-1.8499,-1.9116,-1.9116,-1.9116,-1.9116,-1.9116,-1.886,-1.8204,-1.7249,0.0,0.0,0.0,0.0,0.0,0.0,0.0,0.0,0.0,0.0,0.0,0.0,0.0,0.0,0.0,0.0,0.0,0.0,0.0,0.0,0.0,0.0,0.0,0.0,0.0,-1.5545,0.0,0.0,0.0,0.0,0.0,0.0,0.0,0.0,0.0,0.0,0.0,-2.167,-2.2512,-2.3165,-2.3426,-2.2946,-2.2888,-2.2888,0.0,0.0,0.0,0.0,0.0,0.0,0.0,0.0,0.0,0.0,0.0,0.0,0.0,0.0,-2.0048,-1.8358,-1.7905,-1.7862,-1.8133,0.0,0.0,0.0,0.0,0.0,0.0,0.0,0.0,0.0,0.0,0.0,0.0,0.0,0.0,0.0,0.0,-2.0928,0.0,0.0,0.0,0.0,0.0,0.0,0.0,0.0,-2.3419,-2.3764,-2.3539,-2.3977,-2.3729,0.0,-2.1894,-2.0844,0.0,0.0,0.0,0.0,0.0,0.0,0.0,0.0,-1.7978,-1.7749,-1.8709,-1.9199,-1.9101,-1.9116,-1.9116,-1.9116,-1.886,-1.8295,-1.7441,-1.6936,-1.6401,0.0,0.0,0.0,0.0,0.0,0.0,0.0,0.0,0.0,0.0,0.0,0.0,0.0,0.0,0.0,0.0,0.0,0.0,0.0,0.0,0.0,0.0,0.0,-1.6039,0.0,0.0,0.0,0.0,0.0,0.0,0.0,0.0,0.0,-2.1569,-2.2236,-2.2889,-2.3467,-2.3963,-2.4007,-2.3354,0.0,0.0,0.0,0.0,0.0,0.0,0.0,-2.2696,-2.2263,-2.2476,-2.2626,-2.2473,-2.2434,-2.2373,-2.2166,0.0,0.0,-1.9429,-1.8954,-1.8872,-1.9076,-1.9266,-1.951,-1.9904,-1.9953,-1.9962,0.0,0.0,0.0,0.0,0.0,0.0,0.0,0.0,-2.1798,-2.2194,0.0,-2.2056,0.0,0.0,0.0,0.0,0.0,0.0,0.0,0.0,-2.5367,-2.573,-2.5092,-2.5045,-2.5011,-2.4913,-2.3614,-2.2557,-2.1823,-1.9863,0.0,0.0,0.0,0.0,0.0,0.0,-1.9043,-1.8619,-1.9173,-1.9347,-1.9139,-1.9101,-1.9116,-1.9116,-1.9101,-1.8803,-1.8238,-1.787,-1.7376,-1.6747,-1.5313,0.0,0.0,0.0,0.0,0.0,0.0,0.0,0.0,0.0,0.0,0.0,0.0,0.0,0.0,0.0,0.0,0.0,0.0,0.0,0.0,-1.7214,0.0,0.0,0.0,0.0,0.0,0.0,0.0,0.0,0.0,0.0,-2.2944,-2.3525,-2.4167,-2.4728,0.0,0.0,0.0,0.0,-2.3178,-2.3786,-2.392,-2.409,-2.467,-2.4511,-2.4333,-2.4333,0.0,0.0,-2.3988,-2.3733,-2.3372,-2.2793,-2.2456,-2.2129,-2.1505,-2.088,-2.0644,-2.1192,-2.082,-2.0535,-2.0522,-2.0489,-2.0227,-2.5574,0.0,0.0,0.0,0.0,-2.3936,-2.4333,-2.4816,-2.4833,-2.4643,-2.4333,-2.4126,0.0,0.0,0.0,0.0,0.0,0.0,-2.4391,-2.5454,-2.5902,-2.6299,-2.6626,-2.6341,-2.5907,-2.5331,-2.4464,-2.3683,-2.2964,-2.2109,-2.0684,-1.871,0.0,0.0,0.0,0.0,-1.8823,-1.8902,-1.9095,-1.9273,-1.9384,-1.9213,-1.9116,-1.9116,-1.9116,-1.9029,-1.8854,-1.8714,-1.8374,-1.7784,-1.7086,0.0,0.0,0.0,0.0,0.0,0.0,0.0,0.0,0.0,0.0,0.0,0.0,0.0,0.0,0.0,0.0,0.0,0.0,0.0,-1.7127,-1.7214,-1.7421,0.0,0.0,0.0,0.0,0.0,0.0,0.0,0.0,0.0,-2.4226,-2.4876,-2.5299,0.0,0.0,-2.4998,-2.4339,-2.3928,-2.3738,-2.3971,0.0,0.0,0.0,-2.4154,-2.4103,-2.4103,-2.39,-2.3709,-2.3709,-2.3502,-2.3278,-2.3087,-2.2654,-2.2237,-2.2074,-2.1572,-2.1247,-2.1369,-2.1274,-2.1179,-2.1131,-2.1069,-2.0898,-2.8316,-2.6747,-2.6161,-2.5919,-2.5954,-2.6212,-2.6592,-2.6988,-2.6713,-2.6488,-2.6299,-2.5712,-2.4936,-2.404,-2.3746,0.0,0.0,0.0,-2.5385,-2.6575,-2.6575,-2.6754,-2.7038,-2.6808,-2.6371,-2.5698,-2.4882,-2.4272,-2.3816,-2.3187,-2.2043,-2.0415,0.0,0.0,-1.9781,-1.9562,-1.9489,-1.9553,-1.9465,-1.9472,-1.9479,-1.9236,-1.9116,-1.9116,-1.9116,-1.9116,-1.9116,-1.9116,-1.8927,-1.8579,-1.8108,-1.7212,0.0,0.0,0.0,0.0,0.0,0.0,0.0,0.0,0.0,0.0,0.0,-1.5051,0.0,0.0,0.0,0.0,-1.6718,-1.7635,-1.8288,-1.8564,0.0,0.0,0.0,0.0,0.0,0.0,0.0,-2.3769,-2.4276,-2.4696,-2.492,-2.5426,-2.5859,-2.5845,-2.5488,-2.5071,-2.4651,0.0,-2.4086,-2.4311,-2.4367,-2.4437,-2.4689,-2.4654,-2.4535,-2.4415,-2.4255,-2.4148,-2.4148,-2.4041,-2.3852,-2.3607,-2.3268,-2.2956,-2.2661,-2.2373,-2.1966,-2.1518,-2.141,-2.141,-2.141,-2.1277,-2.1095,-3.0351,-2.9575,-2.823,-2.7592,-2.754,-2.8196,-2.8489,-2.8437,-2.7764,-2.7868,-2.8368,-2.6988,-2.6385,-2.6333,-2.5661,0.0,0.0,-2.6316,-2.6678,-2.7368,-2.7284,-2.7072,-2.6691,-2.6657,-2.6401,-2.6052,-2.5017,-2.4527,-2.4475,-2.3538,-2.3074,-2.3059,-2.2374,-2.2027,-2.1948,-2.1282,-2.0819,-2.0581,-2.0264,-1.9933,-1.9582,-1.9228,-1.9116,-1.9116,-1.9101,-1.9116,-1.9116,-1.9116,-1.9101,-1.9087,-1.8579,-1.7969,-1.7301,0.0,0.0,0.0,0.0,0.0,0.0,0.0,0.0,0.0,0.0,0.0,0.0,0.0,0.0,0.0,-1.8448,0.0,-2.0175,-2.0756,0.0,0.0,0.0,-2.2512,-2.3146,-2.4278,-2.4889,-2.459,0.0,0.0,0.0,0.0,-2.5839,-2.5839,-2.5334,-2.4955,-2.4955,-2.4483,-2.4287,-2.478,-2.4903,-2.5112,-2.5506,-2.5481,-2.5259,-2.5009,-2.5005,-2.4951,-2.4937,-2.4937,-2.4747,-2.4286,-2.415,-2.3947,-2.3337,-2.3175,-2.285,-2.1803,-2.1545,-2.1505,-2.1532,-2.1301,-2.1193,-3.1438,-3.1231,-3.0869,-3.0058,-2.9006,-2.9161,-2.923,-2.923,-2.9041,-2.9075,-2.9213,-2.8868,-2.8696,-2.8678,-2.8506,-2.8523,-2.8678,-2.8109,-2.7954,-2.8092,-2.7246,-2.6808,-2.6657,-2.6052,-2.5726,-2.5615,-2.5109,-2.4869,-2.4853,-2.4617,-2.4515,-2.4483,-2.3781,-2.318,-2.2659,-2.2269,-2.2045,-2.192,-2.1402,-2.0754,-1.9972,-1.94,-1.9116,-1.9116,-1.9176,-1.9228,-1.9101,-1.925,-1.9265,-1.9101,-1.9045,-1.8717,-1.7998,-1.72,0.0,0.0,0.0,0.0,0.0,0.0,0.0,0.0,0.0,-1.7243,-1.6097,0.0,-1.7795,0.0,-1.9116,-2.032,-2.1438,-2.167,0.0,0.0,-2.4038,-2.4624,-2.5742,-2.5916,-2.5934,-2.5869,-2.573,-2.5522,-2.5025,-2.5134,-2.523,-2.523,-2.5287,-2.5384,-2.537,-2.5012,-2.4791,-2.4956,-2.4984,-2.5052,-2.5189,-2.5174,-2.5131,-2.5005,-2.5005,-2.5005,-2.5005,-2.5005,-2.4964,-2.4788,-2.4408,-2.4096,-2.3933,-2.3567,-2.3134,-2.2782,-2.2427,-2.2101,-2.2088,-2.1851,-2.1832,-3.23,-3.2283,-3.2283,-3.1593,-3.0524,-3.0524,-3.0524,-3.0506,-3.0179,-3.0024,-3.0006,-2.9661,-2.9506,-2.9506,-2.9506,-2.9506,-2.9455,-2.873,-2.842,-2.8351,-2.7415,-2.6775,-2.6436,-2.5997,-2.5577,-2.5269,-2.5068,-2.5005,-2.5005,-2.5005,-2.5005,-2.5005,-2.4586,-2.4191,-2.3812,-2.3048,-2.2602,-2.2377,-2.1963,-2.1391,-2.0734,-1.9948,-1.9537,-1.9599,-1.9322,-1.9213,-1.9191,-1.9213,-1.9213,-1.9101,-1.9191,-1.8899,-1.8245,-1.7867,-1.7214,0.0,0.0,0.0,0.0,0.0,0.0,0.0,0.0,0.0,0.0,0.0,-1.929,0.0,-2.1046,0.0,-2.3165,-2.3514,-2.4293,-2.5733,-2.6023,-2.6467,-2.7315,-2.7243,-2.7046,-2.671,-2.6417,-2.6153,-2.5877,-2.5819,-2.5805,-2.5819,-2.5935,-2.5873,-2.5367,-2.5131,-2.5005,-2.5005,-2.5005,-2.5005,-2.5005,-2.5005,-2.5005,-2.5005,-2.5005,-2.5005,-2.5005,-2.5005,-2.5005,-2.4978,-2.4734,-2.4517,-2.4503,-2.4272,-2.3906,-2.3595,-2.3363,-2.3038,-2.2766,-2.2481,-2.2445,-3.3059,-3.3041,-3.2955,-3.2524,-3.1938,-3.1834,-3.18,-3.1748,-3.111,-3.0834,-3.0782,-3.011,-2.9799,-2.9799,-2.9799,-2.9799,-2.9765,-2.9041,-2.8696,-2.8644,-2.7784,-2.6995,-2.622,-2.6101,-2.5684,-2.5005,-2.5005,-2.5005,-2.5005,-2.5005,-2.5005,-2.5005,-2.5005,-2.4982,-2.4879,-2.3765,-2.3001,-2.2678,-2.2278,-2.1919,-2.1634,-2.0651,-2.0127,-2.0162,-1.9473,-1.9176,-1.925,-1.9191,-1.9139,-1.9101,-1.9101,-1.8869,-1.8346,-1.8245,-1.7693,0.0,-1.6459,0.0,0.0,0.0,0.0,0.0,0.0,0.0,0.0,-2.0451,-2.1046,-2.2149,-2.3383,-2.437,-2.4858,-2.5604,-2.6489,-2.7523,-2.7828,-2.7979,-2.8254,-2.821,-2.7977,-2.7313,-2.7184,-2.7023,-2.6769,-2.6823,-2.6809,-2.6742,-2.6728,-2.6389,-2.5507,-2.5222,-2.5168,-2.5113,-2.5046,-2.5005,-2.5005,-2.5005,-2.5005,-2.5005,-2.5005,-2.5005,-2.5005,-2.5005,-2.5005,-2.5005,-2.4978,-2.4978,-2.5005,-2.4991,-2.4801,-2.4327,-2.4204,-2.4001,-2.3459,-2.3085,-2.2964,-3.3869,-3.3818,-3.3179,-3.2835,-3.2645,-3.2059,-3.18,-3.1783,-3.1645,-3.1593,-3.1576,-3.1438,-3.1351,-3.1369,-3.1369,-3.1351,-3.1317,-3.0593,-3.0265,-3.0213,-2.851,-2.7449,-2.6969,-2.6061,-2.5406,-2.5005,-2.5005,-2.5005,-2.5005,-2.5005,-2.5005,-2.5005,-2.5005,-2.4886,0.0,0.0,0.0,0.0,-2.299,-2.239,-2.2263,-2.0845,-2.0103,-2.0113,-1.9564,0.0,-1.9153,-1.925,-1.925,-1.9101,-1.9191,0.0,0.0,0.0,0.0,0.0,0.0,0.0,0.0,0.0,0.0,0.0,-2.1641,-2.1148,-2.0901,-2.2251,-2.3281,-2.3543,-2.4675,-2.5473,-2.5604,-2.6663,-2.7447,-2.7723,-2.8354,-2.8753,-2.8584,-2.8312,-2.8022,-2.7653,-2.7183,-2.6884,-2.6864,-2.6823,-2.685,-2.6891,-2.6823,-2.6742,-2.6524,-2.605,-2.5738,-2.5697,-2.5331,-2.5032,-2.5005,-2.5005,-2.5005,-2.5005,-2.5005,-2.5005,-2.5005,-2.5005,-2.5005,-2.5005,-2.5005,-2.5005,-2.5005,-2.5005,-2.4964,-2.4856,-2.4829,-2.4652,-2.4028,-2.3743,-2.3657,-3.4588,0.0,-3.4157,-3.3571,0.0,-3.2469,-3.2145,-3.18,-3.18,-3.18,-3.18,-3.18,-3.18,-3.18,-3.18,-3.1746,-3.1674,-3.0988,-3.0643,-3.0503,-2.8982,-2.7861,-2.7184,-2.6336,-2.5589,-2.5021,-2.5005,-2.5005,-2.5005,-2.5005,-2.5005,-2.5005,-2.5005,-2.4926,-2.4782,-2.4926,-2.4926,-2.4742,-2.3773,-2.3215,-2.3185,-2.1818,-2.0927,-2.0662,0.0,0.0,0.0,0.0,0.0,0.0,0.0,0.0,0.0,0.0,0.0,-1.9566,-1.958,-1.9725,-2.0045,-2.0669,-2.1452,-2.2396,-2.3064,-2.3281,-2.2918,-2.408,-2.4965,-2.5299,-2.5923,-2.6402,-2.6721,-2.7292,-2.7984,-2.8537,-2.9074,-2.9314,-2.913,-2.894,-2.8692,-2.8252,-2.7895,-2.7691,-2.7705,-2.7691,-2.7705,-2.7705,-2.7691,-2.7678,-2.761,-2.6918,-2.6267,-2.5955,-2.567,-2.5331,-2.5073,-2.5005,-2.5005,-2.5005,-2.5005,-2.5005,-2.5005,-2.5005,-2.5005,-2.5005,-2.5005,-2.5005,-2.5005,-2.5005,-2.5005,-2.5005,-2.5005,-2.4937,-2.4611,-2.4334,-2.419,-3.5304,-3.5204,-3.5167,-3.4324,-3.2973,-3.2896,-3.2452,-3.18,0.0,0.0,0.0,-3.1783,-3.1763,-3.1746,-3.1763,-3.1671,-3.1545,-3.1053,-3.0724,-3.0509,-2.9411,-2.8302,-2.725,-2.6659,-2.5902,-2.5021,-2.5005,-2.5005,-2.5005,-2.5005,-2.5005,-2.5005,-2.5005,-2.5005,-2.5005,-2.5005,-2.4982,-2.4886,-2.4359,-2.4124,-2.4051,-2.2827,-2.1982,-2.151,-2.0757,-2.0157,-1.9692,-1.9526,-1.9435,-1.9435,-1.9435,-1.9682,-2.0219,-2.0262,-2.048,-2.0959,-2.1104,-2.1177,-2.1177,-2.1786,-2.2265,-2.2468,-2.4181,-2.5168,-2.5023,-2.5589,-2.6184,-2.675,-2.6881,-2.7171,-2.7639,-2.79,-2.8365,-2.9406,-2.955,-2.9525,-2.9518,-2.9477,-2.9135,-2.8716,-2.8546,-2.8587,-2.8546,-2.8532,-2.8587,-2.8573,-2.8492,-2.8587,-2.8465,-2.7637,-2.6701,-2.605,-2.5833,-2.5656,-2.5181,-2.5005,-2.5005,-2.5005,-2.5005,-2.5005,-2.5005,-2.5005,-2.5005,-2.5005,-2.5005,-2.5005,-2.5005,-2.5005,-2.5005,-2.5005,-2.5005,-2.4964,-2.4813,-2.463,-2.446,-3.6053,-3.5959,-3.524,-3.4411,-3.3556,-3.3019,-3.2431,-3.1817,-3.18,-3.18,-3.18,-3.1671,-3.1617,-3.1617,-3.1559,-3.1538,-3.15,-3.1414,-3.1159,0.0,-2.9939,-2.8797,-2.7446,-2.6744,-2.5918,-2.5037,-2.5005,-2.5005,-2.5005,-2.5005,-2.5005,-2.5005,-2.5005,-2.5005,-2.5005,-2.5005,-2.4846,-2.458,-2.4457,-2.4416,-2.44,-2.3381,-2.2823,-2.2702,-2.1804,-2.1272,-2.1208,-2.086,-2.0727,-2.0727,-2.0727,-2.0785,-2.0857,-2.0872,-2.0901,-2.1017,-2.154,-2.1859,-2.1859,-2.2454,-2.3235,-2.4336,-2.572,-2.6271,-2.5734,-2.6257,-2.6692,-2.6808,-2.7258,-2.7567,-2.7726,-2.8383,-2.8941,-2.9154,-2.92,-2.9205,-2.9226,-2.8972,-2.8716,-2.8587,-2.8587,-2.8587,-2.8587,-2.8587,-2.8573,-2.8573,-2.8492,-2.856,-2.8438,-2.8017,-2.7135,-2.6199,-2.5887,-2.5629,-2.529,-2.5032,-2.51,-2.5005,-2.5046,-2.5059,-2.5005,-2.5005,-2.5005,-2.5005,-2.4964,-2.4951,-2.4964,-2.5005,-2.491,-2.4869,-2.4856,-2.4761,-2.4285,-2.397,-2.395,-3.6233,-3.6122,-3.54,-3.4545,-3.3618,-3.2547,-3.1918,-3.1631,-3.1631,-3.1651,-3.1709,-3.1617,-3.1596,-3.1521,-3.15,-3.1462,-3.1406,-3.1462,-3.1196,-3.0673,-3.017,-2.9083,-2.7533,-2.6924,-2.6075,-2.5053,-2.5005,-2.5005,-2.5005,-2.5005,-2.5005,-2.5005,-2.5005,-2.5005,-2.5005,-2.5005,-2.4862,-2.4498,-2.4333,-2.4151,-2.3894,-2.3283,-2.2784,-2.2485,-2.2174,-2.175,-2.1234,-2.1274,-2.1193,-2.0988,-2.0988,-2.1162,-2.1511,-2.154,-2.1685,-2.2033,-2.2323,-2.2497,-2.2497,-2.3107,-2.4007,-2.5241,-2.5894,-2.6286,-2.6344,-2.6605,-2.6779,-2.6808,-2.736,-2.7882,-2.8216,-2.8771,-2.9209,-2.9654,-2.951,-2.9289,-2.9099,-2.8972,-2.878,-2.8651,-2.8587,-2.8587,-2.8587,-2.8587,-2.8438,-2.8207,-2.8112,-2.8112,-2.8139,-2.8166,-2.7881,-2.7081,-2.6864,-2.6619,-2.609,-2.5995,-2.586,-2.5561,-2.548,-2.5344,-2.5113,-2.5005,-2.5005,-2.4978,-2.4761,-2.4557,-2.4517,-2.4245,-2.4041,-2.4001,-2.3974,-2.3771,-2.3514,-2.3299,-2.3201,-3.6233,-3.6139,-3.5383,-3.4459,-3.3339,-3.2025,-3.1602,-3.1739,-3.1773,-3.1756,-3.1798,-3.1627,-3.1521,-3.1462,-3.1423,-3.1368,-3.1274,-3.1291,-3.0982,-3.046,-3.0081,-2.9113,-2.7688,-2.7273,-2.6572,-2.5535,-2.5282,-2.5322,-2.5448,-2.5179,-2.5005,-2.5005,-2.5005,-2.5005,-2.5005,-2.5005,-2.4846,-2.4498,-2.425,-2.3909,-2.3551,-2.3275,-2.2922,-2.2511,-2.2623,-2.2357,-2.1718,-2.1757,-2.1715,-2.1535,-2.1465,-2.167,-2.2164,-2.2207,-2.2425,-2.283,-2.2888,-2.296,-2.3149,-2.3876,-2.4733,-2.5705,-2.5923,-2.6242,-2.6707,-2.6794,-2.6852,-2.7026,-2.7592,-2.8216,-2.8784,-2.9115,-2.9434,-2.9931,-2.9602,-2.9226,-2.9035,-2.8972,-2.8908,-2.8651,-2.8587,-2.8587,-2.8573,-2.8478,-2.8139,-2.7637,-2.7501,-2.7542,-2.7718,-2.8125,-2.818,-2.803,-2.7813,-2.7406,-2.6945,-2.6782,-2.6497,-2.5995,-2.5873,-2.5588,-2.5181,-2.4924,-2.4801,-2.4706,-2.4286,-2.392,-2.3825,-2.3554,-2.3297,-2.331,-2.331,-2.307,-2.2776,-2.2431,-2.2273,-3.6208,-3.6062,-3.5156,-3.3921,-3.2593,-3.182,-3.1837,-3.2439,-3.2491,-3.2446,-3.2372,-3.1674,-3.1351,-3.1295,-3.1252,-3.123,-3.1151,-3.0781,-3.0393,-3.0011,-2.9605,-2.8846,-2.791,-2.7805,-2.7488,-2.6846,-2.6214,-2.6214,-2.6704,-2.5614,-2.5037,-2.5005,-2.5005,-2.5053,-2.5037,-2.5037,-2.4862,-2.4498,-2.4457,-2.4276,-2.3982,-2.3882,-2.3882,-2.3806,-2.3462,-2.3447,-2.3541,-2.3098,-2.2907,-2.3112,-2.2878,-2.2714,-2.2772,-2.2786,-2.283,-2.2888,-2.2902,-2.3134,-2.3818,-2.4921,-2.5633,-2.5807,-2.6344,-2.6678,-2.6779,-2.6794,-2.7041,-2.7509,-2.8187,-2.8797,-2.9435,-2.9537,-2.9538,-2.9637,-2.9099,-2.8651,-2.8651,-2.8651,-2.8651,-2.8587,-2.8587,-2.8587,-2.8546,-2.8139,-2.7556,-2.6986,-2.6891,-2.704,-2.742,-2.7664,-2.799,-2.8207,-2.8058,-2.7528,-2.7054,-2.6837,-2.6592,-2.6077,-2.5873,-2.5534,-2.4991,-2.4462,-2.415,-2.415,-2.3716,-2.3297,-2.3256,-2.3189,-2.3107,-2.2931,-2.2879,-2.2854,-2.2163,-2.157,-2.1312,-3.5975,-3.5462,-3.4607,-3.3287,-3.1839,-3.1465,-3.1732,-3.2343,-3.1936,-3.2241,-3.2897,-3.2235,-3.1659,-3.1269,-3.123,-3.1055,-3.0781,-3.0617,-3.0123,-2.9528,-2.9335,-2.8712,-2.7735,-2.7734,-2.7509,-2.7001,-2.6596,-2.6671,-2.6914,-2.6483,-2.623,-2.6246,-2.6214,-2.6246,-2.6198,-2.5803,-2.546,-2.5098,-2.4699,-2.4333,-2.4024,-2.3739,-2.3523,-2.3363,-2.3377,-2.345,-2.3638,-2.3581,-2.364,-2.3711,-2.3392,-2.3201,-2.3216,-2.3008,-2.2888,-2.2917,-2.325,-2.3949,-2.4936,-2.5502,-2.5952,-2.6344,-2.662,-2.6794,-2.6794,-2.6794,-2.6987,-2.7446,-2.8177,-2.8927,-2.9508,-2.9604,-2.9602,-2.954,-2.8972,-2.8587,-2.8587,-2.8587,-2.8587,-2.8587,-2.8587,-2.8587,-2.8451,-2.7759,-2.6986,-2.643,-2.6267,-2.6416,-2.6633,-2.6932,-2.7434,-2.7895,-2.7854,-2.7827,-2.7746,-2.7542,-2.6959,-2.6145,-2.5588,-2.5113,-2.4204,-2.3771,-2.3554,-2.3594,-2.3078,-2.2726,-2.2685,-2.2245,-2.2005,-2.2059,-2.1894,-2.1699,-2.1244,-2.097,-2.0919,-3.5924,-3.5256,-3.4271,-3.2849,-3.1291,-3.1252,-3.1772,-3.2476,-3.2019,-3.2408,-3.3322,-3.3034,-3.2239,-3.1309,-3.1257,-3.0998,-3.0535,-3.0208,-2.9777,-2.9182,-2.9106,-2.8669,-2.7922,-2.7968,-2.7811,-2.7418,-2.7154,-2.6995,-2.7076,-2.7277,-2.7245,-2.7146,-2.7115,-2.7115,-2.7067,-2.6546,-2.6073,-2.5654,-2.5119,-2.4684,-2.4181,-2.3867,-2.3465,-2.3142,-2.3392,-2.3551,-2.3551,-2.3839,-2.404,-2.4109,-2.3782,-2.3508,-2.3406,-2.3172,-2.3096,-2.3252,-2.3963,-2.4805,-2.5734,-2.5952,-2.6271,-2.6707,-2.6794,-2.6794,-2.6794,-2.6794,-2.7103,-2.7705,-2.8237,-2.8756,-2.926,-2.9407,-2.9463,-2.9415,-2.8908,-2.8587,-2.8587,-2.8587,-2.8587,-2.8587,-2.8587,-2.8438,-2.8071,-2.7352,-2.6592,-2.5833,-2.5656,-2.5751,-2.5887,-2.6321,-2.6782,-2.729,-2.752,-2.7949,-2.8397,-2.7827,-2.704,-2.6145,-2.5344,-2.4422,-2.3365,-2.3148,-2.2983,-2.2916,-2.24,-2.2065,-2.1974,-2.1484,-2.1233,-2.1109,-2.105,-2.0954,-2.0917,-2.0762,-2.0699,-3.6105,-3.5728,-3.4301,-3.2713,-3.1207,-3.1274,-3.2049,-3.3186,-3.322,-3.3322,-3.3541,-3.4015,-3.3169,-3.132,-3.1491,-3.1165,-3.0443,-2.9601,-2.9227,-2.9152,-2.8842,-2.8668,-2.8748,-2.8748,-2.8701,-2.8467,-2.7906,-2.7451,-2.7083,-2.757,-2.7598,-2.7194,-2.7225,-2.7178,-2.7194,-2.7115,-2.672,-2.6157,-2.5999,-2.5472,-2.4637,-2.4503,-2.4139,-2.3612,-2.3754,-2.394,-2.3982,-2.3982,-2.4166,-2.4472,-2.4227,-2.39,-2.3494,-2.348,-2.3569,-2.3952,-2.4994,-2.5691,-2.5879,-2.6358,-2.6721,-2.6779,-2.6794,-2.6794,-2.6794,-2.6794,-2.7258,-2.8448,-2.8254,-2.8396,-2.8641,-2.8996,-2.9149,-2.9162,-2.8844,-2.8587,-2.8587,-2.8587,-2.8587,-2.8587,-2.8587,-2.8166,-2.7162,-2.6864,-2.6267,-2.5466,-2.5086,-2.5249,-2.5683,-2.5887,-2.6153,-2.6634,-2.7223,-2.7881,-2.8329,-2.7656,-2.6708,-2.5761,-2.4799,-2.3838,-2.3283,-2.2769,-2.2549,-2.2214,-2.1835,-2.1529,-2.1309,-2.1207,-2.1109,-2.1046,-2.0974,-2.0838,-2.0775,-2.0762,-2.0699,-3.5514,-3.4389,-3.3267,-3.2167,-3.1241,-3.1213,-3.1788,-3.2645,-3.2696,-3.3237,-3.3947,-3.3897,-3.3355,-3.257,-3.155,-3.0768,-3.006,-2.9393,-2.8967,-2.8763,-2.8541,-2.8493,-2.8541,-2.8556,-2.8604,-2.859,-2.8325,-2.814,-2.8139,-2.8419,-2.8495,-2.8413,-2.8395,-2.8349,-2.8331,-2.7952,-2.7589,-2.732,-2.6941,-2.6493,-2.611,-2.5717,-2.5304,-2.5017,-2.4364,-2.4109,-2.4333,-2.4718,-2.5118,-2.544,-2.5521,-2.5536,-2.5329,-2.4927,-2.4826,-2.5136,-2.5531,-2.5981,-2.6387,-2.6701,-2.6794,-2.6794,-2.6794,-2.6794,-2.6794,-2.6794,-2.6915,-2.719,-2.7712,-2.7846,-2.7931,-2.854,-2.9113,-2.9049,-2.878,-2.8587,-2.8587,-2.8587,-2.8587,-2.8587,-2.8573,-2.8112,-2.7176,-2.6823,-2.6335,-2.5276,-2.5005,-2.5113,-2.5236,-2.5331,-2.5517,-2.6004,-2.6296,-2.6648,-2.7255,-2.7066,-2.6317,-2.5181,-2.416,-2.299,-2.2261,-2.2028,-2.1794,-2.1722,-2.1372,-2.1269,-2.1158,-2.1023,-2.0961,-2.0898,-2.0812,-2.0825,-2.0775,-2.0712,-2.0699,-3.5258,-3.4006,-3.3303,-3.2618,-3.1958,-3.1687,-3.1952,-3.2611,-3.2645,-3.3085,-3.3677,-3.3728,-3.3389,-3.2622,-3.1435,-3.0502,-2.9754,-2.9182,-2.87,-2.8396,-2.8411,-2.8411,-2.8411,-2.8411,-2.8444,-2.8525,-2.8444,-2.8556,-2.8794,-2.8858,-2.8936,-2.9059,-2.9091,-2.9091,-2.9042,-2.8647,-2.8347,-2.8063,-2.7652,-2.7336,-2.7083,-2.6641,-2.6307,-2.6089,-2.5398,-2.4995,-2.5037,-2.5641,-2.613,-2.632,-2.66,-2.6645,-2.6437,-2.5998,-2.579,-2.5971,-2.6097,-2.6286,-2.6692,-2.6794,-2.6794,-2.6794,-2.6794,-2.6794,-2.6794,-2.6794,-2.6833,-2.7092,-2.7343,-2.767,-2.8047,-2.8567,-2.8908,-2.8908,-2.8716,-2.8587,-2.8587,-2.8587,-2.8587,-2.8546,-2.8383,-2.7841,-2.704,-2.666,-2.605,-2.5113,-2.5005,-2.5005,-2.5005,-2.4962,-2.5,-2.5418,-2.5598,-2.5775,-2.6008,-2.5888,-2.5453,-2.4463,-2.3218,-2.2148,-2.1573,-2.1377,-2.1277,-2.1193,-2.1095,-2.1059,-2.101,-2.0875,-2.0825,-2.0699,-2.0699,-2.0762,-2.0699,-2.0699,-2.0699,-3.5462,-3.4823,-3.4618,-3.3965,-3.3209,-3.2568,-3.2696,-3.3102,-3.3288,-3.3017,-3.2763,-3.3728,-3.3152,-3.1621,-3.0997,-3.0453,-2.9758,-2.8889,-2.8444,-2.8411,-2.8411,-2.8411,-2.8411,-2.8411,-2.8411,-2.8411,-2.8411,-2.8556,-2.8779,-2.8826,-2.892,-2.9091,-2.9091,-2.9091,-2.9091,-2.8996,-2.8742,-2.83,-2.8126,-2.781,-2.7225,-2.7146,-2.6973,-2.6667,-2.6823,-2.6673,-2.6108,-2.672,-2.7056,-2.7099,-2.7178,-2.6942,-2.6745,-2.6529,-2.644,-2.649,-2.666,-2.6788,-2.6779,-2.6794,-2.6794,-2.6779,-2.6779,-2.6727,-2.6727,-2.6799,-2.7165,-2.7893,-2.7952,-2.8106,-2.8982,-2.8889,-2.8651,-2.8587,-2.8587,-2.8587,-2.8587,-2.8587,-2.8587,-2.8519,-2.8153,-2.7501,-2.6891,-2.6348,-2.5751,-2.5151,-2.4948,-2.4948,-2.4892,-2.4835,-2.4734,-2.4798,-2.5007,-2.5223,-2.4998,-2.4669,-2.4204,-2.3601,-2.2365,-2.1276,-2.1246,-2.1095,-2.1095,-2.1059,-2.0997,-2.0961,-2.0911,-2.0812,-2.0762,-2.0699,-2.0699,-2.0699,-2.0699,-2.0699,-2.0699,-3.5566,-3.4798,-3.4678,-3.3888,-3.2846,-3.2957,-3.2679,-3.2053,-3.2933,-3.2983,-3.2476,-3.2763,-3.2544,-3.1765,-3.0734,-3.0004,-2.9722,-2.8842,-2.8411,-2.8411,-2.8411,-2.8411,-2.8411,-2.8411,-2.8411,-2.8411,-2.8493,-2.8636,-2.8794,-2.8858,-2.8936,-2.9075,-2.9091,-2.9091,-2.9091,-2.9075,-2.8979,-2.8837,-2.8805,-2.8679,-2.8442,-2.8015,-2.7805,-2.7845,-2.7837,-2.7729,-2.7736,-2.7762,-2.7794,-2.7778,-2.8237,-2.8292,-2.7922,-2.7601,-2.733,-2.7089,-2.6909,-2.6794,-2.6794,-2.6779,-2.6832,-2.6779,-2.6592,-2.6472,-2.6476,-2.6643,-2.6931,-2.7485,-2.7715,-2.8241,-2.847,-2.8611,-2.8573,-2.8587,-2.8587,-2.8587,-2.8587,-2.8587,-2.8587,-2.8532,-2.8071,-2.7488,-2.6816,-2.6207,-2.5513,-2.4956,-2.4778,-2.4734,-2.4734,-2.4734,-2.4677,-2.466,-2.4744,-2.4694,-2.4498,-2.4045,-2.3392,-2.2973,-2.2022,-2.1096,-2.0964,-2.0947,-2.0961,-2.0911,-2.0861,-2.0799,-2.0762,-2.0749,-2.0699,-2.0699,-2.0699,-2.0699,-2.0699,-2.0699,-2.0699,-3.5719,-3.5189,-3.506,-3.4321,-3.3236,-3.3414,-3.273,-3.1816,-3.256,-3.256,-3.2019,-3.2171,-3.2023,-3.1474,-3.0336,-2.9722,-2.9483,-2.8748,-2.8411,-2.8411,-2.8411,-2.8411,-2.8411,-2.8411,-2.8411,-2.8411,-2.8493,-2.8589,-2.8732,-2.8763,-2.8842,-2.8951,-2.8982,-2.9013,-2.9013,-2.9091,-2.9091,-2.9091,-2.9091,-2.9091,-2.9012,-2.8711,-2.848,-2.8482,-2.8496,-2.8466,-2.8512,-2.848,-2.8489,-2.8553,-2.887,-2.8951,-2.8716,-2.8192,-2.7815,-2.761,-2.7269,-2.7041,-2.7041,-2.7167,-2.7115,-2.7026,-2.6721,-2.6443,-2.6354,-2.6466,-2.6582,-2.7157,-2.751,-2.7961,-2.8402,-2.8507,-2.8573,-2.8587,-2.8587,-2.8587,-2.8587,-2.8587,-2.8587,-2.8438,-2.7868,-2.7284,-2.6749,-2.5964,-2.5307,-2.4845,-2.4734,-2.462,-2.462,-2.4549,-2.4492,-2.4434,-2.4385,-2.4313,-2.4137,-2.345,-2.257,-2.2205,-2.1786,-2.1207,-2.0851,-2.0812,-2.0861,-2.0812,-2.0762,-2.0749,-2.0699,-2.0699,-2.0699,-2.0699,-2.0699,-2.0699,-2.0699,-2.0699,-2.0699,-3.5871,-3.5881,-3.5644,-3.5033,-3.4262,-3.3651,-3.2882,-3.2222,-3.2347,-3.1935,-3.1495,-3.185,-3.1597,-3.0609,-3.0027,-2.9589,-2.9074,-2.8668,-2.8411,-2.8411,-2.8411,-2.8411,-2.8411,-2.8411,-2.8411,-2.8411,-2.8411,-2.8493,-2.8621,-2.8684,-2.8684,-2.8826,-2.8889,-2.8904,-2.8951,-2.9029,-2.9091,-2.9091,-2.9091,-2.9091,-2.9075,-2.9059,-2.8904,-2.8622,-2.8842,-2.8873,-2.8685,-2.8841,-2.9028,-2.9075,-2.9059,-2.9091,-2.8982,-2.8352,-2.7963,-2.7913,-2.761,-2.7437,-2.7473,-2.7645,-2.763,-2.7269,-2.693,-2.6707,-2.6272,-2.6076,-2.6357,-2.7181,-2.7363,-2.7781,-2.8573,-2.8739,-2.8546,-2.8532,-2.8532,-2.8573,-2.8587,-2.8587,-2.8546,-2.8329,-2.7569,-2.6782,-2.6687,-2.5666,-2.5081,-2.4848,-2.4721,-2.4607,-2.4549,-2.4421,-2.4305,-2.4221,-2.4137,-2.3895,-2.3751,-2.29,-2.2086,-2.1864,-2.1524,-2.1079,-2.0801,-2.0775,-2.0749,-2.0762,-2.0712,-2.0699,-2.0699,-2.0699,-2.0699,-2.0699,-2.0699,-2.0699,-2.0699,-2.0699,-2.0699,-3.5608,-3.5044,-3.4984,-3.4151,-3.3117,-3.3203,-3.2662,-3.1647,-3.207,-3.1833,-3.136,-3.1376,-3.1137,-3.0477,-3.0011,-2.9528,-2.9044,-2.8621,-2.8411,-2.8411,-2.8411,-2.8411,-2.8411,-2.8411,-2.8411,-2.8411,-2.8493,-2.8573,-2.8636,-2.87,-2.8747,-2.8794,-2.8842,-2.8904,-2.8904,-2.9029,-2.9091,-2.9091,-2.9091,-2.9091,-2.9091,-2.9091,-2.9075,-2.8982,-2.9029,-2.9029,-2.892,-2.9029,-2.9091,-2.9091,-2.9091,-2.9091,-2.9045,-2.8622,-2.8319,-2.8271,-2.7978,-2.778,-2.778,-2.7864,-2.7615,-2.7071,-2.6826,-2.6351,-2.5757,-2.5811,-2.6054,-2.6517,-2.6971,-2.7639,-2.8048,-2.8352,-2.8329,-2.8071,-2.8234,-2.8478,-2.8505,-2.8573,-2.8438,-2.7949,-2.7257,-2.6687,-2.6158,-2.5503,-2.4905,-2.4778,-2.4607,-2.4478,-2.4421,-2.4261,-2.4203,-2.3974,-2.3812,-2.3563,-2.3158,-2.2309,-2.1734,-2.159,-2.125,-2.0895,-2.0712,-2.0712,-2.0699,-2.0699,-2.0699,-2.0699,-2.0699,-2.0699,-2.0699,-2.0699,-2.0699,-2.0699,-2.0699,-2.0699,-2.0699,-3.5112,-3.4558,-3.427,-3.3439,-3.2432,-3.2763,-3.2273,-3.1427,-3.1613,-3.1613,-3.1202,-3.0975,-3.0658,-3.0166,-2.9705,-2.9273,-2.8795,-2.8541,-2.8411,-2.8411,-2.8411,-2.8411,-2.8411,-2.8411,-2.8411,-2.8411,-2.8508,-2.8493,-2.8541,-2.8604,-2.8652,-2.8652,-2.8763,-2.8858,-2.8842,-2.9045,-2.9091,-2.9091,-2.9091,-2.9091,-2.9091,-2.9091,-2.9091,-2.9091,-2.9091,-2.9091,-2.9091,-2.9091,-2.9091,-2.9091,-2.9091,-2.9091,-2.9091,-2.8716,-2.8527,-2.8463,-2.8271,-2.8158,-2.8158,-2.8158,-2.7913,-2.7363,-2.6864,-2.6258,-2.5785,-2.5643,-2.5561,-2.6027,-2.6606,-2.6999,-2.7339,-2.7664,-2.7651,-2.7434,-2.7637,-2.7841,-2.7854,-2.78,-2.7691,-2.7298,-2.6809,-2.6335,-2.59,-2.53,-2.4916,-2.4778,-2.4607,-2.4478,-2.4305,-2.4144,-2.3981,-2.3746,-2.3459,-2.3184,-2.2779,-2.2008,-2.1577,-2.1394,-2.1106,-2.0725,-2.0699,-2.0699,-2.0699,-2.0699,-2.0699,-2.0699,-2.0699,-2.0699,-2.0699,-2.0699,-2.0699,-2.0699,-2.0699,-2.0699,-2.0699,-3.4601,-3.4303,-3.3609,-3.2865,-3.2205,-3.2154,-3.1799,-3.1275,-3.1241,-3.1241,-3.1095,-3.0699,-3.0309,-2.975,-2.9377,-2.8873,-2.846,-2.8444,-2.8411,-2.8411,-2.8411,-2.8411,-2.8411,-2.8411,-2.8411,-2.8411,-2.8411,-2.8411,-2.846,-2.846,-2.8411,-2.8508,-2.87,-2.8794,-2.8826,-2.8998,-2.9091,-2.9091,-2.9091,-2.9091,-2.9091,-2.9091,-2.9091,-2.9091,-2.9091,-2.9091,-2.9091,-2.9091,-2.9091,-2.9091,-2.9091,-2.9091,-2.9091,-2.8716,-2.8622,-2.8622,-2.8622,-2.8574,-2.8527,-2.8511,-2.8207,-2.765,-2.6901,-2.6297,-2.5798,-2.5326,-2.5276,-2.5656,-2.5833,-2.6321,-2.6769,-2.685,-2.6769,-2.6701,-2.6714,-2.6633,-2.666,-2.6742,-2.6809,-2.6714,-2.6199,-2.5941,-2.567,-2.5385,-2.4948,-2.4778,-2.4607,-2.4421,-2.4213,-2.3935,-2.3681,-2.3393,-2.3093,-2.2766,-2.2296,-2.176,-2.1485,-2.125,-2.0949,-2.0712,-2.0699,-2.0699,-2.0699,-2.0699,-2.0699,-2.0699,-2.0699,-2.0699,-2.0699,-2.0699,-2.0699,-2.0699,-2.0699,-2.0699,-2.0699,-3.4355,-3.3718,-3.2872,-3.2104,-3.1478,-3.141,-3.136,-3.119,-3.119,-3.119,-3.1055,-3.0683,-3.0208,-2.9766,-2.9257,-2.8873,-2.846,-2.8411,-2.8411,-2.8411,-2.8411,-2.8411,-2.8411,-2.8411,-2.8411,-2.8411,-2.8411,-2.8411,-2.8411,-2.8411,-2.8411,-2.846,-2.8652,-2.881,-2.8842,-2.9014,-2.9091,-2.9091,-2.9075,-2.9091,-2.9091,-2.9091,-2.9091,-2.9075,-2.9091,-2.9091,-2.9091,-2.9091,-2.9091,-2.9091,-2.9091,-2.9091,-2.9075,-2.9029,-2.8936,-2.8936,-2.8936,-2.8936,-2.892,-2.8622,-2.8143,-2.7449,-2.6901,-2.6136,-2.5286,-2.5174,-2.5059,-2.529,-2.5615,-2.6077,-2.6538,-2.6335,-2.6145,-2.6022,-2.5751,-2.5493,-2.5561,-2.624,-2.647,-2.6185,-2.5955,-2.571,-2.529,-2.5067,-2.4835,-2.4778,-2.4607,-2.4408,-2.4103,-2.3817,-2.3446,-2.3158,-2.2701,-2.2335,-2.1773,-2.1368,-2.1185,-2.1054,-2.0869,-2.0712,-2.0699,-2.0699,-2.0699,-2.0699,-2.0699,-2.0699,-2.0699,-2.0699,-2.0699,-2.0699,-2.0699,-2.0699,-2.0699,-2.0699,-2.0699,-3.3768,-3.2913,-3.2127,-3.1562,-3.1224,-3.119,-3.119,-3.119,-3.119,-3.1055,-3.0797,-3.0393,-2.9924,-2.9438,-2.9013,-2.8621,-2.8444,-2.8411,-2.8411,-2.8411,-2.8411,-2.8411,-2.8411,-2.8411,-2.8411,-2.8411,-2.8411,-2.8411,-2.8411,-2.8411,-2.8444,-2.8493,-2.87,-2.881,-2.8842,-2.8951,-2.8998,-2.8967,-2.8951,-2.8967,-2.8967,-2.8967,-2.8967,-2.8951,-2.8967,-2.8951,-2.8967,-2.8967,-2.8967,-2.8967,-2.8951,-2.8998,-2.9091,-2.9091,-2.9091,-2.9091,-2.9091,-2.9091,-2.9029,-2.8685,-2.8238,-2.773,-2.7122,-2.6443,-2.5811,-2.5495,-2.523,-2.5116,-2.529,-2.5629,-2.5914,-2.5738,-2.5493,-2.5426,-2.5208,-2.5018,-2.5113,-2.5602,-2.5887,-2.5548,-2.5453,-2.5317,-2.5057,-2.4905,-2.4835,-2.4791,-2.4664,-2.4421,-2.4292,-2.3953,-2.3341,-2.2949,-2.24,-2.1877,-2.1289,-2.1,-2.0882,-2.0817,-2.0777,-2.0699,-2.0699,-2.0699,-2.0699,-2.0699,-2.0699,-2.0699,-2.0699,-2.0699,-2.0699,-2.0699,-2.0699,-2.0699,-2.0699,-2.0699,-2.0699,-3.3087,-3.2246,-3.1495,-3.119,-3.119,-3.119,-3.119,-3.119,-3.119,-3.0975,-3.0477,-3.0011,-2.9617,-2.909,-2.8668,-2.846,-2.8411,-2.8411,-2.8411,-2.8411,-2.8411,-2.8411,-2.8411,-2.8411,-2.8411,-2.8411,-2.8411,-2.8411,-2.8411,-2.8411,-2.8444,-2.8589,-2.8684,-2.8747,-2.8779,-2.8858,-2.8905,-2.8842,-2.8842,-2.8842,-2.8842,-2.8842,-2.8842,-2.8842,-2.8842,-2.8842,-2.8842,-2.8842,-2.881,-2.881,-2.881,-2.8873,-2.8998,-2.9029,-2.9045,-2.906,-2.9045,-2.9014,-2.8967,-2.8653,-2.8317,-2.8284,-2.7545,-2.6811,-2.6297,-2.5865,-2.555,-2.5174,-2.51,-2.51,-2.5018,-2.51,-2.5073,-2.5046,-2.5032,-2.5005,-2.5005,-2.5005,-2.51,-2.5086,-2.5097,-2.5043,-2.4946,-2.4821,-2.4778,-2.4721,-2.4593,-2.4439,-2.4226,-2.3822,-2.3149,-2.2465,-2.1851,-2.1511,-2.1026,-2.0869,-2.0712,-2.0699,-2.0699,-2.0699,-2.0699,-2.0699,-2.0699,-2.0699,-2.0699,-2.0699,-2.0699,-2.0699,-2.0699,-2.0699,-2.0699,-2.0699,-2.0699,-2.0699,-2.0699,-3.2627,-3.24,-3.1534,-3.119,-3.119,-3.119,-3.119,-3.119,-3.119,-3.0935,-3.0435,-2.9995,-2.9528,-2.9044,-2.8621,-2.8411,-2.8411,-2.8411,-2.8411,-2.8411,-2.8411,-2.8411,-2.8411,-2.8411,-2.8411,-2.8411,-2.8411,-2.8411,-2.8411,-2.8411,-2.8444,-2.8444,-2.8589,-2.8636,-2.8684,-2.8732,-2.8779,-2.8747,-2.8747,-2.8747,-2.8747,-2.8747,-2.8763,-2.8747,-2.8747,-2.8747,-2.8794,-2.881,-2.881,-2.881,-2.881,-2.8842,-2.8826,-2.8826,-2.8826,-2.8889,-2.8873,-2.8889,-2.8842,-2.8493,-2.8107,-2.7795,-2.7327,-2.6759,-2.6204,-2.5879,-2.5605,-2.523,-2.5005,-2.5005,-2.5005,-2.5005,-2.5005,-2.5005,-2.5005,-2.5005,-2.5005,-2.5005,-2.5005,-2.5005,-2.4892,-2.4821,-2.4821,-2.4708,-2.4593,-2.4483,-2.4288,-2.3975,-2.3677,-2.3162,-2.252,-2.1825,-2.1185,-2.1,-2.0738,-2.0738,-2.0699,-2.0699,-2.0699,-2.0699,-2.0699,-2.0699,-2.0699,-2.0699,-2.0699,-2.0699,-2.0699,-2.0699,-2.0699,-2.0699,-2.0699,-2.0699,-2.0699,-2.0699,-2.0699,-3.2247,-3.1817,-3.1382,-3.119,-3.119,-3.119,-3.119,-3.119,-3.119,-3.0797,-3.0225,-2.9881,-2.9409,-2.8826,-2.8525,-2.8411,-2.8411,-2.8411,-2.8411,-2.8411,-2.8411,-2.8411,-2.8411,-2.8411,-2.8411,-2.8411,-2.8411,-2.8411,-2.8411,-2.8411,-2.8444,-2.8477,-2.8573,-2.8589,-2.8589,-2.8636,-2.8652,-2.8604,-2.8604,-2.8604,-2.8604,-2.8589,-2.8604,-2.8604,-2.8604,-2.8604,-2.8604,-2.8604,-2.8604,-2.8604,-2.8589,-2.8589,-2.8604,-2.8604,-2.8636,-2.8747,-2.881,-2.881,-2.87,-2.8284,-2.7845,-2.768,-2.7261,-2.6602,-2.6096,-2.5839,-2.5619,-2.5174,-2.5005,-2.5005,-2.5005,-2.5005,-2.5005,-2.5005,-2.5005,-2.5005,-2.5005,-2.5005,-2.5005,-2.5005,-2.4851,-2.4794,-2.4765,-2.465,-2.4465,-2.4257,-2.3997,-2.3568,-2.3158,-2.2648,-2.2047,-2.1525,-2.1002,-2.0806,-2.0649,-2.0699,-2.0699,-2.0699,-2.0699,-2.0699,-2.0699,-2.0699,-2.0699,-2.0699,-2.0699,-2.0699,-2.0699,-2.0699,-2.0699,-2.0699,-2.0699,-2.0699,-2.0699,-2.0699,-2.0699,-3.189,-3.123,-3.123,-3.123,-3.119,-3.119,-3.119,-3.119,-3.119,-3.0675,-2.9881,-2.975,-2.9289,-2.8621,-2.8396,-2.8411,-2.8411,-2.8411,-2.8411,-2.8411,-2.8411,-2.8411,-2.8411,-2.8411,-2.8411,-2.8411,-2.8411,-2.8411,-2.8411,-2.8411,-2.846,-2.8493,-2.8541,-2.8541,-2.8541,-2.8541,-2.8493,-2.846,-2.8411,-2.8411,-2.8411,-2.8411,-2.8411,-2.8411,-2.8411,-2.8411,-2.846,-2.846,-2.846,-2.846,-2.846,-2.8411,-2.8411,-2.8411,-2.8508,-2.8652,-2.87,-2.87,-2.8589,-2.8268,-2.7959,-2.791,-2.7378,-2.6864,-2.6297,-2.6096,-2.5674,-2.5174,-2.5005,-2.5005,-2.5005,-2.5005,-2.5005,-2.5005,-2.5005,-2.5005,-2.5005,-2.5005,-2.5005,-2.4921,-2.4754,-2.4684,-2.4697,-2.454,-2.4297,-2.3923,-2.3695,-2.3044,-2.2648,-2.2361,-2.1851,-2.1368,-2.0963,-2.0767,-2.0662,-2.0712,-2.0699,-2.0699,-2.0699,-2.0699,-2.0699,-2.0699,-2.0699,-2.0699,-2.0699,-2.0699,-2.0699,-2.0699,-2.0699,-2.0699,-2.0699,-2.0699,-2.0699,-2.0699,-2.0699,-3.1492,-3.1312,-3.1295,-3.1252,-3.119,-3.119,-3.119,-3.119,-3.119,-3.0658,-2.9793,-2.975,-2.9273,-2.8573,-2.8411,-2.8411,-2.8411,-2.8411,-2.8411,-2.8411,-2.8411,-2.8411,-2.8411,-2.8411,-2.8411,-2.8411,-2.8411,-2.8411,-2.8411,-2.8411,-2.8411,-2.846,-2.8444,-2.8444,-2.8444,-2.8444,-2.8411,-2.8411,-2.8411,-2.8411,-2.8411,-2.8411,-2.8411,-2.8411,-2.8411,-2.8411,-2.8411,-2.8411,-2.8411,-2.8411,-2.8411,-2.8411,-2.8411,-2.8411,-2.8411,-2.846,-2.846,-2.8444,-2.8444,-2.8235,-2.8122,-2.8073,-2.7925,-2.781,-2.6916,-2.6136,-2.5564,-2.5061,-2.5005,-2.5005,-2.5005,-2.5005,-2.5005,-2.5005,-2.5005,-2.5005,-2.5005,-2.5005,-2.5005,-2.4867,-2.4743,-2.466,-2.4603,-2.4389,-2.4191,-2.3721,-2.327,-2.2651,-2.2139,-2.1838,-2.1472,-2.0991,-2.0847,-2.0664,-2.0562,-2.0612,-2.0662,-2.0699,-2.0699,-2.0699,-2.0699,-2.0699,-2.0699,-2.0699,-2.0699,-2.0699,-2.0699,-2.0699,-2.0699,-2.0699,-2.0699,-2.0699,-2.0699,-2.0699,-2.0699,-3.1406,-3.1278,-3.1235,-3.123,-3.119,-3.119,-3.119,-3.119,-3.119,-3.0675,-2.9924,-2.9793,-2.9273,-2.8541,-2.8411,-2.8411,-2.8411,-2.8411,-2.8411,-2.8411,-2.8411,-2.8411,-2.8411,-2.8411,-2.8411,-2.8411,-2.8411,-2.8411,-2.8411,-2.8411,-2.8411,-2.8411,-2.8411,-2.8396,-2.8411,-2.8411,-2.8411,-2.8411,-2.8411,-2.8411,-2.8411,-2.8411,-2.8411,-2.8411,-2.8411,-2.8411,-2.8411,-2.8411,-2.8411,-2.8411,-2.8411,-2.8411,-2.8411,-2.8411,-2.8411,-2.8411,-2.8411,-2.8411,-2.8396,-2.8122,-2.8008,-2.771,-2.7393,-2.6616,-2.6176,-2.5756,-2.5342,-2.5005,-2.5005,-2.5005,-2.5005,-2.5005,-2.5005,-2.5005,-2.5005,-2.5005,-2.5005,-2.5005,-2.4991,-2.4827,-2.4649,-2.4428,-2.4158,-2.3628,-2.3342,-2.3118,-2.2627,-2.206,-2.1629,-2.1315,-2.0952,-2.0527,-2.05,-2.0524,-2.0448,-2.0448,-2.0612,-2.0662,-2.0712,-2.0699,-2.0699,-2.0699,-2.0649,-2.0699,-2.0699,-2.0699,-2.0699,-2.0699,-2.0699,-2.0699,-2.0699,-2.0699,-2.0699,-2.0699,-2.0699,-3.1406,-3.1295,-3.1252,-3.123,-3.119,-3.119,-3.119,-3.119,-3.1055,-3.0535,-2.9881,-2.9528,-2.9013,-2.8525,-2.8411,-2.8411,-2.8411,-2.8411,-2.8411,-2.8411,-2.8411,-2.8411,-2.8411,-2.8411,-2.8411,-2.8411,-2.8411,-2.8411,-2.8411,-2.8411,-2.8411,-2.8411,-2.8411,-2.8411,-2.8411,-2.8411,-2.8411,-2.8411,-2.8411,-2.8411,-2.8411,-2.8411,-2.8411,-2.8411,-2.8411,-2.8411,-2.8411,-2.8411,-2.8411,-2.8411,-2.8411,-2.8411,-2.8411,-2.8411,-2.8411,-2.8411,-2.8411,-2.8411,-2.8299,-2.8073,-2.7795,-2.7429,-2.6916,-2.6404,-2.555,-2.5216,-2.5104,-2.5005,-2.5005,-2.5005,-2.5005,-2.5005,-2.5005,-2.5005,-2.5005,-2.5005,-2.5005,-2.4948,-2.4921,-2.4784,-2.4442,-2.3983,-2.3565,-2.2843,-2.2471,-2.2366,-2.1957,-2.1498,-2.1146,-2.086,-2.0654,-2.0283,-2.0283,-2.0398,-2.0448,-2.0448,-2.0562,-2.0612,-2.0662,-2.0662,-2.0662,-2.0649,-2.0599,-2.0649,-2.0699,-2.0699,-2.0699,-2.0699,-2.0699,-2.0699,-2.0699,-2.0699,-2.0699,-2.0699,-2.0699,-3.1406,-3.1312,-3.1312,-3.1235,-3.119,-3.119,-3.119,-3.1151,-3.074,-3.0267,-2.9661,-2.8982,-2.8573,-2.8396,-2.8411,-2.8411,-2.8411,-2.8411,-2.8411,-2.8411,-2.8411,-2.8411,-2.8411,-2.8411,-2.8411,-2.8411,-2.8411,-2.8411,-2.8411,-2.8411,-2.8411,-2.8411,-2.8411,-2.8411,-2.8411,-2.8411,-2.8444,-2.8444,-2.8444,-2.8444,-2.846,-2.846,-2.846,-2.8411,-2.8411,-2.8411,-2.8411,-2.8411,-2.8411,-2.8411,-2.8411,-2.846,-2.846,-2.8411,-2.8411,-2.846,-2.8411,-2.8411,-2.8348,-2.8299,-2.8299,-2.8122,-2.7645,-2.6759,-2.5784,-2.5784,-2.5564,-2.5118,-2.5005,-2.5005,-2.5005,-2.5005,-2.5005,-2.5005,-2.5005,-2.5005,-2.4948,-2.4892,-2.4865,-2.467,-2.4359,-2.3941,-2.3284,-2.2617,-2.1996,-2.1851,-2.159,-2.1095,-2.0823,-2.0539,-2.0475,-2.0246,-2.0233,-2.0283,-2.0461,-2.0461,-2.0461,-2.0511,-2.0612,-2.0562,-2.0562,-2.0562,-2.0599,-2.0612,-2.0662,-2.0649,-2.0699,-2.0699,-2.0699,-2.0699,-2.0699,-2.0699,-2.0699,-2.0699,-2.0699,-3.1351,-3.1295,-3.1235,-3.1213,-3.119,-3.119,-3.119,-3.1095,-3.0683,-3.0038,-2.9303,-2.8716,-2.8411,-2.8411,-2.8411,-2.8411,-2.8411,-2.8411,-2.8411,-2.8411,-2.8411,-2.8411,-2.8411,-2.8411,-2.8411,-2.8411,-2.8411,-2.8411,-2.8411,-2.8411,-2.8411,-2.8411,-2.8411,-2.8411,-2.8411,-2.8444,-2.8493,-2.8541,-2.8589,-2.8589,-2.8541,-2.8604,-2.8556,-2.8411,-2.8493,-2.8444,-2.8396,-2.8411,-2.8411,-2.8411,-2.8411,-2.8444,-2.8493,-2.846,-2.8444,-2.8493,-2.8444,-2.8381,-2.8365,-2.8332,-2.8235,-2.7845,-2.7565,-2.699,-2.6002,-2.5893,-2.5564,-2.523,-2.5005,-2.5005,-2.5005,-2.5005,-2.5005,-2.5005,-2.5005,-2.5005,-2.4948,-2.4892,-2.4727,-2.4563,-2.4303,-2.4006,-2.3269,-2.2471,-2.1877,-2.1325,-2.1054,-2.0784,-2.0514,-2.0296,-2.0246,-2.0144,-2.008,-2.008,-2.0246,-2.0258,-2.0309,-2.041,-2.0511,-2.0461,-2.0461,-2.0612,-2.0662,-2.0662,-2.0612,-2.0649,-2.0649,-2.0699,-2.0699,-2.0699,-2.0699,-2.0699,-2.0699,-2.0699,-2.0699,-3.1372,-3.1351,-3.1308,-3.123,-3.119,-3.119,-3.1095,-3.0935,-3.0477,-2.9777,-2.8873,-2.8525,-2.8411,-2.8411,-2.8411,-2.8411,-2.8411,-2.8411,-2.8411,-2.8411,-2.8411,-2.8411,-2.8411,-2.8411,-2.8411,-2.8411,-2.8411,-2.8411,-2.8411,-2.8411,-2.8411,-2.8411,-2.8411,-2.8411,-2.8444,-2.8493,-2.8541,-2.8541,-2.8589,-2.8652,-2.8541,-2.8589,-2.8604,-2.8411,-2.8508,-2.8508,-2.8396,-2.8411,-2.8411,-2.8411,-2.846,-2.8541,-2.8541,-2.8541,-2.8541,-2.8541,-2.8525,-2.8383,-2.8181,-2.8271,-2.7993,-2.7414,-2.7261,-2.664,-2.5988,-2.5619,-2.5286,-2.5118,-2.5005,-2.5005,-2.5005,-2.5005,-2.5005,-2.5005,-2.5005,-2.5005,-2.4948,-2.4892,-2.4646,-2.4442,-2.4073,-2.3556,-2.2683,-2.1852,-2.1471,-2.1025,-2.082,-2.0603,-2.0361,-2.0182,-2.008,-2.0029,-1.9978,-1.9978,-1.999,-2.0093,-2.0195,-2.0246,-2.0347,-2.036,-2.036,-2.0511,-2.0549,-2.0448,-2.0448,-2.0599,-2.0649,-2.0649,-2.0662,-2.0712,-2.0699,-2.0699,-2.0699,-2.0699,-2.0662,-3.1559,-3.1517,-3.1479,-3.1385,-3.123,-3.119,-3.0958,-3.0642,-3.014,-2.9409,-2.8589,-2.8444,-2.8444,-2.8411,-2.8411,-2.8411,-2.8411,-2.8411,-2.8411,-2.8411,-2.8411,-2.8411,-2.8411,-2.8411,-2.8411,-2.8411,-2.8411,-2.8411,-2.8411,-2.8411,-2.8411,-2.8411,-2.8411,-2.8411,-2.8411,-2.8411,-2.8411,-2.8411,-2.846,-2.8493,-2.8444,-2.8493,-2.8508,-2.846,-2.846,-2.846,-2.8411,-2.8411,-2.8411,-2.8411,-2.8493,-2.8541,-2.8589,-2.8636,-2.8636,-2.8573,-2.8573,-2.8184,-2.758,-2.8073,-2.7652,-2.6988,-2.6864,-2.6529,-2.5508,-2.5147,-2.5174,-2.5118,-2.5005,-2.5005,-2.5005,-2.5005,-2.5005,-2.5005,-2.5005,-2.4948,-2.4892,-2.4633,-2.4319,-2.4062,-2.3517,-2.2844,-2.1957,-2.1159,-2.0961,-2.0688,-2.0575,-2.041,-2.0182,-2.0067,-1.9965,-1.9914,-1.9862,-1.9875,-1.9926,-1.9978,-2.0042,-2.0131,-2.0182,-2.0246,-2.0246,-2.0296,-2.0296,-2.0233,-2.0398,-2.0599,-2.0612,-2.0612,-2.0662,-2.0712,-2.0699,-2.0699,-2.0699,-2.0699,-2.0649,-3.1596,-3.1559,-3.1428,-3.1312,-3.1274,-3.1274,-3.1117,-3.0902,-3.0393,-2.9589,-2.8668,-2.87,-2.8653,-2.8477,-2.8411,-2.8411,-2.8411,-2.8411,-2.8411,-2.8411,-2.8411,-2.8411,-2.8411,-2.8411,-2.8411,-2.8411,-2.8411,-2.8411,-2.8411,-2.8411,-2.8411,-2.8411,-2.8411,-2.8411,-2.8444,-2.8444,-2.8541,-2.8541,-2.8589,-2.8636,-2.8541,-2.8589,-2.8556,-2.8411,-2.8493,-2.8493,-2.8411,-2.8411,-2.8411,-2.8411,-2.8493,-2.8541,-2.8589,-2.8636,-2.8589,-2.8525,-2.851,-2.8121,-2.7473,-2.7272,-2.6717,-2.6516,-2.6783,-2.655,-2.5399,-2.583,-2.5672,-2.5216,-2.5005,-2.5005,-2.5005,-2.5005,-2.5005,-2.4948,-2.4948,-2.4892,-2.4711,-2.4222,-2.3886,-2.3643,-2.3239,-2.2454,-2.159,-2.1003,-2.064,-2.0498,-2.0398,-2.0246,-2.0016,-1.9914,-1.985,-1.985,-1.9811,-1.9811,-1.9862,-1.9926,-1.9926,-2.0029,-2.008,-2.0207,-2.0195,-2.0131,-2.0296,-2.0334,-2.0448,-2.0549,-2.0562,-2.0562,-2.0662,-2.0712,-2.0699,-2.0699,-2.0699,-2.0699,-2.0699,-3.1579,-3.1579,-3.1428,-3.1334,-3.1257,-3.11,-3.0902,-3.0658,-3.0225,-2.9467,-2.8826,-2.8826,-2.87,-2.8444,-2.8411,-2.8411,-2.8411,-2.8411,-2.8411,-2.8411,-2.8411,-2.8411,-2.8411,-2.8411,-2.8411,-2.8411,-2.8411,-2.8411,-2.8411,-2.8411,-2.8411,-2.8411,-2.8411,-2.8411,-2.8444,-2.8493,-2.8493,-2.8493,-2.8541,-2.8589,-2.8541,-2.8541,-2.8541,-2.846,-2.8444,-2.8477,-2.8444,-2.8411,-2.8411,-2.8411,-2.8444,-2.8477,-2.8541,-2.8589,-2.8556,-2.8525,-2.8184,-2.7842,-2.738,-2.6811,-2.6245,-2.5453,-2.662,-2.6347,-2.5228,-2.5289,-2.5355,-2.512,-2.4991,-2.5005,-2.5005,-2.5005,-2.5005,-2.4948,-2.4786,-2.473,-2.4375,-2.3888,-2.3216,-2.3043,-2.267,-2.1944,-2.1394,-2.0965,-2.0474,-2.036,-2.0195,-2.0029,-1.9862,-1.985,-1.9798,-1.9798,-1.9798,-1.9798,-1.9811,-1.9811,-1.9862,-1.9926,-1.9978,-2.0093,-2.0029,-2.0016,-2.0233,-2.0385,-2.0334,-2.0283,-2.0448,-2.0562,-2.0612,-2.0662,-2.0699,-2.0699,-2.0699,-2.0749,-2.0785,-3.1565,-3.1528,-3.147,-3.1304,-3.115,-3.0714,-3.0309,-2.981,-2.9393,-2.9136,-2.9044,-2.8605,-2.8493,-2.846,-2.8411,-2.8411,-2.8411,-2.8411,-2.8411,-2.8411,-2.8411,-2.8411,-2.8411,-2.8411,-2.8411,-2.8411,-2.8411,-2.8411,-2.8411,-2.8411,-2.8411,-2.8348,-2.8348,-2.8411,-2.8396,-2.8396,-2.8444,-2.846,-2.846,-2.8444,-2.8444,-2.846,-2.846,-2.846,-2.846,-2.8444,-2.8411,-2.8396,-2.8411,-2.8444,-2.8541,-2.8589,-2.8636,-2.8747,-2.8684,-2.8434,-2.789,-2.755,-2.7149,-2.6565,-2.5908,-2.5078,-2.4976,-2.484,-2.4803,-2.4702,-2.4888,-2.4996,-2.5005,-2.5005,-2.5005,-2.5005,-2.5005,-2.4829,-2.4529,-2.4297,-2.3944,-2.3338,-2.2645,-2.2155,-2.1786,-2.1238,-2.0887,-2.0487,-2.0309,-2.0207,-2.0093,-2.0029,-1.9862,-1.9798,-1.9798,-1.9798,-1.9798,-1.9798,-1.9798,-1.9798,-1.9798,-1.9862,-1.9862,-1.9914,-1.9862,-1.9914,-2.0131,-2.0182,-2.0016,-2.0067,-2.0347,-2.0511,-2.0612,-2.0662,-2.0699,-2.0699,-2.0699,-2.0885,-2.0983,-3.0607,-3.002,-2.9896,-3.0094,-3.0489,-3.0523,-3.0208,-2.9793,-2.9617,-2.9273,-2.8621,-2.8826,-2.8668,-2.8396,-2.8411,-2.8411,-2.8411,-2.8411,-2.8411,-2.8411,-2.8411,-2.8411,-2.8411,-2.8411,-2.8411,-2.8411,-2.8411,-2.8411,-2.8411,-2.8411,-2.8122,-2.7845,-2.8186,-2.8299,-2.8348,-2.8411,-2.8411,-2.8411,-2.8411,-2.8411,-2.8411,-2.8411,-2.846,-2.8493,-2.8444,-2.8444,-2.8493,-2.8444,-2.8396,-2.846,-2.8541,-2.8589,-2.8589,-2.8732,-2.8732,-2.8511,-2.7875,-2.7211,-2.6672,-2.6041,-2.5538,-2.5195,-2.4896,-2.4461,-2.4354,-2.4546,-2.479,-2.5025,-2.4991,-2.5005,-2.5005,-2.5005,-2.5005,-2.4869,-2.4556,-2.4203,-2.3797,-2.3044,-2.2352,-2.1719,-2.1288,-2.0913,-2.055,-2.0309,-2.0144,-2.0042,-1.9939,-1.9926,-1.9875,-1.9811,-1.9798,-1.9798,-1.9759,-1.9759,-1.9798,-1.9798,-1.9798,-1.9798,-1.9798,-1.9862,-1.9926,-1.9978,-2.0029,-2.0029,-2.0029,-2.0182,-2.0398,-2.0511,-2.0612,-2.0649,-2.0699,-2.0699,-2.0749,-2.0934,-2.1082,-2.985,-2.935,-2.9193,-2.9564,-3.007,-2.9996,-2.9865,-2.9766,-2.9633,-2.912,-2.8732,-2.8732,-2.8653,-2.8444,-2.8411,-2.8411,-2.8411,-2.8411,-2.8411,-2.8411,-2.8411,-2.8411,-2.8411,-2.8411,-2.8411,-2.8411,-2.8411,-2.8411,-2.8348,-2.8348,-2.8122,-2.7615,-2.7959,-2.8008,-2.8008,-2.8008,-2.8186,-2.8299,-2.8411,-2.8411,-2.8411,-2.8411,-2.8444,-2.8493,-2.8444,-2.8444,-2.8493,-2.8444,-2.8396,-2.8411,-2.8493,-2.8541,-2.8493,-2.8589,-2.8652,-2.8369,-2.7812,-2.7519,-2.7211,-2.6364,-2.6072,-2.5771,-2.5258,-2.4824,-2.4755,-2.4916,-2.5143,-2.5342,-2.5161,-2.5005,-2.5005,-2.5005,-2.5005,-2.4991,-2.4623,-2.4188,-2.3527,-2.2831,-2.2166,-2.1468,-2.1013,-2.0679,-2.0398,-2.0195,-2.0029,-1.9914,-1.9862,-1.9862,-1.9862,-1.9798,-1.9798,-1.9798,-1.9759,-1.972,-1.9759,-1.9747,-1.9747,-1.9798,-1.9798,-1.9862,-1.9926,-1.9926,-1.9926,-2.0029,-2.0144,-2.0296,-2.036,-2.0498,-2.0599,-2.0649,-2.0649,-2.0649,-2.0785,-2.1033,-2.1131,-2.9213,-2.8989,-2.9036,-2.9231,-2.9688,-2.9248,-2.9265,-2.9569,-2.918,-2.9044,-2.892,-2.8589,-2.8444,-2.8411,-2.8411,-2.8411,-2.8411,-2.8411,-2.8411,-2.8411,-2.8411,-2.8411,-2.8411,-2.8348,-2.8299,-2.8348,-2.825,-2.8073,-2.8186,-2.8073,-2.786,-2.7414,-2.7565,-2.763,-2.768,-2.7795,-2.8073,-2.8348,-2.8411,-2.8411,-2.8411,-2.8411,-2.8411,-2.8444,-2.8396,-2.8411,-2.8444,-2.8396,-2.8411,-2.8411,-2.846,-2.846,-2.8508,-2.846,-2.846,-2.8352,-2.7936,-2.775,-2.7596,-2.6949,-2.6872,-2.6534,-2.5986,-2.5834,-2.5898,-2.5039,-2.4954,-2.5287,-2.5104,-2.5005,-2.5005,-2.5005,-2.5005,-2.4869,-2.4529,-2.4014,-2.3366,-2.2602,-2.1752,-2.1189,-2.0933,-2.0599,-2.0334,-2.0131,-1.9926,-1.9862,-1.9747,-1.9747,-1.9747,-1.9747,-1.9747,-1.9747,-1.9708,-1.9668,-1.9708,-1.9708,-1.9708,-1.9759,-1.9798,-1.9798,-1.9862,-1.9862,-1.9862,-1.9978,-2.008,-2.0195,-2.0309,-2.0398,-2.0448,-2.0498,-2.0549,-2.0599,-2.0785,-2.0983,-2.1131,-2.8217,-2.767,-2.8135,-2.8053,-2.7679,-2.8475,-2.8506,-2.803,-2.8419,-2.8542,-2.8525,-2.8444,-2.8411,-2.8411,-2.8411,-2.8411,-2.8411,-2.8411,-2.8411,-2.8411,-2.8411,-2.8411,-2.8299,-2.8073,-2.8073,-2.8122,-2.8024,-2.7645,-2.753,-2.7479,-2.7276,-2.6563,-2.6901,-2.7414,-2.7464,-2.7695,-2.8073,-2.8299,-2.8411,-2.8411,-2.8411,-2.8411,-2.846,-2.8444,-2.8493,-2.8444,-2.8444,-2.8444,-2.8411,-2.8411,-2.8493,-2.8589,-2.87,-2.8589,-2.8541,-2.8494,-2.8213,-2.8013,-2.7766,-2.7458,-2.735,-2.7303,-2.7037,-2.7294,-2.6817,-2.5275,-2.4654,-2.4984,-2.5174,-2.5118,-2.5005,-2.5005,-2.4937,-2.4706,-2.4476,-2.3825,-2.3216,-2.2277,-2.1362,-2.1053,-2.0825,-2.0549,-2.0283,-2.008,-1.9926,-1.9772,-1.9656,-1.9604,-1.9604,-1.9604,-1.9617,-1.9617,-1.9604,-1.9617,-1.9604,-1.9617,-1.9668,-1.9708,-1.9798,-1.9798,-1.9798,-1.9798,-1.9811,-1.9862,-1.9914,-2.0093,-2.0195,-2.0195,-2.0296,-2.0398,-2.0448,-2.0498,-2.0549,-2.0686,-2.0983,-2.7579,-2.7125,-2.7295,-2.7271,-2.7148,-2.7538,-2.7545,-2.7391,-2.7751,-2.795,-2.8042,-2.8258,-2.8411,-2.8411,-2.8411,-2.8411,-2.8411,-2.8411,-2.8411,-2.8411,-2.8411,-2.8411,-2.8186,-2.7959,-2.8122,-2.8186,-2.7795,-2.7363,-2.7093,-2.721,-2.7122,-2.6404,-2.6953,-2.7159,-2.721,-2.753,-2.786,-2.7959,-2.8235,-2.8411,-2.8411,-2.8411,-2.8411,-2.8444,-2.8444,-2.8444,-2.8444,-2.8444,-2.8411,-2.8396,-2.8444,-2.8493,-2.8541,-2.8493,-2.8525,-2.8465,-2.8247,-2.8029,-2.7906,-2.7767,-2.7705,-2.7767,-2.7446,-2.7474,-2.719,-2.583,-2.5418,-2.5701,-2.5619,-2.5508,-2.5118,-2.5005,-2.4734,-2.4476,-2.4163,-2.373,-2.2866,-2.1887,-2.1309,-2.0977,-2.0775,-2.0612,-2.0398,-2.0182,-1.9978,-1.9811,-1.9708,-1.9604,-1.9565,-1.946,-1.946,-1.9408,-1.946,-1.9512,-1.9604,-1.9565,-1.9577,-1.9668,-1.9759,-1.9811,-1.9811,-1.9798,-1.9798,-1.9862,-1.9926,-2.0042,-2.0093,-2.0144,-2.0246,-2.041,-2.0398,-2.0398,-2.0448,-2.0536,-2.0835,-2.7154,-2.6877,-2.6566,-2.664,-2.6977,-2.6593,-2.6564,-2.6863,-2.724,-2.7426,-2.755,-2.8134,-2.8365,-2.8411,-2.8411,-2.8411,-2.8411,-2.8411,-2.8411,-2.8348,-2.8348,-2.8348,-2.8284,-2.8122,-2.8073,-2.791,-2.758,-2.7464,-2.7414,-2.7261,-2.6849,-2.664,-2.664,-2.664,-2.6678,-2.6886,-2.7261,-2.7795,-2.8186,-2.8348,-2.8411,-2.8411,-2.8411,-2.8411,-2.8411,-2.8411,-2.8411,-2.8411,-2.8411,-2.8411,-2.8396,-2.8444,-2.8444,-2.8444,-2.8493,-2.84,-2.8232,-2.8248,-2.8326,-2.8109,-2.8295,-2.8309,-2.7735,-2.7414,-2.7195,-2.6953,-2.6481,-2.6229,-2.6096,-2.5729,-2.5286,-2.5063,-2.475,-2.4177,-2.3906,-2.3432,-2.2396,-2.1565,-2.1269,-2.0938,-2.0775,-2.0662,-2.0398,-2.0246,-2.008,-1.9862,-1.9747,-1.9656,-1.9617,-1.9473,-1.9368,-1.9316,-1.9263,-1.9356,-1.9512,-1.9525,-1.942,-1.9565,-1.9656,-1.9759,-1.9811,-1.9798,-1.985,-1.9914,-1.9978,-1.999,-2.0093,-2.0144,-2.0246,-2.0398,-2.0347,-2.0334,-2.0448,-2.0586,-2.0835,-2.6908,-2.6504,-2.6109,-2.5826,-2.5644,-2.5923,-2.5958,-2.5877,-2.6933,-2.7396,-2.7519,-2.8042,-2.8411,-2.8411,-2.8411,-2.8411,-2.8411,-2.8411,-2.8299,-2.8235,-2.8284,-2.8235,-2.8186,-2.7959,-2.768,-2.7414,-2.7261,-2.7144,-2.7093,-2.6602,-2.619,-2.6096,-2.6082,-2.6283,-2.673,-2.699,-2.7429,-2.786,-2.8073,-2.8299,-2.8411,-2.8411,-2.8411,-2.8411,-2.8411,-2.8411,-2.8411,-2.8411,-2.8411,-2.8411,-2.8411,-2.8411,-2.8411,-2.8411,-2.8444,-2.8477,-2.831,-2.8387,-2.845,-2.8435,-2.8575,-2.8496,-2.8107,-2.8057,-2.791,-2.776,-2.7342,-2.6901,-2.6563,-2.5853,-2.5467,-2.5467,-2.5204,-2.4122,-2.3525,-2.2685,-2.1781,-2.1439,-2.1233,-2.1046,-2.0835,-2.0586,-2.0296,-2.0131,-1.9978,-1.9811,-1.9708,-1.9604,-1.9512,-1.9368,-1.9275,-1.9158,-1.9105,-1.9158,-1.9263,-1.9316,-1.9328,-1.942,-1.9565,-1.9656,-1.9759,-1.9798,-1.9862,-1.9862,-1.9862,-1.9875,-1.9978,-2.0029,-2.0144,-2.0233,-2.0233,-2.0283,-2.0385,-2.0586,-2.0871]},{"header":{"parameterUnit":"m.s-1","parameterCategory":1,"la1":31.0,"la2":29.5877,"lo1":-88.7671,"lo2":-86.6584,"dy":0.0162,"dx":0.0185,"nx":115,"ny":88,"refTime":"2024-07-25T12:00:00:Z","depth":0,"parameterNumber":3,"parameterNumberName":"V-component_of_WINDS"},"data":[0.0,0.0,0.0,0.0,0.0,0.0,0.0,0.0,0.0,0.0,0.0,0.0,0.0,0.0,0.0,0.0,0.0,0.0,0.0,0.0,0.0,0.0,0.0,0.0,0.0,0.0,0.0,0.0,0.0,0.0,0.0,0.0,0.0,0.0,0.0,0.0,0.0,0.0,0.0,0.0,0.0,0.0,0.0,0.0,0.0,0.0,0.0,0.0,0.0,0.0,0.0,0.0,0.0,0.0,0.0,0.0,0.0,0.0,0.0,0.0,0.0,0.0,0.0,0.0,0.0,0.0,0.0,0.0,0.0,0.0,0.0,0.0,0.0,0.0,0.0,0.0,0.0,0.0,0.0,0.0,0.0,0.0,0.0,0.0,0.0,0.0,0.0,0.0,0.0,0.0,0.0,0.0,0.0,0.0,0.0,0.0,0.0,0.0,0.0,0.0,0.0,0.0,0.0,0.0,0.0,0.0,0.0,0.0,0.0,0.0,0.0,0.0,0.0,0.0,0.0,0.0,0.0,0.0,0.0,0.0,0.0,0.0,0.0,0.0,0.0,0.0,0.0,0.0,0.0,0.0,0.0,0.0,0.0,0.0,0.0,0.0,0.0,0.0,0.0,0.0,0.0,0.0,0.0,0.0,0.0,0.0,0.0,0.0,0.0,0.0,0.0,0.0,0.0,0.0,0.0,0.0,0.0,0.0,0.0,0.0,0.0,0.0,0.0,0.0,0.0,0.0,0.0,0.0,0.0,0.0,0.0,0.0,0.0,0.0,0.0,0.0,0.0,0.0,0.0,0.0,0.0,0.0,0.0,0.0,0.0,0.0,0.0,0.0,0.0,0.0,0.0,0.0,0.0,0.0,0.0,0.0,0.0,0.0,0.0,0.0,0.0,0.0,0.0,0.0,0.0,0.0,0.0,0.0,0.0,0.0,0.0,0.0,0.0,0.0,0.0,0.0,0.0,0.0,0.0,0.0,0.0,0.0,0.0,0.0,0.0,0.0,0.0,0.0,0.0,0.0,0.0,0.0,0.0,0.0,0.0,0.0,0.0,0.0,0.0,0.0,0.0,0.0,0.0,0.0,0.0,0.0,0.0,0.0,0.0,0.0,0.0,0.0,0.0,0.0,0.0,0.0,0.0,0.0,0.0,0.0,0.0,0.0,0.0,0.0,0.0,0.0,0.0,0.0,0.0,0.0,0.0,0.0,0.0,0.0,0.0,0.0,0.0,0.0,0.0,0.0,0.0,0.0,0.0,0.0,0.0,0.0,0.0,0.0,0.0,0.0,0.0,0.0,0.0,0.0,0.0,0.0,0.0,0.0,0.0,0.0,0.0,0.0,0.0,0.0,0.0,0.0,0.0,0.0,0.0,0.0,0.0,0.0,0.0,0.0,0.0,0.0,0.0,0.0,0.0,0.0,0.0,0.0,0.0,0.0,0.0,0.0,0.0,0.0,0.0,0.0,0.0,0.0,0.0,0.0,0.0,0.0,0.0,0.0,0.0,0.0,0.0,0.0,0.0,0.0,0.0,0.0,0.0,0.0,0.0,0.0,0.0,0.0,0.0,0.0,0.0,0.0,0.0,0.0,0.0,0.0,0.0,0.0,0.0,0.0,0.0,0.0,0.0,0.0,0.0,0.0,0.0,0.0,0.0,0.0,0.0,0.0,0.0,0.0,0.0,0.0,0.0,0.0,0.0,0.0,0.0,0.0,0.0,0.0,0.0,0.0,0.0,0.0,0.0,0.0,0.0,0.0,0.0,0.0,0.0,0.0,0.0,0.0,0.0,0.0,0.0,0.0,0.0,0.0,0.0,0.0,0.0,0.0,0.0,0.0,0.0,0.0,0.0,0.0,0.0,0.0,0.0,0.0,0.0,0.0,0.0,0.0,0.0,0.0,0.0,0.0,0.0,0.0,0.0,0.0,0.0,0.0,0.0,0.0,0.0,0.0,0.0,0.0,0.0,0.0,0.0,0.0,0.0,0.0,0.0,0.0,0.0,0.0,0.0,0.0,0.0,0.0,0.0,0.0,0.0,0.0,0.0,0.0,0.0,0.0,0.0,0.0,0.0,0.0,0.0,0.0,0.0,0.0,0.0,0.0,0.0,0.0,0.0,0.0,0.0,0.0,0.0,0.0,0.0,0.0,0.0,0.0,0.0,0.0,0.0,0.0,0.0,0.0,0.0,0.0,0.0,0.0,0.0,0.0,0.0,0.0,0.0,0.0,0.0,0.0,0.0,0.0,0.0,0.0,0.0,0.0,0.0,0.0,0.0,0.0,0.0,0.0,0.0,0.0,0.0,0.0,0.0,0.0,0.0,0.0,0.0,0.0,0.0,0.0,0.0,0.0,0.0,0.0,0.0,0.0,0.0,0.0,0.0,0.0,0.0,0.0,0.0,0.0,0.0,0.0,0.0,0.0,0.0,0.0,0.0,0.0,0.0,0.0,0.0,0.0,0.0,0.0,0.0,0.0,0.0,0.0,0.0,0.0,0.0,0.0,0.0,0.0,0.0,0.0,0.0,0.0,0.0,0.0,0.0,0.0,0.0,0.0,0.0,0.0,0.0,0.0,0.0,0.0,0.0,0.0,0.0,0.0,0.0,0.0,0.0,0.0,0.0,0.0,0.0,0.0,0.0,0.0,0.0,0.0,0.0,0.0,0.0,0.0,0.0,0.0,0.0,0.0,0.0,0.0,0.0,0.0,0.0,0.0,0.0,0.0,0.0,0.0,0.0,0.0,0.0,0.0,0.0,0.0,0.0,0.0,0.0,0.0,0.0,0.0,0.0,0.0,0.0,0.0,0.0,0.0,0.0,0.0,0.0,0.0,0.0,0.0,0.0,0.0,0.0,0.0,0.0,0.0,0.0,0.0,0.0,0.0,0.0,0.0,0.0,0.0,0.0,0.0,0.0,0.0,0.0,0.0,0.0,0.0,0.0,0.0,0.0,0.0,0.0,0.0,0.0,0.0,0.0,0.0,0.0,0.0,0.0,0.0,0.0,0.0,0.0,0.0,0.0,0.0,0.0,0.0,0.0,0.0,0.0,0.0,0.0,0.0,0.0,0.0,0.0,0.0,0.0,0.0,0.0,0.0,0.0,0.0,0.0,0.0,0.0,0.0,0.0,0.0,0.0,0.0,0.0,0.0,0.0,0.0,0.0,0.0,0.0,0.0,0.0,0.0,0.0,0.0,0.0,0.0,0.0,0.0,0.0,0.0,0.0,0.0,0.0,0.0,0.0,0.0,0.0,0.0,0.0,0.0,0.0,0.0,0.0,0.0,0.0,0.0,0.0,0.0,0.0,0.0,0.0,0.0,0.0,0.0,0.0,0.0,0.0,0.0,0.0,0.0,0.0,0.0,0.0,0.0,0.0,0.0,0.0,0.0,0.0,0.0,0.0,0.0,0.0,0.0,0.0,0.0,0.0,0.0,0.0,0.0,0.0,0.0,0.0,0.0,0.0,0.0,0.0,0.0,0.0,0.0,0.0,0.0,0.0,0.0,0.0,0.0,0.0,0.0,0.0,0.0,0.0,0.0,0.0,0.0,0.0,0.0,0.0,0.0,0.0,0.0,0.0,0.0,0.0,0.0,0.0,0.0,0.0,0.0,0.0,0.0,0.0,0.0,0.0,0.0,0.0,0.0,0.0,0.0,0.0,0.0,0.0,0.0,0.0,0.0,0.0,0.0,0.0,0.0,0.0,0.0,0.0,0.0,0.0,0.0,0.0,0.0,0.0,0.0,0.0,0.0,0.0,0.0,0.0,0.0,0.0,0.0,0.0,0.0,0.0,0.0,0.0,0.0,0.0,0.0,0.0,0.0,0.0,0.0,0.0,0.0,0.0,0.0,0.0,0.0,0.0,0.0,0.0,0.0,0.0,0.0,0.0,0.0,0.0,0.0,0.0,0.0,0.0,0.0,0.0,0.0,0.0,0.0,0.0,0.0,0.0,0.0,0.0,0.0,0.0,0.0,0.0,0.0,0.0,0.0,0.0,0.0,0.0,0.0,0.0,0.0,0.0,0.0,0.0,0.0,0.0,0.0,0.0,0.0,0.0,0.0,0.0,0.0,0.0,0.0,0.0,0.0,0.0,0.0,0.0,0.0,0.0,0.0,0.0,0.0,0.0,0.0,0.0,0.0,0.0,0.0,0.0,0.0,0.0,0.0,0.0,0.0,0.0,0.0,0.0,0.0,0.0,0.0,0.0,0.0,0.0,0.0,0.0,0.0,0.0,0.0,0.0,0.0,0.0,0.0,0.0,0.0,0.0,0.0,0.0,0.0,-0.5424,0.0,0.0,0.0,0.0,0.0,0.0,0.0,0.0,0.0,0.0,0.0,0.0,0.0,0.0,0.0,0.0,0.0,0.0,0.0,0.0,0.0,0.0,0.0,0.0,0.0,0.0,0.0,0.0,0.0,0.0,0.0,0.0,0.0,0.0,0.0,0.0,0.0,0.0,0.0,0.0,0.0,0.0,0.0,0.0,0.0,0.0,0.0,0.0,0.0,0.0,0.0,0.0,0.0,0.0,0.0,0.0,0.0,0.0,0.0,0.0,0.0,0.0,0.0,0.0,0.0,0.0,0.0,0.0,0.0,0.0,0.0,0.0,0.0,0.0,0.0,0.0,0.0,0.0,0.0,0.0,0.0,0.0,0.0,0.0,0.0,0.0,0.0,0.0,0.0,0.0,0.0,0.0,0.0,0.0,0.0,0.0,0.0,0.0,0.0,0.0,0.0,0.0,0.0,0.0,0.0,0.0,0.0,0.0,0.0,0.0,-0.4797,-0.527,-0.5344,-0.5583,-0.6072,0.0,0.0,0.0,0.0,0.0,0.0,0.0,0.0,0.0,0.0,0.0,0.0,0.0,0.0,0.0,0.0,0.0,0.0,0.0,0.0,0.0,0.0,0.0,0.0,0.0,0.0,0.0,0.0,0.0,0.0,0.0,0.0,0.0,0.0,0.0,0.0,0.0,0.0,0.0,0.0,0.0,0.0,0.0,0.0,0.0,0.0,0.0,0.0,0.0,0.0,0.0,0.0,0.0,0.0,0.0,0.0,0.0,0.0,0.0,0.0,0.0,0.0,0.0,0.0,0.0,0.0,0.0,0.0,0.0,0.0,0.0,0.0,0.0,0.0,0.0,0.0,0.0,0.0,0.0,0.0,0.0,0.0,0.0,0.0,0.0,0.0,0.0,0.0,0.0,0.0,0.0,0.0,0.0,0.0,0.0,0.0,0.0,0.0,0.0,0.0,0.0,0.0,0.0,0.0,0.0,0.0,0.0,0.0,0.0,0.0,0.0,0.0,-0.6041,-0.6393,-0.6811,0.0,0.0,0.0,0.0,0.0,0.0,0.0,0.0,0.0,0.0,0.0,0.0,0.0,0.0,0.0,0.0,0.0,0.0,0.0,0.0,0.0,0.0,0.0,0.0,0.0,0.0,0.0,0.0,0.0,0.0,0.0,0.0,0.0,0.0,0.0,0.0,0.0,0.0,0.0,0.0,0.0,0.0,0.0,0.0,0.0,0.0,0.0,0.0,0.0,0.0,0.0,0.0,0.0,0.0,0.0,0.0,0.0,0.0,0.0,0.0,0.0,0.0,0.0,0.0,0.0,0.0,0.0,0.0,0.0,0.0,0.0,0.0,0.0,0.0,0.0,0.0,0.0,0.0,0.0,0.0,0.0,0.0,0.0,0.0,0.0,0.0,0.0,0.0,0.0,0.0,0.0,0.0,0.0,0.0,0.0,0.0,0.0,0.0,0.0,0.0,0.0,0.0,0.0,0.0,0.0,0.0,0.0,0.0,0.0,0.0,-0.6067,-0.6654,-0.6911,0.0,-0.7501,0.0,0.0,0.0,0.0,0.0,0.0,0.0,0.0,0.0,0.0,0.0,0.0,0.0,0.0,0.0,0.0,0.0,0.0,0.0,0.0,0.0,0.0,0.0,0.0,0.0,0.0,0.0,0.0,0.0,0.0,0.0,0.0,0.0,0.0,0.0,0.0,0.0,0.0,0.0,0.0,0.0,0.0,0.0,0.0,0.0,0.0,0.0,0.0,0.0,0.0,0.0,0.0,0.0,0.0,0.0,0.0,0.0,0.0,0.0,0.0,0.0,0.0,0.0,0.0,0.0,0.0,0.0,0.0,0.0,0.0,0.0,0.0,0.0,0.0,0.0,0.0,0.0,0.0,0.0,0.0,0.0,0.0,0.0,0.0,0.0,0.0,0.0,0.0,0.0,0.0,0.0,0.0,0.0,0.0,0.0,0.0,0.0,0.0,0.0,0.0,0.0,0.0,0.0,0.0,0.0,0.0,0.0,0.0,0.0,0.0,0.0,-0.6543,-0.7148,-0.765,0.0,0.0,0.0,0.0,0.0,0.0,0.0,0.0,0.0,0.0,0.0,0.0,0.0,0.0,0.0,0.0,0.0,0.0,0.0,0.0,0.0,0.0,0.0,0.0,0.0,0.0,0.0,0.0,0.0,0.0,0.0,0.0,0.0,0.0,0.0,0.0,0.0,0.0,0.0,0.0,0.0,0.0,0.0,0.0,0.0,0.0,0.0,0.0,0.0,0.0,0.0,0.0,0.0,0.0,0.0,0.0,0.0,0.0,0.0,0.0,0.0,0.0,0.0,0.0,0.0,0.0,0.0,0.0,0.0,0.0,0.0,0.0,0.0,0.0,0.0,0.0,0.0,0.0,0.0,0.0,0.0,0.0,0.0,0.0,0.0,0.0,0.0,0.0,0.0,0.0,0.0,0.0,0.0,0.0,0.0,0.0,0.0,0.0,0.0,0.0,0.0,0.0,0.0,0.0,0.0,0.0,0.0,0.0,0.0,0.0,-0.6429,0.0,-0.7379,-0.7965,-0.8325,-0.8366,0.0,0.0,0.0,0.0,0.0,0.0,0.0,0.0,0.0,0.0,0.0,0.0,0.0,0.0,0.0,0.0,0.0,0.0,0.0,0.0,0.0,0.0,0.0,0.0,0.0,0.0,0.0,0.0,0.0,0.0,0.0,0.0,0.0,0.0,0.0,0.0,0.0,0.0,0.0,0.0,0.0,0.0,0.0,0.0,0.0,0.0,0.0,0.0,0.0,0.0,0.0,0.0,0.0,0.0,0.0,0.0,0.0,0.0,0.0,0.0,0.0,0.0,0.0,0.0,0.0,0.0,0.0,0.0,0.0,0.0,0.0,0.0,0.0,0.0,0.0,0.0,0.0,0.0,0.0,0.0,0.0,0.0,0.0,0.0,0.0,0.0,0.0,0.0,0.0,0.0,0.0,0.0,0.0,0.0,0.0,0.0,0.0,0.0,0.0,0.0,0.0,0.0,0.0,0.0,0.0,0.0,0.0,0.0,0.0,-0.7663,-0.8718,-0.9578,-0.9918,-0.9487,0.0,0.0,0.0,0.0,0.0,0.0,0.0,0.0,0.0,0.0,0.0,0.0,0.0,0.0,0.0,0.0,0.0,0.0,0.0,0.0,0.0,0.0,0.0,0.0,0.0,0.0,0.0,0.0,0.0,0.0,0.0,0.0,0.0,0.0,0.0,0.0,0.0,0.0,0.0,0.0,0.0,0.0,0.0,0.0,0.0,0.0,0.0,0.0,0.0,0.0,0.0,0.0,0.0,0.0,0.0,0.0,0.0,0.0,0.0,0.0,0.0,0.0,0.0,0.0,0.0,0.0,0.0,0.0,0.0,0.0,0.0,0.0,0.0,0.0,0.0,0.0,0.0,0.0,0.0,0.0,0.0,0.0,0.0,0.0,0.0,0.0,0.0,0.0,0.0,0.0,0.0,0.0,0.0,0.0,0.0,0.0,0.0,0.0,0.0,0.0,0.0,0.0,0.0,0.0,0.0,0.0,0.0,0.0,0.0,-0.6507,-0.7551,-0.8875,0.0,-0.9649,-0.9306,0.0,0.0,0.0,0.0,0.0,0.0,0.0,0.0,0.0,0.0,0.0,0.0,0.0,0.0,0.0,0.0,0.0,0.0,0.0,0.0,0.0,0.0,0.0,0.0,0.0,0.0,0.0,0.0,0.0,0.0,0.0,0.0,0.0,0.0,0.0,0.0,0.0,0.0,0.0,0.0,0.0,0.0,0.0,0.0,0.0,0.0,0.0,0.0,0.0,0.0,0.0,0.0,0.0,0.0,0.0,0.0,0.0,0.0,0.0,0.0,0.0,0.0,0.0,0.0,0.0,0.0,0.0,0.0,0.0,0.0,0.0,0.0,0.0,0.0,0.0,0.0,0.0,0.0,0.0,0.0,0.0,0.0,0.0,0.0,0.0,0.0,0.0,0.0,0.0,0.0,0.0,0.0,0.0,0.0,0.0,0.0,0.0,0.0,0.0,0.0,0.0,0.0,0.0,0.0,0.0,0.0,0.0,0.0,0.0,-0.7362,0.0,-0.9614,0.0,-1.0167,-0.9798,0.0,0.0,0.0,0.0,0.0,0.0,0.0,0.0,0.0,0.0,0.0,0.0,0.0,0.0,0.0,0.0,0.0,0.0,0.0,0.0,0.0,0.0,0.0,0.0,0.0,0.0,0.0,0.0,0.0,0.0,0.0,0.0,0.0,0.0,0.0,0.0,0.0,0.0,0.0,0.0,0.0,0.0,0.0,0.0,0.0,0.0,0.0,0.0,0.0,0.0,0.0,0.0,0.0,0.0,0.0,0.0,0.0,0.0,0.0,0.0,0.0,0.0,0.0,0.0,0.0,0.0,0.0,0.0,0.0,0.0,0.0,0.0,0.0,0.0,0.0,0.0,0.0,0.0,0.0,0.0,0.0,0.0,0.0,0.0,0.0,0.0,0.0,0.0,0.0,0.0,0.0,0.0,0.0,0.0,0.0,0.0,0.0,0.0,0.0,0.0,0.0,0.0,0.0,0.0,0.0,0.0,0.0,0.0,-0.7091,-0.9082,-1.0117,-1.1107,-1.2141,-1.1694,-1.1102,0.0,0.0,0.0,0.0,0.0,0.0,0.0,0.0,0.0,0.0,0.0,0.0,0.0,0.0,0.0,0.0,0.0,0.0,0.0,0.0,0.0,0.0,0.0,0.0,0.0,0.0,0.0,0.0,0.0,0.0,0.0,0.0,0.0,0.0,0.0,0.0,0.0,0.0,0.0,0.0,0.0,0.0,0.0,0.0,0.0,0.0,0.0,0.0,0.0,0.0,0.0,0.0,0.0,0.0,0.0,0.0,0.0,0.0,0.0,0.0,0.0,0.0,0.0,0.0,0.0,0.0,0.0,0.0,0.0,0.0,0.0,0.0,0.0,0.0,0.0,0.0,0.0,0.0,0.0,0.0,0.0,0.0,0.0,0.0,0.0,0.0,0.0,0.0,0.0,0.0,0.0,0.0,0.0,0.0,0.0,0.0,0.0,0.0,0.0,0.0,0.0,0.0,0.0,0.0,0.0,0.0,0.0,0.0,0.0,-0.8944,-1.0223,-1.1472,-1.2549,-1.2208,-1.1971,0.0,0.0,0.0,0.0,0.0,0.0,0.0,0.0,0.0,0.0,0.0,0.0,0.0,0.0,0.0,0.0,0.0,0.0,0.0,0.0,0.0,0.0,0.0,0.0,0.0,0.0,0.0,0.0,0.0,0.0,0.0,0.0,0.0,0.0,0.0,0.0,0.0,0.0,0.0,0.0,0.0,0.0,0.0,0.0,0.0,0.0,0.0,0.0,0.0,0.0,0.0,0.0,0.0,0.0,0.0,0.0,0.0,0.0,0.0,0.0,0.0,0.0,0.0,0.0,0.0,0.0,0.0,0.0,0.0,0.0,0.0,0.0,0.0,0.0,0.0,0.0,0.0,0.0,0.0,0.0,0.0,0.0,0.0,0.0,0.0,0.0,0.0,0.0,0.0,0.0,0.0,0.0,0.0,0.0,0.0,0.0,0.0,0.0,0.0,0.0,0.0,0.0,0.0,0.0,0.0,0.0,0.0,0.0,0.0,-1.0173,-1.1348,-1.2425,-1.3293,-1.2943,-1.2902,-1.3227,0.0,0.0,0.0,0.0,0.0,0.0,0.0,0.0,0.0,0.0,0.0,0.0,0.0,0.0,0.0,0.0,0.0,0.0,0.0,0.0,0.0,0.0,0.0,0.0,0.0,0.0,0.0,0.0,0.0,0.0,0.0,0.0,0.0,0.0,0.0,0.0,0.0,0.0,0.0,0.0,0.0,0.0,0.0,0.0,0.0,0.0,0.0,0.0,0.0,0.0,0.0,0.0,0.0,0.0,0.0,0.0,0.0,0.0,0.0,0.0,0.0,0.0,0.0,0.0,0.0,0.0,0.0,0.0,0.0,0.0,0.0,0.0,0.0,0.0,0.0,0.0,0.0,0.0,0.0,0.0,0.0,0.0,0.0,0.0,0.0,0.0,0.0,0.0,0.0,0.0,0.0,0.0,0.0,0.0,0.0,0.0,0.0,0.0,0.0,0.0,0.0,0.0,0.0,0.0,0.0,0.0,0.0,0.0,-1.2434,-1.3301,-1.3952,-1.4254,-1.3957,-1.391,0.0,0.0,0.0,0.0,0.0,0.0,0.0,0.0,0.0,0.0,0.0,0.0,0.0,0.0,0.0,0.0,0.0,0.0,0.0,0.0,0.0,0.0,0.0,0.0,0.0,0.0,0.0,0.0,0.0,0.0,0.0,0.0,0.0,0.0,0.0,0.0,0.0,0.0,0.0,0.0,0.0,0.0,0.0,0.0,0.0,0.0,0.0,0.0,0.0,0.0,0.0,0.0,0.0,0.0,0.0,0.0,0.0,0.0,0.0,0.0,0.0,0.0,0.0,0.0,0.0,0.0,0.0,0.0,0.0,0.0,0.0,0.0,0.0,0.0,0.0,0.0,0.0,0.0,0.0,0.0,0.0,0.0,0.0,0.0,0.0,0.0,0.0,0.0,0.0,0.0,0.0,0.0,0.0,0.0,0.0,0.0,0.0,0.0,0.0,0.0,0.0,0.0,0.0,0.0,0.0,0.0,0.0,0.0,0.0,-1.3141,-1.4873,-1.5646,-1.5303,-1.5536,-1.5529,0.0,0.0,0.0,0.0,0.0,0.0,0.0,0.0,0.0,0.0,0.0,0.0,0.0,0.0,0.0,0.0,0.0,0.0,0.0,0.0,0.0,0.0,0.0,0.0,0.0,0.0,0.0,0.0,0.0,0.0,0.0,0.0,0.0,0.0,0.0,0.0,0.0,0.0,0.0,0.0,0.0,0.0,0.0,0.0,0.0,0.0,0.0,0.0,0.0,0.0,0.0,0.0,0.0,0.0,0.0,0.0,0.0,0.0,0.0,0.0,0.0,0.0,0.0,0.0,0.0,0.0,0.0,0.0,0.0,0.0,0.0,0.0,0.0,0.0,0.0,0.0,0.0,0.0,0.0,0.0,0.0,0.0,0.0,0.0,0.0,0.0,0.0,0.0,0.0,0.0,0.0,0.0,0.0,0.0,0.0,0.0,0.0,0.0,0.0,0.0,0.0,0.0,0.0,0.0,0.0,0.0,0.0,0.0,-1.3459,-1.4471,-1.619,-1.6994,-1.6678,-1.6723,-1.6536,0.0,0.0,0.0,0.0,0.0,0.0,0.0,0.0,0.0,0.0,0.0,0.0,0.0,0.0,0.0,0.0,0.0,0.0,0.0,0.0,0.0,0.0,0.0,0.0,0.0,0.0,0.0,0.0,0.0,0.0,0.0,0.0,0.0,0.0,0.0,0.0,0.0,0.0,0.0,0.0,0.0,0.0,0.0,0.0,0.0,0.0,0.0,0.0,0.0,0.0,0.0,0.0,0.0,0.0,0.0,0.0,0.0,0.0,0.0,0.0,0.0,0.0,0.0,0.0,0.0,0.0,0.0,0.0,0.0,0.0,0.0,0.0,0.0,0.0,0.0,0.0,0.0,0.0,0.0,0.0,0.0,0.0,0.0,0.0,0.0,0.0,0.0,0.0,0.0,0.0,0.0,0.0,0.0,0.0,0.0,0.0,0.0,0.0,0.0,0.0,0.0,0.0,0.0,0.0,0.0,0.0,0.0,0.0,-1.4853,-1.5968,-1.7311,-1.8089,-1.8163,-1.7712,-1.7213,0.0,0.0,0.0,0.0,0.0,0.0,0.0,0.0,0.0,0.0,0.0,0.0,0.0,0.0,0.0,0.0,0.0,0.0,0.0,0.0,0.0,0.0,0.0,0.0,0.0,0.0,0.0,0.0,0.0,0.0,0.0,0.0,0.0,0.0,0.0,0.0,0.0,0.0,0.0,0.0,0.0,0.0,0.0,0.0,0.0,0.0,0.0,0.0,0.0,0.0,0.0,0.0,0.0,0.0,0.0,0.0,0.0,0.0,0.0,0.0,0.0,0.0,0.0,0.0,0.0,0.0,0.0,0.0,0.0,0.0,0.0,0.0,0.0,0.0,0.0,0.0,0.0,0.0,0.0,0.0,0.0,0.0,0.0,0.0,0.0,0.0,0.0,0.0,0.0,0.0,0.0,0.0,0.0,0.0,0.0,0.0,0.0,0.0,0.0,0.0,0.0,0.0,0.0,0.0,0.0,0.0,0.0,0.0,-1.5389,-1.6439,-1.7862,-1.8927,-1.9559,-1.8607,-1.8012,0.0,0.0,0.0,0.0,0.0,0.0,0.0,0.0,0.0,0.0,0.0,0.0,0.0,0.0,0.0,0.0,0.0,0.0,0.0,0.0,0.0,0.0,0.0,0.0,0.0,0.0,0.0,0.0,0.0,0.0,0.0,0.0,0.0,0.0,0.0,0.0,0.0,0.0,0.0,0.0,0.0,0.0,0.0,0.0,0.0,0.0,0.0,0.0,-1.2363,0.0,0.0,0.0,0.0,0.0,0.0,0.0,0.0,0.0,0.0,0.0,0.0,0.0,0.0,0.0,0.0,0.0,0.0,0.0,0.0,0.0,0.0,0.0,0.0,0.0,0.0,0.0,0.0,0.0,0.0,0.0,0.0,0.0,0.0,0.0,0.0,0.0,0.0,0.0,0.0,0.0,0.0,0.0,0.0,0.0,0.0,0.0,0.0,0.0,0.0,0.0,0.0,0.0,0.0,0.0,0.0,0.0,0.0,0.0,-1.6489,-1.7249,-1.8657,-1.9552,-1.9953,-1.9309,-1.8627,0.0,0.0,0.0,0.0,0.0,0.0,0.0,0.0,0.0,0.0,0.0,0.0,0.0,0.0,0.0,0.0,0.0,0.0,0.0,0.0,0.0,0.0,0.0,0.0,0.0,0.0,0.0,0.0,0.0,0.0,0.0,0.0,0.0,0.0,0.0,0.0,0.0,0.0,0.0,0.0,0.0,0.0,0.0,0.0,0.0,0.0,0.0,0.0,0.0,0.0,0.0,0.0,0.0,0.0,0.0,0.0,0.0,0.0,0.0,0.0,0.0,0.0,0.0,0.0,0.0,0.0,0.0,0.0,0.0,0.0,0.0,0.0,0.0,0.0,0.0,0.0,0.0,0.0,0.0,0.0,0.0,0.0,0.0,0.0,0.0,0.0,0.0,0.0,0.0,0.0,0.0,0.0,0.0,0.0,0.0,0.0,0.0,0.0,0.0,0.0,0.0,0.0,0.0,0.0,0.0,0.0,0.0,-1.5997,-1.7482,-1.8106,-1.9345,-2.0042,-2.008,-1.9794,-1.9033,-1.7842,0.0,0.0,0.0,0.0,0.0,0.0,0.0,0.0,0.0,0.0,0.0,0.0,0.0,0.0,0.0,0.0,0.0,0.0,0.0,0.0,0.0,0.0,0.0,0.0,0.0,0.0,0.0,0.0,0.0,0.0,0.0,0.0,0.0,0.0,0.0,0.0,0.0,0.0,-1.1923,-1.2507,0.0,0.0,0.0,0.0,0.0,0.0,0.0,0.0,-1.3546,0.0,0.0,0.0,0.0,0.0,0.0,0.0,0.0,0.0,0.0,0.0,0.0,0.0,0.0,0.0,0.0,0.0,0.0,0.0,0.0,0.0,0.0,0.0,0.0,0.0,0.0,0.0,0.0,0.0,0.0,0.0,0.0,0.0,0.0,0.0,0.0,0.0,0.0,0.0,0.0,0.0,0.0,0.0,0.0,0.0,0.0,0.0,0.0,0.0,0.0,0.0,0.0,0.0,0.0,0.0,0.0,-1.4231,-1.5812,-1.7231,-1.8485,-1.9497,-2.0207,-2.056,-1.996,-1.9119,-1.8149,0.0,0.0,0.0,0.0,0.0,0.0,0.0,0.0,0.0,0.0,0.0,0.0,0.0,0.0,0.0,0.0,0.0,0.0,0.0,0.0,0.0,0.0,0.0,0.0,0.0,0.0,0.0,0.0,0.0,0.0,0.0,0.0,0.0,0.0,0.0,0.0,0.0,0.0,0.0,-1.3766,-1.4742,0.0,0.0,0.0,0.0,0.0,0.0,0.0,0.0,-1.4373,0.0,0.0,0.0,0.0,0.0,0.0,0.0,0.0,0.0,0.0,0.0,0.0,0.0,0.0,0.0,0.0,0.0,0.0,0.0,0.0,0.0,0.0,0.0,0.0,0.0,0.0,0.0,0.0,0.0,0.0,0.0,0.0,0.0,0.0,0.0,0.0,0.0,0.0,0.0,0.0,0.0,0.0,0.0,0.0,0.0,0.0,0.0,0.0,0.0,0.0,0.0,0.0,0.0,0.0,0.0,-1.4418,-1.6289,-1.7677,-1.8598,-1.9762,-2.0429,-2.0505,-1.9781,-1.8976,0.0,0.0,0.0,0.0,0.0,0.0,0.0,0.0,0.0,0.0,0.0,0.0,0.0,0.0,0.0,0.0,0.0,0.0,0.0,0.0,0.0,0.0,0.0,0.0,0.0,0.0,0.0,0.0,0.0,0.0,0.0,0.0,0.0,0.0,0.0,0.0,0.0,0.0,0.0,0.0,-1.3842,-1.4823,-1.5429,0.0,0.0,0.0,0.0,0.0,0.0,-1.5131,-1.5062,0.0,0.0,0.0,0.0,0.0,0.0,0.0,0.0,0.0,0.0,0.0,0.0,0.0,0.0,0.0,0.0,0.0,0.0,0.0,0.0,0.0,0.0,0.0,0.0,0.0,0.0,0.0,0.0,0.0,0.0,0.0,0.0,0.0,0.0,0.0,0.0,0.0,0.0,0.0,0.0,0.0,0.0,0.0,0.0,0.0,0.0,0.0,0.0,0.0,0.0,0.0,0.0,0.0,0.0,0.0,-1.4386,-1.649,-1.782,-1.8387,-1.9641,-2.0254,-2.008,-1.9525,-1.8798,0.0,0.0,0.0,0.0,0.0,0.0,0.0,0.0,0.0,0.0,0.0,0.0,0.0,0.0,0.0,0.0,0.0,0.0,0.0,0.0,0.0,0.0,0.0,0.0,0.0,0.0,0.0,0.0,0.0,0.0,0.0,0.0,0.0,0.0,0.0,0.0,0.0,0.0,0.0,0.0,0.0,-1.5097,-1.5911,-1.6134,0.0,0.0,0.0,0.0,-1.5602,-1.582,0.0,0.0,0.0,0.0,0.0,0.0,0.0,0.0,0.0,0.0,0.0,0.0,0.0,0.0,0.0,0.0,0.0,0.0,0.0,0.0,0.0,0.0,0.0,0.0,0.0,0.0,0.0,0.0,0.0,0.0,0.0,0.0,0.0,0.0,0.0,0.0,0.0,0.0,0.0,0.0,0.0,0.0,0.0,0.0,0.0,0.0,0.0,0.0,0.0,0.0,0.0,0.0,0.0,0.0,0.0,0.0,-1.4132,-1.5654,-1.6841,-1.765,-1.8577,-1.9068,-1.9081,-1.922,-1.8665,0.0,0.0,0.0,0.0,0.0,0.0,0.0,0.0,0.0,0.0,0.0,0.0,0.0,0.0,0.0,0.0,0.0,0.0,0.0,0.0,0.0,0.0,0.0,0.0,0.0,0.0,0.0,0.0,0.0,0.0,0.0,0.0,0.0,0.0,0.0,0.0,0.0,0.0,0.0,0.0,0.0,-1.7039,-1.6577,-1.6889,-1.7152,0.0,0.0,0.0,-1.6979,-1.6795,0.0,0.0,0.0,0.0,0.0,0.0,0.0,0.0,0.0,0.0,0.0,0.0,0.0,0.0,0.0,0.0,0.0,0.0,0.0,0.0,0.0,0.0,0.0,0.0,0.0,0.0,0.0,0.0,0.0,0.0,0.0,0.0,0.0,0.0,0.0,0.0,0.0,0.0,0.0,0.0,0.0,0.0,0.0,0.0,0.0,0.0,0.0,0.0,0.0,0.0,0.0,0.0,0.0,0.0,0.0,-1.3614,-1.4341,-1.5874,-1.6953,-1.7505,-1.8429,-1.8877,-1.8812,-1.8769,-1.824,0.0,0.0,0.0,0.0,0.0,0.0,0.0,0.0,0.0,0.0,0.0,0.0,0.0,0.0,0.0,0.0,0.0,0.0,0.0,0.0,0.0,0.0,0.0,0.0,0.0,0.0,0.0,0.0,0.0,0.0,0.0,0.0,0.0,0.0,0.0,0.0,0.0,0.0,0.0,0.0,0.0,0.0,-1.7673,-1.7745,0.0,0.0,0.0,-1.7223,-1.7625,0.0,0.0,0.0,0.0,0.0,0.0,0.0,0.0,0.0,0.0,0.0,0.0,0.0,0.0,0.0,0.0,0.0,0.0,0.0,0.0,0.0,0.0,0.0,0.0,0.0,0.0,0.0,0.0,0.0,0.0,0.0,0.0,0.0,0.0,0.0,0.0,0.0,0.0,0.0,0.0,0.0,0.0,0.0,0.0,0.0,0.0,0.0,0.0,0.0,0.0,0.0,0.0,0.0,0.0,0.0,0.0,0.0,-1.4578,-1.6132,-1.7067,-1.7434,-1.8111,-1.8447,-1.8352,-1.8221,0.0,0.0,0.0,0.0,0.0,0.0,0.0,0.0,0.0,0.0,0.0,0.0,0.0,0.0,0.0,0.0,0.0,0.0,0.0,0.0,0.0,0.0,0.0,0.0,0.0,0.0,0.0,-1.1005,0.0,0.0,0.0,0.0,0.0,0.0,0.0,0.0,0.0,0.0,0.0,0.0,0.0,0.0,-1.7543,-1.8449,-1.8422,-1.8432,0.0,0.0,-1.7992,-1.8031,-1.8204,-1.8056,0.0,0.0,0.0,0.0,0.0,0.0,0.0,0.0,0.0,0.0,0.0,0.0,0.0,0.0,0.0,0.0,0.0,0.0,0.0,0.0,0.0,0.0,0.0,0.0,0.0,0.0,0.0,0.0,0.0,0.0,0.0,0.0,0.0,0.0,0.0,0.0,0.0,0.0,0.0,0.0,0.0,0.0,0.0,0.0,0.0,0.0,0.0,0.0,0.0,0.0,0.0,0.0,0.0,0.0,0.0,-1.4707,-1.6023,-1.6871,-1.7209,-1.729,-1.7303,-1.7306,-1.7652,-1.7427,0.0,0.0,0.0,0.0,0.0,0.0,0.0,0.0,0.0,0.0,0.0,0.0,0.0,0.0,0.0,0.0,0.0,0.0,0.0,0.0,0.0,0.0,0.0,0.0,0.0,0.0,0.0,0.0,0.0,0.0,0.0,0.0,0.0,0.0,0.0,0.0,0.0,0.0,0.0,0.0,0.0,-1.8573,-1.861,-1.8933,-1.9233,0.0,0.0,-1.7958,-1.8412,-1.8081,-1.7673,-1.7426,0.0,0.0,0.0,0.0,0.0,0.0,0.0,0.0,0.0,0.0,0.0,0.0,0.0,0.0,0.0,0.0,0.0,0.0,0.0,0.0,0.0,0.0,0.0,0.0,0.0,0.0,0.0,0.0,0.0,0.0,0.0,0.0,0.0,0.0,0.0,0.0,0.0,0.0,0.0,0.0,0.0,0.0,0.0,0.0,0.0,0.0,0.0,0.0,0.0,0.0,0.0,0.0,0.0,-1.4279,-1.5184,-1.6204,-1.685,-1.7199,-1.7212,-1.7212,-1.7212,-1.7868,-1.7696,0.0,0.0,0.0,0.0,0.0,0.0,0.0,0.0,0.0,0.0,0.0,0.0,0.0,0.0,0.0,0.0,0.0,0.0,0.0,0.0,0.0,0.0,0.0,0.0,0.0,0.0,0.0,0.0,-1.3625,-1.4428,-1.4794,0.0,0.0,0.0,0.0,0.0,0.0,0.0,0.0,0.0,0.0,-1.9502,-1.9848,-1.9787,0.0,0.0,-1.9611,-1.9183,-1.9315,-1.8805,-1.829,-1.79,-1.7586,0.0,0.0,0.0,0.0,0.0,0.0,0.0,0.0,0.0,0.0,0.0,0.0,0.0,0.0,0.0,0.0,0.0,0.0,0.0,0.0,0.0,0.0,0.0,0.0,0.0,0.0,0.0,0.0,0.0,0.0,0.0,0.0,0.0,0.0,0.0,0.0,0.0,0.0,0.0,0.0,0.0,0.0,0.0,0.0,0.0,0.0,0.0,0.0,0.0,0.0,0.0,0.0,-1.4497,-1.5361,-1.6355,-1.6934,-1.7199,-1.7212,-1.7212,-1.7253,-1.7787,-1.7625,0.0,0.0,0.0,0.0,0.0,0.0,0.0,0.0,0.0,0.0,0.0,0.0,0.0,0.0,0.0,0.0,0.0,0.0,0.0,0.0,0.0,0.0,0.0,0.0,0.0,0.0,0.0,0.0,-1.4114,-1.4768,-1.5173,0.0,0.0,0.0,0.0,0.0,0.0,0.0,0.0,0.0,0.0,-2.0205,-2.066,-2.0435,-2.0321,-2.0649,-2.0293,-1.9872,-1.9804,-1.9303,-1.878,-1.8401,0.0,0.0,0.0,0.0,0.0,0.0,0.0,0.0,0.0,0.0,0.0,0.0,0.0,0.0,0.0,0.0,0.0,0.0,0.0,0.0,0.0,0.0,0.0,0.0,0.0,0.0,0.0,0.0,0.0,0.0,0.0,0.0,0.0,0.0,0.0,0.0,0.0,0.0,0.0,0.0,0.0,0.0,0.0,0.0,0.0,0.0,0.0,0.0,0.0,0.0,0.0,0.0,0.0,0.0,-1.5133,-1.649,-1.7212,-1.7212,-1.7212,-1.7212,-1.7212,-1.724,-1.7102,-1.6802,0.0,0.0,0.0,0.0,0.0,0.0,0.0,0.0,0.0,0.0,0.0,0.0,0.0,0.0,0.0,0.0,0.0,0.0,0.0,0.0,0.0,0.0,0.0,0.0,0.0,0.0,-1.4467,-1.4572,-1.4598,0.0,0.0,0.0,0.0,0.0,0.0,0.0,0.0,0.0,0.0,-2.027,-2.0686,-2.0699,-2.0712,-2.0699,-2.0699,-2.0205,-1.9826,-1.9812,-1.9303,-1.8898,0.0,0.0,0.0,0.0,0.0,0.0,0.0,0.0,0.0,0.0,0.0,0.0,0.0,0.0,0.0,0.0,0.0,0.0,0.0,0.0,0.0,0.0,0.0,0.0,0.0,0.0,0.0,-1.0728,-1.0524,0.0,0.0,0.0,0.0,0.0,0.0,0.0,0.0,0.0,0.0,0.0,-1.173,-1.1938,0.0,0.0,0.0,0.0,0.0,0.0,0.0,0.0,0.0,0.0,0.0,0.0,-1.4904,-1.5375,-1.6583,-1.7212,-1.7212,-1.7212,-1.7212,-1.7212,-1.7434,-1.7503,-1.7249,0.0,0.0,0.0,0.0,0.0,0.0,0.0,0.0,0.0,0.0,0.0,0.0,0.0,0.0,0.0,0.0,0.0,0.0,0.0,0.0,0.0,0.0,0.0,0.0,0.0,-1.3997,0.0,0.0,0.0,0.0,0.0,0.0,0.0,0.0,0.0,0.0,0.0,-1.9512,-2.027,-2.0858,-2.1093,-2.0751,-2.0699,-2.0699,0.0,0.0,0.0,0.0,0.0,0.0,0.0,0.0,0.0,0.0,0.0,0.0,0.0,0.0,-2.058,-1.8681,-1.814,-1.8018,-1.8133,0.0,0.0,0.0,0.0,0.0,0.0,0.0,0.0,0.0,0.0,0.0,0.0,0.0,0.0,0.0,0.0,-1.1186,0.0,0.0,0.0,0.0,0.0,0.0,0.0,0.0,-1.2452,-1.2635,-1.2516,-1.2816,-1.2617,0.0,-1.2897,-1.2898,0.0,0.0,0.0,0.0,0.0,0.0,0.0,0.0,-1.5219,-1.5634,-1.6553,-1.706,-1.7199,-1.7212,-1.7212,-1.7212,-1.7434,-1.7437,-1.7139,-1.6789,-1.633,0.0,0.0,0.0,0.0,0.0,0.0,0.0,0.0,0.0,0.0,0.0,0.0,0.0,0.0,0.0,0.0,0.0,0.0,0.0,0.0,0.0,0.0,0.0,-1.4441,0.0,0.0,0.0,0.0,0.0,0.0,0.0,0.0,0.0,-1.942,-2.0022,-2.061,-2.1223,-2.1577,-2.1616,-2.1028,0.0,0.0,0.0,0.0,0.0,0.0,0.0,-2.0706,-2.0312,-2.0686,-2.1099,-2.1233,-2.195,-2.2373,-2.2166,0.0,0.0,-2.0119,-1.9627,-1.9543,-1.9754,-1.995,-2.0203,-2.0611,-2.0753,-2.0853,0.0,0.0,0.0,0.0,0.0,0.0,0.0,0.0,-1.159,-1.1801,0.0,-1.1728,0.0,0.0,0.0,0.0,0.0,0.0,0.0,0.0,-1.3488,-1.3681,-1.3341,-1.3387,-1.3368,-1.3386,-1.3979,-1.4027,-1.3505,-1.3651,0.0,0.0,0.0,0.0,0.0,0.0,-1.5215,-1.5762,-1.6376,-1.6892,-1.7157,-1.7199,-1.7212,-1.7212,-1.7199,-1.7005,-1.6494,-1.6664,-1.6561,-1.6032,-1.518,0.0,0.0,0.0,0.0,0.0,0.0,0.0,0.0,0.0,0.0,0.0,0.0,0.0,0.0,0.0,0.0,0.0,0.0,0.0,0.0,-1.55,0.0,0.0,0.0,0.0,0.0,0.0,0.0,0.0,0.0,0.0,-2.0841,-2.1275,-2.176,-2.2363,0.0,0.0,0.0,0.0,-2.0961,-2.1511,-2.1538,-2.1786,-2.231,-2.2658,-2.2791,-2.2791,0.0,0.0,-2.3266,-2.3527,-2.3474,-2.2893,-2.2951,-2.2915,-2.2269,-2.1622,-2.1471,-2.1945,-2.1654,-2.1358,-2.1344,-2.1403,-2.1409,-1.3598,0.0,0.0,0.0,0.0,-1.2727,-1.2938,-1.3195,-1.3204,-1.3103,-1.2938,-1.2828,0.0,0.0,0.0,0.0,0.0,0.0,-1.3037,-1.3534,-1.3772,-1.3983,-1.4157,-1.4601,-1.4657,-1.4405,-1.5361,-1.5601,-1.52,-1.5553,-1.5028,-1.3656,0.0,0.0,0.0,0.0,-1.5517,-1.5513,-1.6526,-1.6976,-1.685,-1.7073,-1.7212,-1.7212,-1.7212,-1.7133,-1.6977,-1.7073,-1.6837,-1.6296,-1.6214,0.0,0.0,0.0,0.0,0.0,0.0,0.0,0.0,0.0,0.0,0.0,0.0,0.0,0.0,0.0,0.0,0.0,0.0,0.0,-1.5421,-1.55,-1.5824,0.0,0.0,0.0,0.0,0.0,0.0,0.0,0.0,0.0,-2.299,-2.2895,-2.2779,0.0,0.0,-2.3108,-2.2498,-2.2509,-2.2625,-2.2748,0.0,0.0,0.0,-2.3122,-2.3175,-2.3175,-2.3385,-2.3606,-2.3606,-2.3812,-2.3895,-2.3699,-2.3357,-2.3027,-2.2859,-2.2339,-2.2002,-2.2128,-2.203,-2.1931,-2.1978,-2.2009,-2.2119,-1.5056,-1.4222,-1.391,-1.3782,-1.38,-1.3937,-1.4139,-1.435,-1.4203,-1.4084,-1.3983,-1.3671,-1.3259,-1.2782,-1.2626,0.0,0.0,0.0,-1.3497,-1.413,-1.413,-1.4375,-1.4834,-1.5245,-1.5379,-1.5441,-1.6158,-1.6372,-1.614,-1.6463,-1.6015,-1.4832,0.0,0.0,-1.4771,-1.5283,-1.5502,-1.5484,-1.6333,-1.6778,-1.671,-1.7018,-1.7212,-1.7212,-1.7212,-1.7212,-1.7212,-1.7212,-1.7042,-1.6728,-1.6665,-1.6051,0.0,0.0,0.0,0.0,0.0,0.0,0.0,0.0,0.0,0.0,0.0,-1.4159,0.0,0.0,0.0,0.0,-1.532,-1.5879,-1.6467,-1.6715,0.0,0.0,0.0,0.0,0.0,0.0,0.0,-2.2165,-2.2737,-2.3232,-2.396,-2.4023,-2.3904,-2.3891,-2.3872,-2.3688,-2.3393,0.0,-2.3362,-2.3579,-2.3634,-2.3702,-2.3946,-2.4122,-2.4216,-2.4309,-2.4468,-2.4574,-2.4574,-2.4679,-2.4699,-2.4446,-2.4095,-2.3772,-2.3568,-2.3168,-2.2746,-2.2283,-2.217,-2.217,-2.217,-2.2324,-2.2523,-1.6138,-1.5725,-1.501,-1.4671,-1.4643,-1.4992,-1.5148,-1.512,-1.4763,-1.4818,-1.5084,-1.435,-1.4029,-1.4002,-1.3644,0.0,0.0,-1.3992,-1.4185,-1.4552,-1.4584,-1.4852,-1.541,-1.5468,-1.5864,-1.6358,-1.6558,-1.6622,-1.6664,-1.6712,-1.6688,-1.6676,-1.6256,-1.6003,-1.5946,-1.5533,-1.5405,-1.5721,-1.6191,-1.6504,-1.6799,-1.7086,-1.7212,-1.7212,-1.7199,-1.7212,-1.7212,-1.7212,-1.7199,-1.7186,-1.6728,-1.6179,-1.5578,0.0,0.0,0.0,0.0,0.0,0.0,0.0,0.0,0.0,0.0,0.0,0.0,0.0,0.0,0.0,-1.6611,0.0,-1.8166,-1.8689,0.0,0.0,0.0,-2.027,-2.1025,-2.1957,-2.2707,-2.3031,0.0,0.0,0.0,0.0,-2.5061,-2.5061,-2.4572,-2.4205,-2.4205,-2.385,-2.3659,-2.4245,-2.4259,-2.4463,-2.4955,-2.5259,-2.5481,-2.5672,-2.5893,-2.5837,-2.5823,-2.5823,-2.5626,-2.5149,-2.5008,-2.4797,-2.4272,-2.4103,-2.3766,-2.2578,-2.2311,-2.2269,-2.2297,-2.2544,-2.2726,-1.6716,-1.6606,-1.6413,-1.5982,-1.5423,-1.5505,-1.5542,-1.5542,-1.5441,-1.546,-1.5533,-1.5349,-1.5258,-1.5249,-1.5157,-1.5166,-1.5249,-1.4946,-1.4864,-1.4937,-1.5103,-1.5245,-1.5468,-1.6358,-1.6866,-1.7034,-1.75,-1.7739,-1.7727,-1.7721,-1.7729,-1.7706,-1.7278,-1.6841,-1.6463,-1.6629,-1.6764,-1.6896,-1.7486,-1.7804,-1.7748,-1.7392,-1.7212,-1.7212,-1.7115,-1.7086,-1.7199,-1.7031,-1.7044,-1.7199,-1.6998,-1.6632,-1.6205,-1.5487,0.0,0.0,0.0,0.0,0.0,0.0,0.0,0.0,0.0,-1.5526,-1.4493,0.0,-1.6023,0.0,-1.7212,-1.8296,-1.9303,-1.9512,0.0,0.0,-2.1931,-2.2564,-2.4428,-2.4273,-2.4396,-2.5422,-2.5396,-2.53,-2.5465,-2.5577,-2.5674,-2.5674,-2.5398,-2.5163,-2.5149,-2.5231,-2.5338,-2.5396,-2.5423,-2.5493,-2.5632,-2.5729,-2.5798,-2.5893,-2.5893,-2.5893,-2.5893,-2.5893,-2.5851,-2.5669,-2.5275,-2.4952,-2.4783,-2.4404,-2.4061,-2.3695,-2.3224,-2.2887,-2.2873,-2.3126,-2.3412,-1.7174,-1.7165,-1.7165,-1.6798,-1.623,-1.623,-1.623,-1.6221,-1.6046,-1.5964,-1.5955,-1.5771,-1.5689,-1.5689,-1.5689,-1.5689,-1.5661,-1.5276,-1.5111,-1.5074,-1.504,-1.5303,-1.5806,-1.6482,-1.709,-1.7611,-1.7963,-1.8084,-1.8084,-1.8084,-1.8084,-1.8084,-1.7863,-1.7576,-1.7301,-1.7055,-1.7032,-1.7326,-1.7786,-1.8109,-1.8183,-1.7804,-1.7591,-1.7492,-1.7245,-1.7073,-1.7128,-1.7073,-1.7073,-1.7199,-1.7128,-1.6868,-1.6428,-1.6088,-1.55,0.0,0.0,0.0,0.0,0.0,0.0,0.0,0.0,0.0,0.0,0.0,-1.7369,0.0,-1.895,0.0,-2.0858,-2.1172,-2.197,-2.358,-2.3638,-2.4253,-2.5921,-2.5627,-2.5665,-2.671,-2.6533,-2.6382,-2.668,-2.6736,-2.6722,-2.6736,-2.6623,-2.6329,-2.5813,-2.5798,-2.5893,-2.5893,-2.5893,-2.5893,-2.5893,-2.5893,-2.5893,-2.5893,-2.5893,-2.5893,-2.5893,-2.5893,-2.5893,-2.5865,-2.5612,-2.5388,-2.5374,-2.5135,-2.4864,-2.454,-2.4193,-2.3856,-2.3575,-2.3794,-2.4069,-1.7578,-1.7568,-1.7523,-1.7293,-1.6982,-1.6927,-1.6908,-1.6881,-1.6541,-1.6395,-1.6367,-1.601,-1.5845,-1.5845,-1.5845,-1.5845,-1.5826,-1.5441,-1.5258,-1.523,-1.4851,-1.5273,-1.6384,-1.6389,-1.7,-1.8084,-1.8084,-1.8084,-1.8084,-1.8084,-1.8084,-1.8084,-1.8084,-1.815,-1.8159,-1.7266,-1.702,-1.748,-1.78,-1.8149,-1.8396,-1.819,-1.8044,-1.7917,-1.7457,-1.7115,-1.7031,-1.7128,-1.7157,-1.7199,-1.7199,-1.699,-1.6519,-1.6428,-1.5931,0.0,-1.482,0.0,0.0,0.0,0.0,0.0,0.0,0.0,0.0,-1.8414,-1.895,-1.9943,-2.1054,-2.1943,-2.2481,-2.3054,-2.3851,-2.4891,-2.5166,-2.5638,-2.6347,-2.6537,-2.6783,-2.7432,-2.7423,-2.7499,-2.772,-2.7776,-2.7762,-2.7692,-2.7678,-2.7326,-2.6413,-2.6118,-2.6062,-2.6006,-2.5936,-2.5893,-2.5893,-2.5893,-2.5893,-2.5893,-2.5893,-2.5893,-2.5893,-2.5893,-2.5893,-2.5893,-2.5865,-2.5865,-2.5893,-2.5879,-2.5683,-2.5191,-2.5064,-2.4854,-2.4399,-2.4433,-2.4626,-1.8009,-1.7981,-1.7642,-1.7458,-1.7358,-1.7046,-1.6908,-1.6899,-1.6826,-1.6798,-1.6789,-1.6716,-1.667,-1.6679,-1.6679,-1.667,-1.6652,-1.6266,-1.6092,-1.6065,-1.5804,-1.6088,-1.677,-1.6924,-1.7379,-1.8084,-1.8084,-1.8084,-1.8084,-1.8084,-1.8084,-1.8084,-1.8084,-1.8247,0.0,0.0,0.0,0.0,-1.8783,-1.8955,-1.9014,-1.8442,-1.81,-1.803,-1.7385,0.0,-1.717,-1.7031,-1.7031,-1.7199,-1.7128,0.0,0.0,0.0,0.0,0.0,0.0,0.0,0.0,0.0,0.0,0.0,-1.9486,-1.9041,-1.8819,-2.0035,-2.0963,-2.1198,-2.2217,-2.2936,-2.3054,-2.4008,-2.4713,-2.4962,-2.6096,-2.693,-2.7363,-2.7701,-2.8022,-2.8386,-2.8026,-2.7717,-2.7818,-2.7776,-2.7804,-2.7846,-2.7776,-2.7692,-2.7467,-2.6975,-2.6652,-2.661,-2.6231,-2.5921,-2.5893,-2.5893,-2.5893,-2.5893,-2.5893,-2.5893,-2.5893,-2.5893,-2.5893,-2.5893,-2.5893,-2.5893,-2.5893,-2.5893,-2.5851,-2.5739,-2.5711,-2.5528,-2.499,-2.502,-2.5369,-1.8488,0.0,-1.8257,-1.7944,0.0,-1.7355,-1.7092,-1.6908,-1.6908,-1.6908,-1.6908,-1.6908,-1.6908,-1.6908,-1.6908,-1.6968,-1.7019,-1.6563,-1.6379,-1.6476,-1.6481,-1.6658,-1.6904,-1.7431,-1.7835,-1.8096,-1.8084,-1.8084,-1.8084,-1.8084,-1.8084,-1.8084,-1.8084,-1.8193,-1.8422,-1.8193,-1.8193,-1.8476,-1.8995,-1.9308,-1.9283,-1.905,-1.8761,-1.8442,0.0,0.0,0.0,0.0,0.0,0.0,0.0,0.0,0.0,0.0,0.0,-1.7617,-1.763,-1.7761,-1.8048,-1.861,-1.9316,-2.0165,-2.0767,-2.0963,-2.0636,-2.1681,-2.2479,-2.2779,-2.3341,-2.3772,-2.406,-2.4681,-2.5197,-2.5808,-2.6525,-2.7216,-2.8008,-2.8315,-2.8567,-2.9002,-2.8886,-2.8675,-2.8689,-2.8675,-2.8689,-2.8689,-2.8675,-2.8661,-2.8591,-2.7874,-2.72,-2.6877,-2.6582,-2.6231,-2.5964,-2.5893,-2.5893,-2.5893,-2.5893,-2.5893,-2.5893,-2.5893,-2.5893,-2.5893,-2.5893,-2.5893,-2.5893,-2.5893,-2.5893,-2.5893,-2.5893,-2.5823,-2.5486,-2.5643,-2.594,-1.897,-1.9114,-1.8896,-1.8443,-1.7903,-1.7675,-1.7346,-1.6908,0.0,0.0,0.0,-1.6899,-1.6978,-1.6968,-1.6978,-1.7107,-1.7217,-1.6773,-1.6682,-1.6911,-1.7066,-1.7174,-1.7277,-1.7897,-1.8137,-1.8096,-1.8084,-1.8084,-1.8084,-1.8084,-1.8084,-1.8084,-1.8084,-1.8084,-1.8084,-1.8084,-1.815,-1.8247,-1.8946,-1.9275,-1.9303,-1.9496,-1.9278,-1.878,-1.8364,-1.7834,-1.7269,-1.7427,-1.7499,-1.7499,-1.7499,-1.7721,-1.8205,-1.8244,-1.844,-1.8872,-1.9002,-1.9068,-1.9068,-1.9616,-2.0048,-2.0231,-2.1773,-2.2662,-2.2531,-2.3041,-2.3576,-2.4086,-2.4204,-2.4465,-2.4996,-2.5232,-2.5765,-2.6711,-2.6959,-2.7533,-2.8505,-2.8716,-2.9008,-2.9477,-2.956,-2.9602,-2.956,-2.9546,-2.9602,-2.9588,-2.9504,-2.9602,-2.9476,-2.8619,-2.765,-2.6975,-2.675,-2.6568,-2.6076,-2.5893,-2.5893,-2.5893,-2.5893,-2.5893,-2.5893,-2.5893,-2.5893,-2.5893,-2.5893,-2.5893,-2.5893,-2.5893,-2.5893,-2.5893,-2.5893,-2.5851,-2.5807,-2.5955,-2.6115,-1.9474,-1.9524,-1.9333,-1.8976,-1.8505,-1.8021,-1.7426,-1.6917,-1.6908,-1.6908,-1.6908,-1.7107,-1.7166,-1.7166,-1.7314,-1.7392,-1.7461,-1.7413,-1.7629,0.0,-1.7901,-1.8082,-1.8512,-1.8295,-1.8148,-1.8107,-1.8084,-1.8084,-1.8084,-1.8084,-1.8084,-1.8084,-1.8084,-1.8084,-1.8084,-1.8084,-1.8302,-1.8691,-1.8851,-1.8905,-1.8893,-1.8765,-1.8647,-1.8549,-1.8377,-1.8249,-1.8113,-1.8455,-1.8662,-1.8662,-1.8662,-1.8715,-1.878,-1.8793,-1.8819,-1.8924,-1.9394,-1.9682,-1.9682,-2.0218,-2.1013,-2.2009,-2.3158,-2.3655,-2.3171,-2.3642,-2.4034,-2.4138,-2.4543,-2.493,-2.5074,-2.6122,-2.687,-2.7187,-2.8075,-2.8826,-2.8972,-2.9226,-2.9477,-2.9602,-2.9602,-2.9602,-2.9602,-2.9602,-2.9588,-2.9588,-2.9504,-2.9574,-2.9448,-2.9012,-2.8099,-2.713,-2.6807,-2.654,-2.6188,-2.5921,-2.5992,-2.5893,-2.5936,-2.595,-2.5893,-2.5893,-2.5893,-2.5893,-2.5851,-2.5837,-2.5851,-2.5893,-2.5795,-2.5753,-2.5739,-2.564,-2.5258,-2.537,-2.5683,-1.9469,-1.9511,-1.9121,-1.8854,-1.8635,-1.7948,-1.7511,-1.7263,-1.7263,-1.7185,-1.7038,-1.7166,-1.7245,-1.7382,-1.7461,-1.7529,-1.7588,-1.7529,-1.792,-1.8613,-1.8761,-1.8797,-1.8835,-1.9028,-1.8771,-1.8118,-1.8084,-1.8084,-1.8084,-1.8084,-1.8084,-1.8084,-1.8084,-1.8084,-1.8084,-1.8084,-1.8313,-1.8798,-1.9011,-1.921,-1.9436,-1.9623,-1.9546,-1.9204,-1.8938,-1.8741,-1.8621,-1.8575,-1.8668,-1.8898,-1.8898,-1.9054,-1.9368,-1.9394,-1.9525,-1.9839,-2.01,-2.0257,-2.0257,-2.0806,-2.1616,-2.2727,-2.3315,-2.3668,-2.372,-2.3955,-2.4112,-2.4138,-2.4635,-2.5105,-2.5406,-2.6479,-2.7357,-2.7653,-2.8373,-2.8908,-2.9099,-2.9226,-2.9415,-2.954,-2.9602,-2.9602,-2.9602,-2.9602,-2.9448,-2.9209,-2.9111,-2.9111,-2.9139,-2.9167,-2.8872,-2.8043,-2.7818,-2.7565,-2.7017,-2.6919,-2.6778,-2.6469,-2.6385,-2.6245,-2.6006,-2.5893,-2.5893,-2.5865,-2.564,-2.543,-2.5388,-2.5107,-2.5005,-2.4962,-2.4934,-2.4831,-2.4671,-2.4767,-2.5099,-1.9469,-1.952,-1.9112,-1.8807,-1.8575,-1.7843,-1.7517,-1.7593,-1.7612,-1.7603,-1.7445,-1.7351,-1.7382,-1.7529,-1.7598,-1.7657,-1.7784,-1.7794,-1.825,-1.9034,-1.9628,-1.9637,-1.9298,-1.9815,-1.9483,-1.8552,-1.8368,-1.8313,-1.8405,-1.821,-1.8084,-1.8084,-1.8084,-1.8084,-1.8084,-1.8084,-1.8302,-1.8798,-1.9117,-1.9448,-1.985,-2.0233,-2.0191,-1.9742,-1.9494,-1.9264,-1.9046,-1.8913,-1.896,-1.9136,-1.9243,-1.9512,-1.9956,-1.9995,-2.0191,-2.0646,-2.0699,-2.0764,-2.0935,-2.1498,-2.2269,-2.3145,-2.3341,-2.3629,-2.4047,-2.4125,-2.4178,-2.4334,-2.4844,-2.5406,-2.6031,-2.6913,-2.7688,-2.8157,-2.8587,-2.8972,-2.9162,-2.9226,-2.9289,-2.954,-2.9602,-2.9602,-2.9588,-2.949,-2.9139,-2.8619,-2.8478,-2.8521,-2.8703,-2.9125,-2.9181,-2.9026,-2.8802,-2.838,-2.7902,-2.7734,-2.7439,-2.6919,-2.6793,-2.6497,-2.6076,-2.5809,-2.5683,-2.5584,-2.5149,-2.4878,-2.4779,-2.4498,-2.423,-2.4244,-2.4244,-2.4204,-2.4106,-2.4055,-2.4307,-1.9557,-1.958,-1.9487,-1.9094,-1.8347,-1.7729,-1.7738,-1.7981,-1.801,-1.8171,-1.8222,-1.7829,-1.7647,-1.7706,-1.7862,-1.794,-1.8076,-1.8586,-1.9177,-1.977,-2.0442,-2.0671,-2.0465,-2.0575,-2.0248,-1.9505,-1.9046,-1.9046,-1.9401,-1.8609,-1.8107,-1.8084,-1.8084,-1.8118,-1.8107,-1.8107,-1.8313,-1.8798,-1.8851,-1.9052,-1.942,-1.9512,-1.9512,-1.9451,-1.9774,-1.9762,-1.9405,-2.0079,-2.0267,-2.0003,-2.0241,-2.0542,-2.0594,-2.0607,-2.0646,-2.0699,-2.0712,-2.0922,-2.1446,-2.2439,-2.308,-2.3237,-2.372,-2.4021,-2.4112,-2.4125,-2.4347,-2.4878,-2.538,-2.5929,-2.662,-2.7664,-2.84,-2.8495,-2.9099,-2.954,-2.954,-2.954,-2.954,-2.9602,-2.9602,-2.9602,-2.956,-2.9139,-2.8535,-2.7945,-2.7846,-2.8001,-2.8394,-2.8647,-2.8984,-2.9209,-2.9055,-2.8507,-2.8015,-2.779,-2.7537,-2.7003,-2.6793,-2.6441,-2.5879,-2.5331,-2.5117,-2.5008,-2.4559,-2.423,-2.4188,-2.4118,-2.4033,-2.385,-2.39,-2.3978,-2.3664,-2.3335,-2.336,-1.933,-1.9254,-1.8986,-1.8547,-1.8014,-1.7802,-1.8045,-1.8392,-1.816,-1.8334,-1.8802,-1.8424,-1.8094,-1.7872,-1.794,-1.8202,-1.8586,-1.8854,-1.9562,-2.0484,-2.0828,-2.0957,-2.0995,-2.0899,-2.0449,-1.9889,-1.968,-1.9645,-1.9644,-1.9241,-1.9057,-1.9069,-1.9046,-1.9069,-1.9034,-1.8747,-1.8753,-1.9171,-1.8952,-1.9011,-1.9368,-1.9656,-1.9914,-2.0131,-2.0055,-1.994,-1.9747,-1.9875,-1.9836,-1.972,-2.0067,-2.0258,-2.0271,-2.0536,-2.0699,-2.0725,-2.1026,-2.1564,-2.2452,-2.2962,-2.3367,-2.372,-2.3968,-2.4125,-2.4125,-2.4125,-2.4406,-2.515,-2.5595,-2.6046,-2.6686,-2.7849,-2.8587,-2.8651,-2.9226,-2.9602,-2.9602,-2.9602,-2.9602,-2.9602,-2.9602,-2.9602,-2.9462,-2.8745,-2.7945,-2.7369,-2.72,-2.7355,-2.7579,-2.7888,-2.8408,-2.8886,-2.8844,-2.8816,-2.8731,-2.8521,-2.7917,-2.7074,-2.6497,-2.6006,-2.5064,-2.4723,-2.4498,-2.4432,-2.3898,-2.3533,-2.3491,-2.3237,-2.3087,-2.3144,-2.3274,-2.3269,-2.3184,-2.2985,-2.3031,-1.9303,-1.9142,-1.8704,-1.8209,-1.7794,-1.7862,-1.8251,-1.875,-1.8486,-1.8711,-1.9238,-1.9072,-1.8613,-1.8076,-1.832,-1.8718,-1.8988,-1.9431,-2.0085,-2.1008,-2.1146,-2.1214,-2.1329,-2.1172,-2.0862,-2.0474,-2.037,-2.0158,-1.9853,-1.9909,-1.9886,-1.9723,-1.97,-1.97,-1.9666,-1.9287,-1.9205,-1.9244,-1.9014,-1.8941,-1.9235,-1.95,-1.9952,-2.0385,-2.0067,-1.985,-1.985,-1.9565,-1.938,-1.9263,-1.9604,-1.9901,-1.9991,-2.0321,-2.0614,-2.0936,-2.1577,-2.2335,-2.3171,-2.3367,-2.3655,-2.4047,-2.4125,-2.4125,-2.4125,-2.4125,-2.4511,-2.5387,-2.5761,-2.6235,-2.6929,-2.8029,-2.8702,-2.878,-2.9289,-2.9602,-2.9602,-2.9602,-2.9602,-2.9602,-2.9602,-2.9448,-2.9069,-2.8324,-2.7537,-2.675,-2.6568,-2.6666,-2.6807,-2.7256,-2.7734,-2.8384,-2.8623,-2.8942,-2.9406,-2.8816,-2.8001,-2.7074,-2.6245,-2.5289,-2.4301,-2.4075,-2.38,-2.373,-2.3196,-2.2949,-2.2955,-2.264,-2.2473,-2.2537,-2.2672,-2.2867,-2.2927,-2.2857,-2.2888,-1.9706,-1.9703,-1.9014,-1.8414,-1.8018,-1.7784,-1.8317,-1.916,-1.918,-1.9238,-1.9365,-1.9639,-1.915,-1.8174,-1.9109,-1.938,-1.9208,-2.0344,-2.0944,-2.1083,-2.1537,-2.18,-2.1663,-2.1663,-2.1628,-2.1451,-2.1124,-2.0592,-2.004,-2.0401,-2.0329,-1.9757,-1.978,-1.9746,-1.9757,-1.97,-1.9413,-1.9091,-1.8976,-1.8934,-1.8905,-1.8887,-1.9287,-1.9989,-1.9668,-1.9473,-1.942,-1.942,-1.9223,-1.8863,-1.9271,-1.9614,-1.9978,-2.0054,-2.0579,-2.1472,-2.2505,-2.3132,-2.3302,-2.3733,-2.406,-2.4112,-2.4125,-2.4125,-2.4125,-2.4125,-2.4543,-2.5615,-2.6003,-2.6596,-2.7417,-2.837,-2.9022,-2.9035,-2.9352,-2.9602,-2.9602,-2.9602,-2.9602,-2.9602,-2.9602,-2.9167,-2.8127,-2.7818,-2.72,-2.6371,-2.5978,-2.6146,-2.6596,-2.6807,-2.7201,-2.7822,-2.8313,-2.8872,-2.9336,-2.8764,-2.7778,-2.6793,-2.5793,-2.4793,-2.4216,-2.3681,-2.335,-2.3104,-2.271,-2.2489,-2.2455,-2.2445,-2.2537,-2.2569,-2.2689,-2.2841,-2.2872,-2.2857,-2.2888,-1.9484,-1.9259,-1.8822,-1.8385,-1.8037,-1.793,-1.8261,-1.8848,-1.8877,-1.9189,-1.96,-1.957,-1.9258,-1.8899,-1.9906,-2.0076,-1.9802,-2.0677,-2.1336,-2.1675,-2.1999,-2.2061,-2.1999,-2.2011,-2.1949,-2.1839,-2.1735,-2.1495,-2.1108,-2.1125,-2.0989,-2.0738,-2.063,-2.0692,-2.0584,-2.0308,-2.0044,-1.9849,-1.9574,-1.9425,-1.932,-1.903,-1.9416,-2.0531,-1.9818,-1.9263,-1.9011,-1.9312,-1.9273,-1.8911,-1.9583,-2.0041,-2.0238,-2.0732,-2.1486,-2.2434,-2.2988,-2.3393,-2.3759,-2.3936,-2.4125,-2.4125,-2.4125,-2.4125,-2.4125,-2.4125,-2.4341,-2.5024,-2.6069,-2.6891,-2.7448,-2.8415,-2.9113,-2.9176,-2.9415,-2.9602,-2.9602,-2.9602,-2.9602,-2.9602,-2.9588,-2.9111,-2.8141,-2.7776,-2.727,-2.6174,-2.5893,-2.6006,-2.6132,-2.6231,-2.6539,-2.7046,-2.747,-2.7836,-2.8471,-2.8274,-2.7612,-2.6536,-2.5459,-2.4226,-2.3356,-2.3011,-2.2667,-2.2791,-2.2423,-2.2413,-2.2491,-2.2644,-2.2675,-2.2706,-2.2812,-2.2826,-2.2872,-2.2902,-2.2888,-1.9544,-1.9142,-1.9035,-1.8737,-1.8358,-1.8202,-1.8447,-1.8828,-1.8848,-1.9102,-1.9443,-1.9473,-1.9277,-1.912,-2.0123,-2.0477,-2.0259,-2.1008,-2.1726,-2.2185,-2.2197,-2.2197,-2.2197,-2.2197,-2.2123,-2.1987,-2.2123,-2.2011,-2.1698,-2.1549,-2.1411,-2.121,-2.1233,-2.1233,-2.1101,-2.0814,-2.0595,-2.0389,-2.009,-1.9861,-1.9677,-1.9356,-1.9644,-2.0475,-1.9932,-1.9528,-1.9473,-1.9586,-1.9424,-1.9298,-1.9773,-2.017,-2.0377,-2.1336,-2.2222,-2.2876,-2.3293,-2.3668,-2.4034,-2.4125,-2.4125,-2.4125,-2.4125,-2.4125,-2.4125,-2.4125,-2.4373,-2.5044,-2.6061,-2.7072,-2.7803,-2.8692,-2.9289,-2.9289,-2.9477,-2.9602,-2.9602,-2.9602,-2.9602,-2.956,-2.9392,-2.883,-2.8001,-2.7607,-2.6975,-2.6006,-2.5893,-2.5893,-2.5893,-2.5962,-2.6115,-2.6552,-2.6975,-2.7399,-2.7769,-2.7641,-2.7058,-2.6005,-2.479,-2.3544,-2.2932,-2.2526,-2.2324,-2.2431,-2.2523,-2.2583,-2.2629,-2.2781,-2.2826,-2.2888,-2.2888,-2.2857,-2.2888,-2.2888,-2.2888,-1.986,-1.9402,-1.9686,-1.9412,-1.8885,-1.8708,-1.8877,-1.9111,-1.9219,-1.9062,-1.8916,-1.9473,-1.9141,-1.8626,-1.9938,-2.0445,-2.0357,-2.1474,-2.2123,-2.2197,-2.2197,-2.2197,-2.2197,-2.2197,-2.2197,-2.2197,-2.2197,-2.2011,-2.1686,-2.1624,-2.1498,-2.1233,-2.1233,-2.1233,-2.1233,-2.1164,-2.0882,-2.0561,-2.0435,-2.0205,-1.978,-1.9723,-1.9959,-2.0462,-2.003,-2.01,-2.086,-2.0135,-1.9748,-1.9688,-1.9746,-1.9936,-2.0522,-2.1675,-2.2483,-2.2725,-2.3483,-2.4015,-2.4112,-2.4125,-2.4125,-2.4112,-2.4112,-2.4171,-2.4171,-2.4236,-2.4675,-2.5559,-2.6526,-2.738,-2.8356,-2.9142,-2.954,-2.9602,-2.9602,-2.9602,-2.9602,-2.9602,-2.9602,-2.9532,-2.9153,-2.8478,-2.7846,-2.7284,-2.6666,-2.6159,-2.5948,-2.5948,-2.6002,-2.6056,-2.6179,-2.6361,-2.67,-2.7167,-2.7161,-2.7039,-2.6299,-2.542,-2.4089,-2.2916,-2.2783,-2.2523,-2.2523,-2.2583,-2.2615,-2.2675,-2.2721,-2.2812,-2.2857,-2.2888,-2.2888,-2.2888,-2.2888,-2.2888,-2.2888,-1.9714,-1.9488,-1.962,-1.9271,-1.8773,-1.8932,-1.8867,-1.8506,-1.9014,-1.9043,-1.875,-1.8916,-1.8789,-1.8805,-1.9769,-2.0238,-2.0237,-2.1537,-2.2197,-2.2197,-2.2197,-2.2197,-2.2197,-2.2197,-2.2197,-2.2197,-2.2061,-2.1874,-2.1698,-2.1549,-2.1411,-2.1221,-2.1233,-2.1233,-2.1233,-2.1221,-2.1055,-2.0951,-2.0928,-2.0836,-2.0664,-2.0354,-2.0575,-2.127,-2.0598,-2.0612,-2.1475,-2.0731,-2.0194,-2.0182,-2.0515,-2.0935,-2.1425,-2.2152,-2.273,-2.3137,-2.3702,-2.4125,-2.4125,-2.4112,-2.4054,-2.4112,-2.4261,-2.4363,-2.4474,-2.4954,-2.5445,-2.5968,-2.6998,-2.7996,-2.8346,-2.9115,-2.9588,-2.9602,-2.9602,-2.9602,-2.9602,-2.9602,-2.9602,-2.9546,-2.9069,-2.8464,-2.7891,-2.7257,-2.6651,-2.6184,-2.6111,-2.6179,-2.6179,-2.6179,-2.6233,-2.6329,-2.6651,-2.6831,-2.6852,-2.6471,-2.564,-2.507,-2.3928,-2.2922,-2.2778,-2.2661,-2.2675,-2.2721,-2.2766,-2.2797,-2.2857,-2.2843,-2.2888,-2.2888,-2.2888,-2.2888,-2.2888,-2.2888,-2.2888,-1.98,-1.9707,-1.9937,-1.9616,-1.8996,-1.9195,-1.8896,-1.8369,-1.8799,-1.8799,-1.8486,-1.8574,-1.8675,-1.8912,-1.9701,-2.0237,-2.0549,-2.1663,-2.2197,-2.2197,-2.2197,-2.2197,-2.2197,-2.2197,-2.2197,-2.2197,-2.2061,-2.1937,-2.1749,-2.1675,-2.1537,-2.1423,-2.1348,-2.1273,-2.1273,-2.1233,-2.1233,-2.1233,-2.1233,-2.1233,-2.1175,-2.0859,-2.1074,-2.1658,-2.1086,-2.116,-2.1779,-2.1074,-2.0699,-2.0745,-2.1072,-2.1325,-2.1639,-2.2224,-2.2725,-2.3065,-2.3497,-2.3819,-2.3819,-2.3616,-2.3675,-2.3806,-2.406,-2.4337,-2.4576,-2.5226,-2.567,-2.634,-2.7152,-2.8083,-2.8526,-2.9136,-2.9588,-2.9602,-2.9602,-2.9602,-2.9602,-2.9602,-2.9602,-2.9448,-2.8858,-2.8254,-2.782,-2.7004,-2.6551,-2.6181,-2.6179,-2.6286,-2.6286,-2.6326,-2.6379,-2.6433,-2.6611,-2.665,-2.6573,-2.593,-2.5067,-2.4554,-2.3985,-2.3245,-2.2855,-2.2812,-2.2766,-2.2812,-2.2857,-2.2843,-2.2888,-2.2888,-2.2888,-2.2888,-2.2888,-2.2888,-2.2888,-2.2888,-2.2888,-2.0089,-1.9991,-2.0372,-2.0023,-1.9483,-1.9331,-1.8984,-1.8603,-1.8582,-1.8437,-1.8184,-1.8389,-1.8705,-1.9127,-1.9781,-2.0431,-2.1123,-2.18,-2.2197,-2.2197,-2.2197,-2.2197,-2.2197,-2.2197,-2.2197,-2.2197,-2.2197,-2.2061,-2.1862,-2.1812,-2.1812,-2.1624,-2.1474,-2.1388,-2.1325,-2.1285,-2.1233,-2.1233,-2.1233,-2.1233,-2.1221,-2.121,-2.1388,-2.1765,-2.1439,-2.1365,-2.1616,-2.1342,-2.1187,-2.1221,-2.121,-2.1233,-2.1348,-2.2051,-2.2543,-2.2604,-2.3065,-2.333,-2.3258,-2.2992,-2.298,-2.3497,-2.3826,-2.4047,-2.4607,-2.5181,-2.5789,-2.6594,-2.7244,-2.7903,-2.8823,-2.9373,-2.956,-2.9546,-2.9546,-2.9588,-2.9602,-2.9602,-2.956,-2.9336,-2.8549,-2.7734,-2.7636,-2.6694,-2.62,-2.6071,-2.6165,-2.6272,-2.6326,-2.6418,-2.6525,-2.6549,-2.6573,-2.6422,-2.6263,-2.5321,-2.453,-2.4283,-2.38,-2.3308,-2.29,-2.2872,-2.2843,-2.2857,-2.2902,-2.2888,-2.2888,-2.2888,-2.2888,-2.2888,-2.2888,-2.2888,-2.2888,-2.2888,-2.2888,-1.9839,-1.9726,-1.9793,-1.9519,-1.8928,-1.917,-1.8857,-1.8271,-1.8516,-1.8379,-1.8105,-1.8115,-1.8524,-1.9044,-1.977,-2.0484,-2.1198,-2.1862,-2.2197,-2.2197,-2.2197,-2.2197,-2.2197,-2.2197,-2.2197,-2.2197,-2.2061,-2.1925,-2.1874,-2.1824,-2.1761,-2.1698,-2.1537,-2.1388,-2.1388,-2.1285,-2.1233,-2.1233,-2.1233,-2.1233,-2.1233,-2.1233,-2.1221,-2.1348,-2.1285,-2.1285,-2.14,-2.1285,-2.1233,-2.1233,-2.1233,-2.1233,-2.1296,-2.1765,-2.2125,-2.2187,-2.2555,-2.2798,-2.2798,-2.2665,-2.2967,-2.3636,-2.3943,-2.4465,-2.5201,-2.5924,-2.6398,-2.6984,-2.7687,-2.8372,-2.8792,-2.9232,-2.9336,-2.9069,-2.9237,-2.949,-2.9518,-2.9588,-2.9448,-2.8942,-2.8226,-2.7636,-2.7088,-2.6525,-2.6016,-2.6111,-2.6272,-2.6365,-2.6418,-2.6592,-2.6645,-2.6509,-2.6445,-2.617,-2.572,-2.4776,-2.4138,-2.3978,-2.3601,-2.3105,-2.2902,-2.2902,-2.2888,-2.2888,-2.2888,-2.2888,-2.2888,-2.2888,-2.2888,-2.2888,-2.2888,-2.2888,-2.2888,-2.2888,-2.2888,-1.9765,-1.9752,-1.9587,-1.9112,-1.863,-1.8916,-1.8633,-1.8144,-1.8252,-1.8252,-1.8105,-1.8337,-1.8787,-1.9497,-2.0226,-2.088,-2.16,-2.1999,-2.2197,-2.2197,-2.2197,-2.2197,-2.2197,-2.2197,-2.2197,-2.2197,-2.2073,-2.2061,-2.1999,-2.1949,-2.1886,-2.1886,-2.1675,-2.1549,-2.1537,-2.1296,-2.1233,-2.1233,-2.1233,-2.1233,-2.1233,-2.1233,-2.1233,-2.1233,-2.1233,-2.1233,-2.1233,-2.1233,-2.1233,-2.1233,-2.1233,-2.1233,-2.1233,-2.1639,-2.1889,-2.1939,-2.2187,-2.2298,-2.2298,-2.2298,-2.2604,-2.3267,-2.3872,-2.4593,-2.5229,-2.598,-2.6469,-2.6834,-2.7551,-2.7959,-2.831,-2.8647,-2.8633,-2.8408,-2.8619,-2.883,-2.8844,-2.8788,-2.8675,-2.8268,-2.7762,-2.727,-2.6821,-2.6314,-2.6141,-2.6111,-2.6272,-2.6365,-2.6525,-2.6698,-2.6634,-2.6373,-2.6054,-2.5749,-2.5299,-2.4442,-2.3963,-2.376,-2.3441,-2.2917,-2.2888,-2.2888,-2.2888,-2.2888,-2.2888,-2.2888,-2.2888,-2.2888,-2.2888,-2.2888,-2.2888,-2.2888,-2.2888,-2.2888,-2.2888,-1.9676,-1.9805,-1.9404,-1.8975,-1.8594,-1.8564,-1.8359,-1.8057,-1.8037,-1.8037,-1.8134,-1.8721,-1.9309,-2.0161,-2.0666,-2.1463,-2.2135,-2.2123,-2.2197,-2.2197,-2.2197,-2.2197,-2.2197,-2.2197,-2.2197,-2.2197,-2.2197,-2.2197,-2.2135,-2.2135,-2.2197,-2.2073,-2.1824,-2.1698,-2.1624,-2.136,-2.1233,-2.1233,-2.1233,-2.1233,-2.1233,-2.1233,-2.1233,-2.1233,-2.1233,-2.1233,-2.1233,-2.1233,-2.1233,-2.1233,-2.1233,-2.1233,-2.1233,-2.1639,-2.1765,-2.1765,-2.1765,-2.1827,-2.1889,-2.1877,-2.2237,-2.2895,-2.38,-2.4523,-2.5131,-2.5772,-2.6174,-2.6568,-2.675,-2.7256,-2.772,-2.7804,-2.772,-2.765,-2.7664,-2.7579,-2.7607,-2.7692,-2.7762,-2.7664,-2.713,-2.6863,-2.6582,-2.6287,-2.5948,-2.6111,-2.6272,-2.6418,-2.6424,-2.6466,-2.63,-2.5981,-2.5647,-2.5284,-2.4762,-2.4167,-2.3862,-2.3601,-2.3267,-2.2902,-2.2888,-2.2888,-2.2888,-2.2888,-2.2888,-2.2888,-2.2888,-2.2888,-2.2888,-2.2888,-2.2888,-2.2888,-2.2888,-2.2888,-2.2888,-1.9437,-1.9174,-1.8883,-1.8535,-1.8174,-1.8135,-1.8105,-1.8008,-1.8008,-1.8008,-1.8202,-1.871,-1.9431,-2.0172,-2.0869,-2.1463,-2.2135,-2.2197,-2.2197,-2.2197,-2.2197,-2.2197,-2.2197,-2.2197,-2.2197,-2.2197,-2.2197,-2.2197,-2.2197,-2.2197,-2.2197,-2.2135,-2.1886,-2.171,-2.1635,-2.1371,-2.1233,-2.1233,-2.1221,-2.1233,-2.1233,-2.1233,-2.1233,-2.1221,-2.1233,-2.1233,-2.1233,-2.1233,-2.1233,-2.1233,-2.1233,-2.1233,-2.1221,-2.1285,-2.1411,-2.1411,-2.1411,-2.1411,-2.14,-2.1765,-2.2286,-2.3135,-2.38,-2.4694,-2.5619,-2.5729,-2.595,-2.6188,-2.6526,-2.7003,-2.7481,-2.727,-2.7074,-2.6947,-2.6666,-2.6399,-2.6469,-2.7172,-2.7411,-2.7116,-2.6877,-2.6624,-2.6188,-2.6186,-2.6056,-2.6111,-2.6272,-2.6404,-2.6419,-2.6335,-2.6039,-2.572,-2.5212,-2.4805,-2.4181,-2.3731,-2.3528,-2.3383,-2.3076,-2.2902,-2.2888,-2.2888,-2.2888,-2.2888,-2.2888,-2.2888,-2.2888,-2.2888,-2.2888,-2.2888,-2.2888,-2.2888,-2.2888,-2.2888,-2.2888,-1.9008,-1.8812,-1.8455,-1.8223,-1.8027,-1.8008,-1.8008,-1.8008,-1.8008,-1.8202,-1.8596,-1.9177,-1.9901,-2.0613,-2.1273,-2.1862,-2.2123,-2.2197,-2.2197,-2.2197,-2.2197,-2.2197,-2.2197,-2.2197,-2.2197,-2.2197,-2.2197,-2.2197,-2.2197,-2.2197,-2.2123,-2.2061,-2.1824,-2.171,-2.1635,-2.1423,-2.136,-2.1434,-2.1423,-2.1434,-2.1434,-2.1434,-2.1434,-2.1423,-2.1434,-2.1423,-2.1434,-2.1434,-2.1434,-2.1434,-2.1423,-2.136,-2.1233,-2.1233,-2.1233,-2.1233,-2.1233,-2.1233,-2.1285,-2.1714,-2.2261,-2.2859,-2.3577,-2.4337,-2.5034,-2.5384,-2.5674,-2.5895,-2.6188,-2.654,-2.6835,-2.6652,-2.6399,-2.6329,-2.6104,-2.5907,-2.6006,-2.6512,-2.6807,-2.6455,-2.6357,-2.6217,-2.606,-2.6016,-2.6056,-2.6125,-2.6218,-2.6418,-2.651,-2.637,-2.5923,-2.5487,-2.4878,-2.4297,-2.3644,-2.3221,-2.3091,-2.3018,-2.2975,-2.2888,-2.2888,-2.2888,-2.2888,-2.2888,-2.2888,-2.2888,-2.2888,-2.2888,-2.2888,-2.2888,-2.2888,-2.2888,-2.2888,-2.2888,-2.2888,-1.8625,-1.8523,-1.8184,-1.8008,-1.8008,-1.8008,-1.8008,-1.8008,-1.8008,-1.8337,-1.9044,-1.977,-2.0355,-2.1135,-2.18,-2.2135,-2.2197,-2.2197,-2.2197,-2.2197,-2.2197,-2.2197,-2.2197,-2.2197,-2.2197,-2.2197,-2.2197,-2.2197,-2.2197,-2.2197,-2.2123,-2.1937,-2.1812,-2.1761,-2.1686,-2.1549,-2.1486,-2.1635,-2.1635,-2.1635,-2.1635,-2.1635,-2.1635,-2.1635,-2.1635,-2.1635,-2.1635,-2.1635,-2.171,-2.171,-2.171,-2.1561,-2.136,-2.1285,-2.1296,-2.1308,-2.1296,-2.1371,-2.1434,-2.1788,-2.2223,-2.2297,-2.3113,-2.393,-2.4523,-2.4978,-2.5328,-2.5729,-2.5992,-2.5992,-2.5907,-2.5992,-2.5964,-2.5936,-2.5921,-2.5893,-2.5893,-2.5893,-2.5992,-2.5978,-2.6103,-2.6046,-2.6059,-2.6042,-2.6111,-2.6165,-2.6258,-2.6322,-2.6438,-2.6226,-2.5597,-2.495,-2.4268,-2.3891,-2.325,-2.3076,-2.2902,-2.2888,-2.2888,-2.2888,-2.2888,-2.2888,-2.2888,-2.2888,-2.2888,-2.2888,-2.2888,-2.2888,-2.2888,-2.2888,-2.2888,-2.2888,-2.2888,-2.2888,-2.2888,-1.8366,-1.8331,-1.8115,-1.8008,-1.8008,-1.8008,-1.8008,-1.8008,-1.8008,-1.8405,-1.911,-1.9759,-2.0484,-2.1198,-2.1862,-2.2197,-2.2197,-2.2197,-2.2197,-2.2197,-2.2197,-2.2197,-2.2197,-2.2197,-2.2197,-2.2197,-2.2197,-2.2197,-2.2197,-2.2197,-2.2123,-2.2123,-2.1937,-2.1874,-2.1812,-2.1749,-2.1686,-2.1761,-2.1761,-2.1761,-2.1761,-2.1761,-2.1773,-2.1761,-2.1761,-2.1761,-2.1698,-2.171,-2.171,-2.171,-2.171,-2.1635,-2.1624,-2.1624,-2.1624,-2.1572,-2.1561,-2.1572,-2.1635,-2.2061,-2.2457,-2.2811,-2.3339,-2.3989,-2.465,-2.4991,-2.5272,-2.5674,-2.5893,-2.5893,-2.5893,-2.5893,-2.5893,-2.5893,-2.5893,-2.5893,-2.5893,-2.5893,-2.5893,-2.5893,-2.6002,-2.6042,-2.6042,-2.615,-2.6258,-2.6254,-2.6275,-2.6165,-2.6067,-2.5611,-2.4901,-2.4239,-2.3528,-2.3221,-2.2931,-2.2931,-2.2888,-2.2888,-2.2888,-2.2888,-2.2888,-2.2888,-2.2888,-2.2888,-2.2888,-2.2888,-2.2888,-2.2888,-2.2888,-2.2888,-2.2888,-2.2888,-2.2888,-2.2888,-2.2888,-1.8245,-1.8093,-1.8027,-1.8008,-1.8008,-1.8008,-1.8008,-1.8008,-1.8008,-1.8596,-1.9441,-1.9966,-2.0688,-2.1526,-2.1987,-2.2197,-2.2197,-2.2197,-2.2197,-2.2197,-2.2197,-2.2197,-2.2197,-2.2197,-2.2197,-2.2197,-2.2197,-2.2197,-2.2197,-2.2197,-2.2123,-2.2049,-2.1925,-2.1937,-2.1937,-2.1874,-2.1886,-2.1949,-2.1949,-2.1949,-2.1949,-2.1937,-2.1949,-2.1949,-2.1949,-2.1949,-2.1949,-2.1949,-2.1949,-2.1949,-2.1937,-2.1937,-2.1949,-2.1949,-2.1874,-2.1761,-2.171,-2.171,-2.1824,-2.2297,-2.275,-2.2919,-2.3386,-2.4163,-2.4765,-2.5061,-2.5286,-2.5729,-2.5893,-2.5893,-2.5893,-2.5893,-2.5893,-2.5893,-2.5893,-2.5893,-2.5893,-2.5893,-2.5893,-2.5893,-2.596,-2.6014,-2.6096,-2.6204,-2.6351,-2.6357,-2.6303,-2.606,-2.572,-2.5154,-2.4486,-2.3905,-2.3325,-2.3107,-2.2933,-2.2888,-2.2888,-2.2888,-2.2888,-2.2888,-2.2888,-2.2888,-2.2888,-2.2888,-2.2888,-2.2888,-2.2888,-2.2888,-2.2888,-2.2888,-2.2888,-2.2888,-2.2888,-2.2888,-2.2888,-1.8043,-1.794,-1.794,-1.794,-1.8008,-1.8008,-1.8008,-1.8008,-1.8008,-1.8798,-1.9966,-2.0161,-2.0892,-2.1862,-2.2185,-2.2197,-2.2197,-2.2197,-2.2197,-2.2197,-2.2197,-2.2197,-2.2197,-2.2197,-2.2197,-2.2197,-2.2197,-2.2197,-2.2197,-2.2197,-2.2135,-2.2061,-2.1999,-2.1999,-2.1999,-2.1999,-2.2061,-2.2135,-2.2197,-2.2197,-2.2197,-2.2197,-2.2197,-2.2197,-2.2197,-2.2197,-2.2135,-2.2135,-2.2135,-2.2135,-2.2135,-2.2197,-2.2197,-2.2197,-2.2073,-2.1886,-2.1824,-2.1824,-2.1937,-2.2285,-2.2641,-2.2702,-2.328,-2.3872,-2.4523,-2.4765,-2.523,-2.5729,-2.5893,-2.5893,-2.5893,-2.5893,-2.5893,-2.5893,-2.5893,-2.5893,-2.5893,-2.5893,-2.5893,-2.592,-2.5972,-2.6011,-2.6026,-2.6201,-2.64,-2.6107,-2.5972,-2.5481,-2.5154,-2.4834,-2.4268,-2.3731,-2.3281,-2.3064,-2.2947,-2.2902,-2.2888,-2.2888,-2.2888,-2.2888,-2.2888,-2.2888,-2.2888,-2.2888,-2.2888,-2.2888,-2.2888,-2.2888,-2.2888,-2.2888,-2.2888,-2.2888,-2.2888,-2.2888,-2.2888,-1.7636,-1.7716,-1.7706,-1.7862,-1.8008,-1.8008,-1.8008,-1.8008,-1.8008,-1.8787,-2.0096,-2.0161,-2.088,-2.1925,-2.2197,-2.2197,-2.2197,-2.2197,-2.2197,-2.2197,-2.2197,-2.2197,-2.2197,-2.2197,-2.2197,-2.2197,-2.2197,-2.2197,-2.2197,-2.2197,-2.2197,-2.2135,-2.2123,-2.2123,-2.2123,-2.2123,-2.2197,-2.2197,-2.2197,-2.2197,-2.2197,-2.2197,-2.2197,-2.2197,-2.2197,-2.2197,-2.2197,-2.2197,-2.2197,-2.2197,-2.2197,-2.2197,-2.2197,-2.2197,-2.2197,-2.2135,-2.2135,-2.2123,-2.2123,-2.2359,-2.2469,-2.2531,-2.2714,-2.2823,-2.3813,-2.4694,-2.5342,-2.5839,-2.5893,-2.5893,-2.5893,-2.5893,-2.5893,-2.5893,-2.5893,-2.5893,-2.5893,-2.5893,-2.5893,-2.5863,-2.5847,-2.5873,-2.5926,-2.6154,-2.6285,-2.6,-2.5618,-2.5046,-2.4588,-2.4254,-2.4057,-2.3518,-2.3254,-2.3051,-2.3037,-2.2992,-2.2947,-2.2888,-2.2888,-2.2888,-2.2888,-2.2888,-2.2888,-2.2888,-2.2888,-2.2888,-2.2888,-2.2888,-2.2888,-2.2888,-2.2888,-2.2888,-2.2888,-2.2888,-2.2888,-1.7588,-1.7696,-1.7852,-1.794,-1.8008,-1.8008,-1.8008,-1.8008,-1.8008,-1.8798,-1.9901,-2.0096,-2.088,-2.1999,-2.2197,-2.2197,-2.2197,-2.2197,-2.2197,-2.2197,-2.2197,-2.2197,-2.2197,-2.2197,-2.2197,-2.2197,-2.2197,-2.2197,-2.2197,-2.2197,-2.2197,-2.2197,-2.2197,-2.2185,-2.2197,-2.2197,-2.2197,-2.2197,-2.2197,-2.2197,-2.2197,-2.2197,-2.2197,-2.2197,-2.2197,-2.2197,-2.2197,-2.2197,-2.2197,-2.2197,-2.2197,-2.2197,-2.2197,-2.2197,-2.2197,-2.2197,-2.2197,-2.2197,-2.2185,-2.2469,-2.258,-2.2944,-2.3292,-2.4176,-2.4624,-2.509,-2.5564,-2.5893,-2.5893,-2.5893,-2.5893,-2.5893,-2.5893,-2.5893,-2.5893,-2.5893,-2.5893,-2.5893,-2.5879,-2.5821,-2.5748,-2.5742,-2.5568,-2.5449,-2.5473,-2.5229,-2.491,-2.45,-2.4022,-2.3673,-2.3475,-2.3303,-2.3171,-2.3097,-2.3112,-2.3112,-2.2992,-2.2947,-2.2902,-2.2888,-2.2888,-2.2888,-2.2933,-2.2888,-2.2888,-2.2888,-2.2888,-2.2888,-2.2888,-2.2888,-2.2888,-2.2888,-2.2888,-2.2888,-2.2888,-1.7588,-1.7706,-1.7862,-1.794,-1.8008,-1.8008,-1.8008,-1.8008,-1.8202,-1.8988,-1.9966,-2.0484,-2.1273,-2.1987,-2.2197,-2.2197,-2.2197,-2.2197,-2.2197,-2.2197,-2.2197,-2.2197,-2.2197,-2.2197,-2.2197,-2.2197,-2.2197,-2.2197,-2.2197,-2.2197,-2.2197,-2.2197,-2.2197,-2.2197,-2.2197,-2.2197,-2.2197,-2.2197,-2.2197,-2.2197,-2.2197,-2.2197,-2.2197,-2.2197,-2.2197,-2.2197,-2.2197,-2.2197,-2.2197,-2.2197,-2.2197,-2.2197,-2.2197,-2.2197,-2.2197,-2.2197,-2.2197,-2.2197,-2.2309,-2.2531,-2.2811,-2.322,-2.3813,-2.4408,-2.5328,-2.566,-2.577,-2.5893,-2.5893,-2.5893,-2.5893,-2.5893,-2.5893,-2.5893,-2.5893,-2.5893,-2.5893,-2.5948,-2.592,-2.5889,-2.5756,-2.5384,-2.516,-2.4712,-2.4523,-2.4408,-2.4173,-2.3876,-2.3589,-2.3269,-2.3243,-2.3231,-2.3231,-2.3157,-2.3112,-2.3112,-2.3037,-2.2992,-2.2947,-2.2947,-2.2947,-2.2933,-2.2978,-2.2933,-2.2888,-2.2888,-2.2888,-2.2888,-2.2888,-2.2888,-2.2888,-2.2888,-2.2888,-2.2888,-2.2888,-1.7588,-1.7716,-1.7716,-1.7852,-1.8008,-1.8008,-1.8008,-1.8076,-1.8654,-1.9375,-2.0291,-2.1348,-2.1925,-2.2185,-2.2197,-2.2197,-2.2197,-2.2197,-2.2197,-2.2197,-2.2197,-2.2197,-2.2197,-2.2197,-2.2197,-2.2197,-2.2197,-2.2197,-2.2197,-2.2197,-2.2197,-2.2197,-2.2197,-2.2197,-2.2197,-2.2197,-2.2123,-2.2123,-2.2123,-2.2123,-2.2135,-2.2135,-2.2135,-2.2197,-2.2197,-2.2197,-2.2197,-2.2197,-2.2197,-2.2197,-2.2197,-2.2135,-2.2135,-2.2197,-2.2197,-2.2135,-2.2197,-2.2197,-2.2247,-2.2309,-2.2309,-2.2469,-2.2992,-2.3989,-2.5118,-2.5118,-2.5342,-2.5784,-2.5893,-2.5893,-2.5893,-2.5893,-2.5893,-2.5893,-2.5893,-2.5893,-2.5948,-2.6002,-2.5974,-2.5997,-2.5781,-2.545,-2.4969,-2.4575,-2.4005,-2.3846,-2.3873,-2.3635,-2.3433,-2.3215,-2.3245,-2.329,-2.3275,-2.3231,-2.3127,-2.3127,-2.3127,-2.3082,-2.2992,-2.3037,-2.3037,-2.3037,-2.2978,-2.2992,-2.2947,-2.2933,-2.2888,-2.2888,-2.2888,-2.2888,-2.2888,-2.2888,-2.2888,-2.2888,-2.2888,-1.7647,-1.7706,-1.7852,-1.793,-1.8008,-1.8008,-1.8008,-1.8134,-1.871,-1.9694,-2.0805,-2.1737,-2.2197,-2.2197,-2.2197,-2.2197,-2.2197,-2.2197,-2.2197,-2.2197,-2.2197,-2.2197,-2.2197,-2.2197,-2.2197,-2.2197,-2.2197,-2.2197,-2.2197,-2.2197,-2.2197,-2.2197,-2.2197,-2.2197,-2.2197,-2.2123,-2.2061,-2.1999,-2.1937,-2.1937,-2.1999,-2.1949,-2.2011,-2.2197,-2.2061,-2.2123,-2.2185,-2.2197,-2.2197,-2.2197,-2.2197,-2.2123,-2.2061,-2.2135,-2.2123,-2.2061,-2.2123,-2.2173,-2.2161,-2.2235,-2.2359,-2.275,-2.3027,-2.3669,-2.4892,-2.5005,-2.5342,-2.5674,-2.5893,-2.5893,-2.5893,-2.5893,-2.5893,-2.5893,-2.5893,-2.5893,-2.5948,-2.6002,-2.5943,-2.5884,-2.5834,-2.5631,-2.5062,-2.4523,-2.3875,-2.3374,-2.3383,-2.3389,-2.3289,-2.3246,-2.329,-2.3378,-2.3407,-2.3407,-2.329,-2.3305,-2.326,-2.3171,-2.3082,-2.3127,-2.3127,-2.2992,-2.2947,-2.2947,-2.2992,-2.2933,-2.2933,-2.2888,-2.2888,-2.2888,-2.2888,-2.2888,-2.2888,-2.2888,-2.2888,-1.7569,-1.7647,-1.7803,-1.794,-1.8008,-1.8008,-1.8134,-1.8405,-1.9044,-2.0085,-2.1463,-2.1987,-2.2197,-2.2197,-2.2197,-2.2197,-2.2197,-2.2197,-2.2197,-2.2197,-2.2197,-2.2197,-2.2197,-2.2197,-2.2197,-2.2197,-2.2197,-2.2197,-2.2197,-2.2197,-2.2197,-2.2197,-2.2197,-2.2197,-2.2123,-2.2061,-2.1999,-2.1999,-2.1937,-2.1886,-2.1999,-2.1937,-2.1949,-2.2197,-2.2073,-2.2073,-2.2185,-2.2197,-2.2197,-2.2197,-2.2135,-2.1999,-2.1999,-2.1999,-2.1999,-2.1999,-2.1987,-2.2075,-2.2017,-2.2187,-2.2567,-2.3207,-2.3386,-2.4092,-2.4878,-2.5286,-2.5619,-2.5784,-2.5893,-2.5893,-2.5893,-2.5893,-2.5893,-2.5893,-2.5893,-2.5893,-2.5948,-2.6002,-2.5859,-2.5756,-2.5702,-2.5595,-2.4646,-2.4057,-2.3638,-2.3146,-2.3225,-2.3288,-2.3319,-2.3319,-2.3407,-2.3451,-2.3494,-2.3494,-2.3509,-2.3422,-2.3334,-2.329,-2.3201,-2.3216,-2.3216,-2.3082,-2.3023,-2.3112,-2.3112,-2.2978,-2.2933,-2.2933,-2.2947,-2.2902,-2.2888,-2.2888,-2.2888,-2.2888,-2.2947,-1.7314,-1.747,-1.7539,-1.7666,-1.794,-1.8008,-1.8327,-1.8777,-1.9573,-2.0688,-2.1937,-2.2123,-2.2123,-2.2197,-2.2197,-2.2197,-2.2197,-2.2197,-2.2197,-2.2197,-2.2197,-2.2197,-2.2197,-2.2197,-2.2197,-2.2197,-2.2197,-2.2197,-2.2197,-2.2197,-2.2197,-2.2197,-2.2197,-2.2197,-2.2197,-2.2197,-2.2197,-2.2197,-2.2135,-2.2061,-2.2123,-2.2061,-2.2073,-2.2135,-2.2135,-2.2135,-2.2197,-2.2197,-2.2197,-2.2197,-2.2061,-2.1999,-2.1937,-2.1874,-2.1874,-2.1925,-2.1925,-2.1822,-2.1548,-2.1933,-2.2492,-2.3255,-2.3249,-2.4097,-2.5287,-2.5701,-2.5729,-2.5784,-2.5893,-2.5893,-2.5893,-2.5893,-2.5893,-2.5893,-2.5893,-2.5948,-2.6002,-2.5844,-2.5739,-2.5578,-2.5552,-2.5371,-2.4278,-2.3499,-2.3178,-2.2976,-2.3052,-2.3171,-2.3319,-2.3392,-2.348,-2.3523,-2.3566,-2.3581,-2.3538,-2.3494,-2.3466,-2.3363,-2.3319,-2.329,-2.329,-2.3246,-2.3246,-2.3275,-2.3157,-2.2978,-2.2992,-2.2992,-2.2947,-2.2902,-2.2888,-2.2888,-2.2888,-2.2888,-2.2933,-1.7245,-1.7314,-1.751,-1.7716,-1.7784,-1.7784,-1.8056,-1.8385,-1.9177,-2.0431,-2.18,-2.1726,-2.1788,-2.2049,-2.2197,-2.2197,-2.2197,-2.2197,-2.2197,-2.2197,-2.2197,-2.2197,-2.2197,-2.2197,-2.2197,-2.2197,-2.2197,-2.2197,-2.2197,-2.2197,-2.2197,-2.2197,-2.2197,-2.2197,-2.2123,-2.2123,-2.1999,-2.1999,-2.1937,-2.1874,-2.1999,-2.1937,-2.2011,-2.2197,-2.2061,-2.2061,-2.2197,-2.2197,-2.2197,-2.2197,-2.2061,-2.1999,-2.1937,-2.1874,-2.1937,-2.1987,-2.1975,-2.1872,-2.1464,-2.1403,-2.1443,-2.2151,-2.2774,-2.3489,-2.442,-2.4619,-2.5009,-2.566,-2.5893,-2.5893,-2.5893,-2.5893,-2.5893,-2.5948,-2.5948,-2.6002,-2.604,-2.5749,-2.5502,-2.5354,-2.525,-2.4829,-2.3978,-2.3429,-2.3125,-2.3068,-2.3157,-2.329,-2.3436,-2.3523,-2.3551,-2.3551,-2.361,-2.361,-2.3566,-2.3538,-2.3538,-2.3451,-2.3407,-2.3349,-2.3334,-2.3363,-2.3246,-2.3187,-2.3112,-2.3023,-2.3037,-2.3037,-2.2947,-2.2902,-2.2888,-2.2888,-2.2888,-2.2888,-2.2888,-1.7235,-1.7235,-1.751,-1.7638,-1.7774,-1.8046,-1.8385,-1.8787,-1.9441,-2.0537,-2.1526,-2.1526,-2.1726,-2.2123,-2.2197,-2.2197,-2.2197,-2.2197,-2.2197,-2.2197,-2.2197,-2.2197,-2.2197,-2.2197,-2.2197,-2.2197,-2.2197,-2.2197,-2.2197,-2.2197,-2.2197,-2.2197,-2.2197,-2.2197,-2.2123,-2.2061,-2.2061,-2.2061,-2.1999,-2.1937,-2.1999,-2.1999,-2.1999,-2.2135,-2.2123,-2.2049,-2.2123,-2.2197,-2.2197,-2.2197,-2.2123,-2.2049,-2.1999,-2.1937,-2.2011,-2.1987,-2.1822,-2.1753,-2.1392,-2.0947,-2.097,-2.1169,-2.1749,-2.2802,-2.3836,-2.4422,-2.5025,-2.5563,-2.5879,-2.5893,-2.5893,-2.5893,-2.5893,-2.5948,-2.5779,-2.5833,-2.5686,-2.5393,-2.5005,-2.4819,-2.4632,-2.4158,-2.376,-2.3489,-2.3142,-2.3216,-2.3334,-2.3451,-2.3566,-2.3551,-2.3595,-2.3595,-2.3595,-2.3595,-2.361,-2.361,-2.3566,-2.3538,-2.3494,-2.3422,-2.3451,-2.3436,-2.3275,-2.3142,-2.3187,-2.3231,-2.3112,-2.3037,-2.2992,-2.2947,-2.2888,-2.2888,-2.2888,-2.2843,-2.2783,-1.7139,-1.7207,-1.7354,-1.7531,-1.7804,-1.8546,-1.9309,-2.0107,-2.0677,-2.1071,-2.1198,-2.1851,-2.2061,-2.2135,-2.2197,-2.2197,-2.2197,-2.2197,-2.2197,-2.2197,-2.2197,-2.2197,-2.2197,-2.2197,-2.2197,-2.2197,-2.2197,-2.2197,-2.2197,-2.2197,-2.2197,-2.2247,-2.2247,-2.2197,-2.2185,-2.2185,-2.2123,-2.2135,-2.2135,-2.2123,-2.2123,-2.2135,-2.2135,-2.2135,-2.2135,-2.2123,-2.2197,-2.2185,-2.2197,-2.2123,-2.1999,-2.1937,-2.1874,-2.1761,-2.1812,-2.1818,-2.1595,-2.1428,-2.1211,-2.0754,-2.0516,-2.0672,-2.1521,-2.2762,-2.3744,-2.438,-2.4996,-2.5548,-2.5893,-2.5893,-2.5893,-2.5893,-2.5893,-2.5711,-2.5511,-2.5381,-2.5232,-2.4918,-2.439,-2.4177,-2.3985,-2.3691,-2.3402,-2.3156,-2.326,-2.3349,-2.3422,-2.3451,-2.3566,-2.3595,-2.3595,-2.3595,-2.3595,-2.3595,-2.3595,-2.3595,-2.3595,-2.3566,-2.3566,-2.3523,-2.3566,-2.3523,-2.3363,-2.3319,-2.3436,-2.3392,-2.3201,-2.3082,-2.2992,-2.2947,-2.2888,-2.2888,-2.2888,-2.2692,-2.2601,-1.6446,-1.63,-1.6486,-1.6854,-1.7426,-1.8522,-1.9431,-2.0096,-2.0355,-2.088,-2.1862,-2.1526,-2.18,-2.2185,-2.2197,-2.2197,-2.2197,-2.2197,-2.2197,-2.2197,-2.2197,-2.2197,-2.2197,-2.2197,-2.2197,-2.2197,-2.2197,-2.2197,-2.2197,-2.2197,-2.2469,-2.275,-2.242,-2.2309,-2.2247,-2.2197,-2.2197,-2.2197,-2.2197,-2.2197,-2.2197,-2.2197,-2.2135,-2.2061,-2.2123,-2.2123,-2.2061,-2.2123,-2.2185,-2.2135,-2.1999,-2.1937,-2.1937,-2.1749,-2.1749,-2.1877,-2.1583,-2.126,-2.0839,-2.0346,-2.0133,-2.0312,-2.0891,-2.1929,-2.3111,-2.4121,-2.479,-2.5355,-2.5879,-2.5893,-2.5893,-2.5893,-2.5893,-2.5753,-2.554,-2.5283,-2.5076,-2.4604,-2.4075,-2.3702,-2.354,-2.3431,-2.3126,-2.326,-2.3378,-2.3466,-2.3553,-2.3538,-2.3581,-2.361,-2.3595,-2.3595,-2.3653,-2.3653,-2.3595,-2.3595,-2.3595,-2.3595,-2.3595,-2.3566,-2.3538,-2.3494,-2.3451,-2.3451,-2.3451,-2.3319,-2.3157,-2.3082,-2.2992,-2.2933,-2.2888,-2.2888,-2.2843,-2.2646,-2.2509,-1.6123,-1.6019,-1.6265,-1.6641,-1.7448,-1.911,-1.9955,-2.0172,-2.0366,-2.106,-2.1651,-2.1651,-2.1788,-2.2123,-2.2197,-2.2197,-2.2197,-2.2197,-2.2197,-2.2197,-2.2197,-2.2197,-2.2197,-2.2197,-2.2197,-2.2197,-2.2197,-2.2197,-2.2247,-2.2247,-2.2469,-2.2967,-2.2641,-2.258,-2.258,-2.258,-2.242,-2.2309,-2.2197,-2.2197,-2.2197,-2.2197,-2.2123,-2.2061,-2.2123,-2.2123,-2.2061,-2.2123,-2.2185,-2.2197,-2.2061,-2.1999,-2.2061,-2.1937,-2.1886,-2.1966,-2.1632,-2.15,-2.126,-2.0598,-2.037,-2.0499,-2.0914,-2.1962,-2.2883,-2.3852,-2.46,-2.5232,-2.5605,-2.5893,-2.5893,-2.5893,-2.5893,-2.5879,-2.561,-2.5378,-2.4901,-2.4376,-2.3874,-2.3429,-2.3235,-2.3169,-2.3157,-2.3334,-2.3451,-2.3523,-2.3566,-2.3566,-2.3566,-2.3595,-2.3595,-2.3595,-2.3653,-2.3711,-2.3653,-2.3638,-2.3638,-2.3595,-2.3595,-2.3566,-2.3538,-2.3538,-2.3538,-2.3451,-2.3378,-2.3246,-2.3216,-2.3068,-2.2978,-2.2933,-2.2933,-2.2933,-2.2783,-2.2555,-2.2463,-1.5944,-1.6069,-1.6344,-1.6792,-1.775,-1.9821,-2.0587,-2.0322,-2.091,-2.1198,-2.14,-2.1937,-2.2123,-2.2197,-2.2197,-2.2197,-2.2197,-2.2197,-2.2197,-2.2197,-2.2197,-2.2197,-2.2197,-2.2247,-2.2309,-2.2247,-2.2371,-2.2531,-2.242,-2.2531,-2.2763,-2.3207,-2.3027,-2.298,-2.2919,-2.2811,-2.2531,-2.2247,-2.2197,-2.2197,-2.2197,-2.2197,-2.2197,-2.2123,-2.2185,-2.2197,-2.2123,-2.2185,-2.2197,-2.2197,-2.2135,-2.2135,-2.2073,-2.2135,-2.2135,-2.2051,-2.1728,-2.168,-2.156,-2.1055,-2.0995,-2.1296,-2.1901,-2.226,-2.2812,-2.3865,-2.4737,-2.5287,-2.577,-2.5893,-2.5893,-2.5893,-2.5893,-2.5753,-2.5511,-2.5085,-2.4515,-2.3921,-2.3326,-2.3022,-2.3045,-2.2978,-2.3187,-2.3363,-2.3538,-2.3566,-2.3638,-2.3638,-2.3638,-2.3638,-2.3638,-2.3638,-2.3696,-2.3754,-2.3696,-2.3696,-2.3696,-2.3653,-2.3595,-2.3595,-2.3566,-2.3566,-2.3566,-2.3494,-2.3407,-2.3334,-2.326,-2.3157,-2.3112,-2.3068,-2.3023,-2.2978,-2.2783,-2.2601,-2.2463,-1.5241,-1.5102,-1.5595,-1.6525,-1.7804,-1.9116,-2.024,-2.1122,-2.1708,-2.1901,-2.1987,-2.2123,-2.2197,-2.2197,-2.2197,-2.2197,-2.2197,-2.2197,-2.2197,-2.2197,-2.2197,-2.2197,-2.2309,-2.2531,-2.2531,-2.2469,-2.2592,-2.2992,-2.31,-2.316,-2.3399,-2.4234,-2.38,-2.3207,-2.3148,-2.2932,-2.2531,-2.2309,-2.2197,-2.2197,-2.2197,-2.2197,-2.2135,-2.2123,-2.2061,-2.2123,-2.2123,-2.2123,-2.2197,-2.2197,-2.2061,-2.1937,-2.1824,-2.1937,-2.1999,-2.1963,-2.1944,-2.1788,-2.1596,-2.1356,-2.1272,-2.1332,-2.1699,-2.2004,-2.2703,-2.3985,-2.487,-2.5423,-2.5729,-2.5784,-2.5893,-2.5893,-2.5823,-2.5584,-2.5345,-2.4779,-2.4146,-2.3475,-2.2808,-2.2775,-2.2826,-2.3023,-2.3231,-2.3407,-2.3538,-2.3668,-2.3739,-2.3782,-2.3782,-2.3782,-2.3797,-2.3797,-2.3782,-2.3797,-2.3782,-2.3797,-2.3754,-2.3696,-2.3595,-2.3595,-2.3595,-2.3595,-2.361,-2.3566,-2.3523,-2.3422,-2.3334,-2.3334,-2.3246,-2.3157,-2.3112,-2.3068,-2.3023,-2.2873,-2.2601,-1.4819,-1.4959,-1.6158,-1.6876,-1.7546,-1.9104,-2.0104,-2.064,-2.1487,-2.1837,-2.1909,-2.2077,-2.2197,-2.2197,-2.2197,-2.2197,-2.2197,-2.2197,-2.2197,-2.2197,-2.2197,-2.2197,-2.242,-2.2641,-2.2469,-2.242,-2.2811,-2.3267,-2.3551,-2.3446,-2.3577,-2.4408,-2.3741,-2.3505,-2.3446,-2.31,-2.2763,-2.2641,-2.2359,-2.2197,-2.2197,-2.2197,-2.2197,-2.2123,-2.2123,-2.2123,-2.2123,-2.2123,-2.2197,-2.2185,-2.2123,-2.2061,-2.1999,-2.2061,-2.1987,-2.1842,-2.1773,-2.1703,-2.151,-2.1403,-2.1355,-2.1499,-2.2126,-2.2648,-2.3018,-2.4193,-2.4653,-2.5147,-2.5286,-2.5397,-2.5784,-2.5893,-2.5612,-2.5345,-2.5131,-2.4681,-2.3886,-2.3065,-2.2751,-2.2793,-2.2872,-2.2992,-2.3157,-2.3319,-2.3494,-2.361,-2.3696,-2.3782,-2.3839,-2.3925,-2.3925,-2.3967,-2.3925,-2.3882,-2.3782,-2.3839,-2.3855,-2.3754,-2.3653,-2.361,-2.361,-2.3595,-2.3595,-2.3566,-2.3538,-2.3466,-2.3422,-2.3378,-2.329,-2.3171,-2.3157,-2.3157,-2.3112,-2.3008,-2.2737,-1.4743,-1.5361,-1.7006,-1.7466,-1.7269,-1.9321,-2.0017,-1.9878,-2.0902,-2.1428,-2.1524,-2.1981,-2.2161,-2.2197,-2.2197,-2.2197,-2.2197,-2.2197,-2.2197,-2.2247,-2.2247,-2.2247,-2.2297,-2.2469,-2.2531,-2.2702,-2.304,-2.3148,-2.3207,-2.3386,-2.3859,-2.4092,-2.4092,-2.4092,-2.4021,-2.3787,-2.3386,-2.2811,-2.242,-2.2247,-2.2197,-2.2197,-2.2197,-2.2197,-2.2197,-2.2197,-2.2197,-2.2197,-2.2197,-2.2197,-2.2185,-2.2123,-2.2123,-2.2123,-2.2061,-2.199,-2.1663,-2.1675,-2.1637,-2.1471,-2.1516,-2.182,-2.2761,-2.3207,-2.3433,-2.3741,-2.4266,-2.4567,-2.4765,-2.5174,-2.5619,-2.5728,-2.5406,-2.5036,-2.4755,-2.4371,-2.3497,-2.2725,-2.2708,-2.2749,-2.2872,-2.2947,-2.3157,-2.329,-2.3407,-2.3566,-2.3638,-2.3739,-2.3797,-2.394,-2.4024,-2.4067,-2.4109,-2.4009,-2.3882,-2.3897,-2.3982,-2.3839,-2.3739,-2.3653,-2.361,-2.3595,-2.3551,-2.3523,-2.3494,-2.3509,-2.3422,-2.3378,-2.329,-2.3157,-2.3201,-2.3187,-2.3112,-2.2963,-2.2737,-1.5069,-1.5768,-1.6633,-1.7175,-1.779,-1.8748,-1.9295,-1.9856,-2.0854,-2.1404,-2.15,-2.1909,-2.2197,-2.2197,-2.2197,-2.2197,-2.2197,-2.2197,-2.2309,-2.2359,-2.2297,-2.2359,-2.242,-2.2641,-2.2919,-2.3207,-2.3386,-2.3492,-2.3551,-2.4163,-2.4637,-2.4765,-2.4751,-2.4509,-2.3962,-2.3669,-2.322,-2.2763,-2.2531,-2.2309,-2.2197,-2.2197,-2.2197,-2.2197,-2.2197,-2.2197,-2.2197,-2.2197,-2.2197,-2.2197,-2.2197,-2.2197,-2.2197,-2.2197,-2.2123,-2.2049,-2.1723,-2.1782,-2.1732,-2.1623,-2.1729,-2.1865,-2.2457,-2.2519,-2.2702,-2.2884,-2.3352,-2.38,-2.4234,-2.5075,-2.5467,-2.5467,-2.5204,-2.4654,-2.4254,-2.3491,-2.2653,-2.2494,-2.2473,-2.2569,-2.2737,-2.2963,-2.3246,-2.3363,-2.3494,-2.361,-2.3696,-2.3782,-2.3882,-2.4024,-2.4124,-2.4193,-2.4234,-2.4193,-2.4109,-2.4067,-2.4082,-2.3982,-2.3839,-2.3739,-2.3653,-2.3595,-2.3566,-2.3566,-2.3566,-2.3581,-2.3494,-2.3451,-2.3378,-2.3275,-2.3275,-2.3231,-2.3142,-2.2963,-2.2678]}]]